GEFSSGP_con_cape1000_000.txt.gz
Probability
0 0 0 0 0 0 0 0 0 0 0 0 0 0 0 0 0 0 0 0 0 77 100 100 100 100 100 100 100 100 100 100 100 100 100 100 100 100 100 100 100 100 97 90 90 100 100 100 100
0 0 0 0 0 0 0 0 0 0 0 0 3 3 3 0 0 0 0 0 13 94 100 100 100 100 100 100 100 100 100 100 100 100 100 100 100 100 100 100 100 100 100 100 100 87 74 97 100
0 0 0 0 0 0 0 0 0 0 6 10 0 3 6 0 0 0 0 0 52 97 100 100 100 100 100 100 100 100 100 100 100 100 100 100 100 100 100 100 100 100 100 100 100 100 90 84 77
0 0 0 0 0 0 0 0 0 0 3 13 10 0 3 0 0 0 3 13 87 97 100 100 100 100 100 100 100 100 100 100 100 100 100 100 100 100 100 100 100 100 100 100 100 100 100 100 100
0 0 0 0 0 0 0 0 3 0 6 35 6 3 10 0 0 3 19 29 90 97 100 100 100 100 100 100 100 100 100 100 100 100 100 100 100 100 100 100 100 100 100 100 100 100 100 100 100
0 0 0 0 0 0 0 0 0 0 13 19 6 13 10 6 16 16 35 55 90 97 100 100 100 100 100 100 100 100 100 100 100 100 100 100 100 100 100 100 100 100 100 100 100 100 100 100 100
0 0 0 0 0 0 0 0 0 3 10 68 16 6 0 0 19 19 19 74 97 100 100 100 100 100 100 100 100 100 100 100 100 100 100 100 100 100 100 100 100 100 100 100 100 100 100 100 100
0 0 0 0 0 0 0 0 0 3 6 52 35 10 0 0 16 16 26 77 97 100 100 100 100 100 100 100 100 100 100 100 100 100 100 100 100 100 100 100 100 100 100 100 100 100 100 100 100
0 0 0 0 0 0 0 6 0 0 16 16 45 39 3 3 10 61 58 84 97 100 97 97 97 97 100 100 100 100 100 100 100 100 100 100 100 100 100 100 100 100 100 100 100 100 100 100 100
0 0 0 0 0 0 0 0 3 3 0 16 3 13 6 6 42 87 68 65 90 97 100 97 94 90 100 100 100 100 100 100 100 100 100 100 100 100 100 100 100 100 100 100 100 100 100 100 100
0 0 0 0 0 0 0 0 6 6 16 19 42 45 13 29 68 90 94 48 23 94 97 97 94 94 100 100 100 100 100 100 100 100 100 100 100 100 100 100 100 100 100 100 100 100 100 100 100
0 0 0 0 0 0 0 0 13 3 0 0 26 74 71 81 81 97 97 97 94 94 97 97 97 94 100 97 87 87 100 100 100 97 97 97 97 87 94 100 100 100 100 100 100 100 100 100 100
0 0 0 0 0 0 0 0 0 0 0 0 68 100 100 100 100 100 100 100 94 84 87 94 97 97 97 94 55 58 87 100 100 97 97 100 100 100 81 32 77 94 94 55 84 68 97 97 100
0 0 0 0 0 0 0 0 0 0 0 3 68 90 100 100 100 100 100 100 100 97 90 81 94 100 97 90 71 45 48 61 74 87 100 97 100 100 84 35 39 55 3 0 0 0 23 55 35
0 0 0 0 0 0 0 0 0 10 13 97 100 100 100 100 100 100 100 100 100 100 100 94 87 90 84 68 32 16 16 23 16 29 39 65 77 94 87 26 19 0 0 0 0 0 6 13 26
0 0 0 0 0 0 0 0 10 68 97 100 100 100 100 100 100 100 100 100 100 100 100 100 97 94 81 35 6 0 0 0 32 23 23 26 6 10 6 3 0 0 0 0 0 0 0 0 0
0 0 0 0 0 0 0 0 61 100 100 100 100 100 97 90 97 100 100 97 100 100 100 100 90 68 42 3 3 0 0 6 10 6 10 13 3 0 3 16 10 0 0 0 0 0 0 0 0
0 0 0 0 0 0 0 68 100 100 100 100 100 100 94 90 81 94 100 100 100 100 90 87 81 84 77 61 26 3 0 0 0 0 0 0 0 6 0 0 0 0 0 0 0 0 0 0 0
0 0 0 0 0 0 6 45 94 97 100 100 100 100 84 81 71 94 100 100 100 97 90 97 97 97 84 26 10 0 0 0 0 0 0 3 3 10 3 0 3 3 0 0 0 0 0 0 0
0 0 0 0 0 0 0 0 19 97 97 100 100 100 84 65 68 74 71 84 100 87 90 100 97 100 100 71 29 23 39 32 13 3 0 0 0 0 3 6 3 3 0 3 10 6 0 0 0
0 0 0 0 0 0 0 0 0 90 100 100 100 100 90 48 45 58 16 35 100 97 77 77 84 87 84 87 74 68 16 0 0 0 0 0 0 0 0 0 0 0 10 16 23 35 13 3 0
0 0 0 0 0 0 0 0 0 32 94 97 94 90 87 39 32 26 6 16 84 97 87 68 45 26 19 26 35 19 0 0 0 0 0 0 0 0 0 0 0 0 0 0 26 65 81 29 3
0 0 0 0 0 0 0 0 0 19 77 90 84 77 81 42 39 39 13 10 42 55 48 19 13 10 3 3 0 3 0 0 0 0 0 0 0 0 0 0 0 0 0 0 0 71 74 32 6
0 0 0 0 0 0 0 0 0 3 19 39 35 48 74 58 32 35 23 0 0 0 0 3 0 0 0 0 0 0 0 0 0 0 0 0 0 0 0 0 0 0 0 0 0 29 35 35 6
0 0 0 0 0 0 0 0 0 0 0 0 65 65 65 52 35 23 26 6 0 0 0 0 0 0 0 0 0 0 0 0 0 0 0 0 0 0 0 0 0 0 0 0 0 0 3 3 6
0 0 0 0 0 0 0 0 0 0 0 0 3 32 13 3 0 0 0 0 0 0 0 0 0 0 0 0 0 0 0 0 0 0 0 0 0 0 0 0 0 0 0 0 0 0 0 0 6
0 0 0 0 0 0 0 0 0 0 0 0 0 0 0 0 0 0 0 0 0 0 0 0 0 0 0 0 0 0 0 0 0 0 0 0 0 0 0 0 0 0 0 0 0 0 0 0 0
0 0 0 0 0 0 0 0 0 0 0 0 0 0 0 0 0 0 0 0 0 0 0 0 0 0 0 0 0 0 0 0 0 0 0 0 0 0 0 0 0 0 0 0 0 0 0 0 0
0 0 0 0 0 0 0 0 0 0 0 0 0 0 0 0 0 0 0 0 0 0 0 0 0 0 0 0 0 0 0 0 0 0 0 0 0 0 0 0 0 0 0 0 0 0 0 0 0
0 0 0 0 0 0 0 0 0 0 0 0 0 0 0 0 0 0 0 0 0 0 0 0 0 0 0 0 0 0 0 0 0 0 0 0 0 0 0 0 0 0 0 0 0 0 0 0 0

GEFSSGP_con_cape1000_006.txt.gz
Probability
0 0 0 0 6 3 0 0 0 0 0 0 0 0 0 0 0 65 68 0 13 58 84 90 100 100 100 100 100 100 100 100 100 100 100 100 100 100 100 94 55 29 65 97 100 100 100 100 100
0 0 0 0 3 0 0 0 0 3 0 3 0 0 0 0 0 19 29 0 23 39 68 29 100 100 100 100 100 100 100 100 100 100 100 100 100 100 100 100 97 68 29 29 45 55 81 90 84
0 0 0 0 0 0 0 0 0 6 10 13 0 0 0 0 0 0 13 6 32 68 81 100 100 100 100 100 100 100 100 100 100 100 100 100 100 100 100 100 100 100 90 71 48 19 19 23 42
0 0 0 0 0 0 0 0 0 6 10 19 6 0 0 0 0 0 3 6 55 90 58 100 100 100 100 100 100 100 100 100 100 100 100 100 100 100 100 100 100 100 100 97 100 90 71 45 29
0 0 0 0 0 0 0 0 0 3 3 48 6 0 0 58 6 3 6 19 77 68 61 100 100 100 100 100 100 100 100 100 100 100 100 100 100 100 100 100 100 100 100 100 100 100 100 100 100
0 0 0 0 0 0 0 3 0 6 32 65 6 0 35 94 48 6 16 32 42 48 61 100 100 100 100 100 100 100 100 100 100 100 100 100 100 100 100 100 100 100 100 100 100 100 100 100 100
0 0 0 0 0 0 0 10 3 0 19 74 29 3 39 97 94 65 68 65 58 42 84 100 100 100 100 100 100 100 100 100 100 100 100 100 100 100 100 100 100 100 100 100 100 100 100 100 100
0 0 0 0 0 0 0 10 0 6 42 94 81 26 45 100 100 94 94 97 100 90 87 100 100 100 100 100 100 100 100 100 100 100 100 100 100 100 100 100 100 100 100 100 100 100 100 100 100
0 0 0 0 0 0 0 0 3 13 55 94 100 100 100 100 100 100 100 100 100 100 100 100 94 100 100 90 100 100 100 100 100 100 100 100 100 100 100 100 100 100 100 100 100 100 100 100 100
0 0 0 0 0 0 0 0 0 0 3 35 100 100 100 100 100 100 100 100 100 100 100 100 100 100 100 94 100 100 100 100 100 100 100 100 100 100 100 100 100 100 100 100 100 100 100 100 100
0 0 0 0 0 0 0 0 0 0 0 0 71 100 100 100 100 100 100 100 100 100 100 100 100 100 100 100 100 100 100 100 100 100 100 100 100 100 100 100 100 100 100 100 100 100 100 100 100
0 0 0 0 0 0 0 0 0 0 0 16 42 100 100 100 100 100 97 100 100 100 100 100 100 100 100 100 100 100 100 100 100 100 100 100 100 100 100 100 100 100 100 100 100 100 48 77 94
0 0 0 0 0 0 0 0 0 0 0 26 77 100 100 100 100 100 100 100 100 100 100 100 100 100 100 100 100 100 100 100 100 100 100 100 100 100 100 100 100 100 100 100 97 45 23 68 77
0 0 0 0 0 0 0 0 0 0 0 39 90 100 100 100 100 100 100 100 100 100 100 100 100 100 100 100 100 100 100 100 100 100 100 100 100 100 100 100 100 100 100 97 87 52 52 32 32
0 0 0 0 0 0 0 0 0 0 0 45 90 100 100 100 100 100 100 100 100 100 100 100 100 100 100 100 100 100 100 100 100 100 100 100 100 100 100 100 100 97 90 90 81 55 35 23 10
0 0 0 0 0 0 0 0 0 3 3 48 97 100 100 100 100 100 100 100 100 100 100 100 100 100 100 100 100 100 100 100 100 100 100 100 100 100 100 100 100 94 100 94 84 58 39 42 45
0 0 0 0 0 0 0 0 13 23 26 84 100 100 100 100 100 100 100 100 100 100 100 100 100 100 100 100 100 100 100 100 100 94 97 100 100 97 90 87 84 81 77 87 81 87 94 87 87
0 0 0 0 0 0 0 0 55 97 90 100 100 100 100 100 100 100 100 100 100 100 100 100 100 100 97 90 94 94 84 74 74 81 94 90 65 39 23 6 16 6 13 32 52 71 94 94 94
0 0 0 0 0 0 0 10 68 100 100 100 100 100 100 100 100 100 100 97 94 97 100 100 97 97 97 84 48 29 16 19 16 19 35 32 19 19 19 0 0 0 0 3 3 6 6 19 52
0 0 0 0 0 0 0 0 45 97 97 100 100 100 100 100 97 84 87 77 84 90 97 100 100 84 94 74 81 68 23 0 0 3 26 29 23 3 0 0 0 0 0 0 0 6 0 0 0
0 0 0 0 0 0 0 0 10 65 97 100 100 100 100 94 71 52 39 48 71 84 84 84 97 94 90 87 48 68 94 77 3 13 23 16 16 6 3 3 3 0 0 0 0 6 10 0 0
0 0 0 0 0 0 0 0 0 0 32 84 97 100 97 71 26 16 10 16 45 65 90 94 97 100 97 100 61 19 29 0 0 48 13 23 10 0 0 0 0 3 0 3 0 0 13 23 10
0 0 0 0 0 0 0 0 0 0 0 10 68 97 94 71 26 16 10 26 45 58 90 97 100 100 97 97 97 97 68 6 3 48 39 32 0 0 0 0 0 6 0 0 6 26 19 19 26
0 0 0 0 0 0 0 0 0 0 3 16 52 94 94 77 52 29 42 58 81 87 94 97 100 100 100 94 87 94 90 97 90 74 26 10 0 0 0 0 0 0 0 0 6 10 13 29 61
0 0 0 0 0 0 0 0 0 3 6 35 68 61 65 52 32 32 35 45 45 58 68 77 74 97 90 90 90 90 100 100 100 65 16 6 0 0 0 0 0 0 0 3 6 13 19 19 55
0 0 0 0 0 0 0 0 0 3 3 16 19 13 10 3 0 0 0 0 6 13 32 39 61 77 68 68 87 94 97 100 71 65 16 0 0 0 0 0 0 0 0 0 3 0 10 23 52
0 0 0 0 0 0 0 0 0 6 3 0 0 0 0 0 0 0 0 0 0 0 3 10 39 65 71 52 77 97 97 100 94 74 48 3 0 0 0 0 0 0 3 6 6 3 6 23 42
0 0 0 0 0 0 0 0 0 0 0 0 0 0 0 0 0 0 0 0 0 0 0 0 0 10 23 42 74 74 97 100 100 94 55 26 13 3 0 0 0 0 0 0 6 6 6 19 42
0 0 0 0 0 0 0 0 0 0 0 0 0 0 0 0 0 0 0 0 0 0 0 0 0 0 0 0 6 26 61 77 97 100 94 74 52 35 13 0 0 0 0 0 6 3 0 6 16
0 0 0 0 0 0 0 0 0 0 0 0 0 0 0 0 0 0 0 0 0 0 0 0 0 0 0 0 0 0 6 10 39 65 94 94 84 55 16 0 0 0 0 0 0 0 0 0 0

GEFSSGP_con_cape1000_012.txt.gz
Probability
0 0 0 10 55 84 26 0 0 0 0 0 0 0 0 16 94 19 0 19 71 13 32 100 100 100 100 100 100 100 100 100 100 100 100 100 71 35 23 48 87 100 100 100 100 100 100 100 100
0 0 0 3 16 13 0 0 0 0 0 0 0 0 0 0 0 0 0 61 48 13 6 90 100 100 100 100 100 100 100 100 100 100 100 100 100 61 23 16 32 61 74 87 84 81 87 81 84
0 0 0 0 3 0 0 0 0 0 0 0 0 0 0 0 0 0 6 26 19 0 0 100 100 100 100 100 100 100 100 100 100 100 100 100 100 100 97 84 68 29 19 19 16 19 13 26 35
0 0 0 0 0 0 0 0 0 0 0 0 0 0 0 0 0 16 6 10 19 13 39 100 100 100 100 100 100 100 100 100 100 100 100 100 100 100 100 97 97 87 68 45 26 19 13 3 3
0 0 0 0 0 0 0 0 0 0 0 0 0 0 0 0 0 10 3 13 26 29 81 100 100 100 100 100 100 100 100 100 100 100 100 100 100 100 100 100 100 100 100 100 97 94 84 71 61
0 0 0 0 0 0 0 0 0 0 0 0 0 0 0 0 0 3 3 16 16 58 94 97 100 100 100 100 100 100 100 100 100 100 100 100 100 100 100 100 100 100 100 100 100 100 100 100 100
0 0 0 0 0 0 0 0 0 0 0 0 0 0 0 0 0 6 6 13 13 71 94 94 100 100 100 100 100 100 100 100 100 100 100 100 100 100 100 100 100 100 100 100 100 100 100 100 100
0 0 0 0 0 0 0 0 0 0 0 0 0 6 10 6 3 6 6 6 19 94 100 100 87 100 100 100 100 100 100 100 100 100 100 100 100 100 100 100 100 100 100 100 100 100 100 100 100
0 0 0 0 0 0 0 0 0 0 0 3 26 16 71 35 16 16 13 6 48 100 100 100 97 100 100 100 100 100 100 100 100 100 100 100 100 100 100 100 100 100 100 100 100 100 100 100 100
0 0 0 0 0 0 0 0 0 0 0 48 74 71 81 74 87 87 87 87 74 100 100 100 100 100 100 100 100 100 100 100 100 100 100 100 100 100 100 100 100 100 100 100 100 100 100 100 100
0 0 0 0 0 0 0 0 0 0 0 39 84 84 87 94 100 94 97 100 100 100 100 100 100 100 100 100 100 100 100 100 100 100 100 100 100 100 100 100 100 100 100 100 100 100 100 100 100
0 0 0 0 0 0 0 0 0 0 0 32 90 77 90 97 100 100 90 100 100 100 100 100 100 100 100 100 100 100 100 100 100 100 100 100 100 100 100 100 100 100 100 100 100 100 90 90 97
0 0 0 0 0 0 0 0 0 0 0 16 58 94 100 100 100 97 100 100 100 100 100 100 100 100 100 100 100 100 100 100 100 100 100 100 100 100 100 100 100 97 94 90 94 94 90 90 90
0 0 0 0 0 0 0 0 0 0 0 3 23 42 71 94 100 97 100 100 100 100 100 100 100 100 100 100 100 100 100 100 100 100 100 100 100 100 100 100 100 97 90 90 90 90 90 90 81
0 0 0 0 0 0 0 0 0 0 0 3 6 23 42 90 100 97 90 100 100 100 100 100 100 100 100 100 100 100 100 100 100 100 100 100 100 100 100 100 100 100 90 87 84 90 90 84 77
0 0 0 0 0 0 0 0 0 0 0 0 6 6 29 94 100 100 100 100 100 100 97 97 100 100 100 100 100 100 100 100 100 100 100 100 100 100 100 100 100 100 100 100 100 94 87 94 90
0 0 0 0 0 0 0 0 0 0 0 3 6 13 48 94 100 100 100 100 100 100 100 100 100 100 100 100 100 100 100 100 97 97 100 100 100 100 100 100 100 94 100 100 97 97 100 97 100
0 0 0 0 0 0 0 0 0 0 0 3 6 26 71 94 100 100 100 97 100 100 100 100 100 100 100 100 100 100 100 100 97 97 100 77 90 94 94 94 90 71 68 77 87 90 87 94 94
0 0 0 0 0 0 0 0 0 0 0 3 23 55 84 94 97 90 90 90 100 100 100 100 100 100 100 100 100 100 100 97 87 87 84 29 39 74 74 77 77 39 29 61 39 39 32 39 52
0 0 0 0 0 0 0 0 0 0 3 13 35 77 77 77 68 65 55 65 84 97 100 100 100 100 100 100 100 100 100 87 90 74 90 71 74 81 35 81 45 48 77 35 45 61 32 16 29
0 0 0 0 0 0 0 0 0 0 6 19 35 42 55 35 23 16 13 32 71 90 97 100 100 100 100 100 100 100 100 100 100 100 100 100 84 42 42 26 32 48 42 58 77 81 77 58 55
0 0 0 0 0 0 0 0 0 10 35 48 39 23 13 3 0 0 6 10 16 39 65 90 100 100 100 100 100 100 97 94 97 100 100 94 68 45 32 16 16 48 71 74 71 65 84 68 45
0 0 0 0 0 0 0 0 3 39 71 52 52 42 10 3 0 0 0 3 6 10 16 32 77 90 97 100 100 100 100 100 100 100 100 100 94 81 52 42 29 61 74 74 74 65 61 58 48
0 0 0 0 0 0 0 0 10 55 71 42 39 26 10 6 0 0 0 3 3 6 6 19 32 52 55 74 87 100 100 100 100 100 100 100 97 94 77 58 68 45 55 58 61 61 48 52 58
0 0 0 0 0 0 0 0 19 42 42 23 23 13 3 0 0 0 0 0 0 0 3 6 13 13 10 13 26 48 77 100 100 100 100 100 94 87 87 23 42 45 52 58 61 68 65 58 58
0 0 0 0 0 0 0 0 13 6 10 0 0 0 0 0 0 0 0 0 0 0 0 0 0 3 3 0 6 10 19 35 58 81 97 100 100 90 71 42 39 55 58 26 55 52 55 58 61
0 0 0 0 0 0 0 10 0 0 0 0 0 0 0 0 0 0 0 0 0 0 0 0 0 0 0 0 0 0 0 6 10 32 48 74 81 77 84 71 48 42 55 61 61 52 65 65 58
0 0 0 0 0 0 0 0 23 0 0 0 0 0 0 0 0 0 0 0 0 0 0 0 0 0 0 0 0 0 0 0 3 0 13 32 32 65 61 84 68 61 52 61 68 61 61 77 71
0 0 0 0 0 0 0 0 3 0 0 0 0 0 0 0 0 0 0 0 0 0 0 0 0 0 0 0 0 0 0 0 0 0 3 3 6 19 32 55 68 71 65 58 71 68 71 65 61
0 0 0 0 0 0 0 0 0 0 0 0 0 0 0 0 0 0 0 0 0 0 0 0 0 0 0 0 0 0 0 0 0 0 0 0 0 0 0 3 23 26 19 58 61 55 48 52 52

GEFSSGP_con_cape1000_018.txt.gz
Probability
0 0 0 0 3 3 3 3 0 0 0 0 0 10 10 6 3 0 0 0 0 19 97 100 100 100 100 100 100 97 90 81 94 100 97 97 100 100 100 100 100 100 100 100 100 100 100 100 100
0 0 0 0 0 0 0 0 0 0 0 0 0 0 0 0 16 0 0 0 0 29 97 100 100 100 100 100 100 97 97 94 97 100 97 90 94 97 100 100 100 100 100 100 100 100 100 100 100
0 0 0 0 0 0 0 0 0 0 0 0 0 0 0 3 29 0 0 0 0 32 65 100 100 100 100 100 100 100 100 100 100 100 94 90 77 94 97 94 100 100 100 100 100 100 100 97 97
0 0 0 0 0 0 0 0 0 0 0 0 0 0 0 0 19 3 0 0 0 6 55 100 100 100 100 100 100 100 100 100 100 100 97 97 94 94 97 94 100 97 97 97 90 87 90 87 87
0 0 0 0 0 0 0 0 0 0 0 0 0 0 0 3 13 0 0 0 0 10 65 100 100 100 100 100 100 100 100 100 100 100 100 100 100 97 100 97 97 97 97 84 65 65 58 58 68
0 0 0 0 0 0 0 0 0 0 0 0 0 0 0 3 6 0 0 0 0 3 74 100 100 100 100 100 100 100 100 100 100 100 100 100 100 100 100 100 100 100 100 97 94 90 90 81 77
0 0 0 0 0 0 0 0 0 0 0 0 0 0 0 3 6 3 0 0 0 0 45 100 100 100 100 100 100 100 100 100 100 100 100 100 100 100 100 100 100 100 100 100 100 100 100 100 100
0 0 0 0 0 0 0 0 0 0 0 0 0 0 0 0 3 0 0 0 0 0 6 77 100 100 100 100 100 100 100 100 100 100 100 100 100 100 100 100 100 100 100 100 100 100 100 100 100
0 0 0 0 0 0 0 0 0 0 0 3 3 0 0 0 0 0 6 10 0 0 0 39 84 94 100 100 100 100 100 100 100 100 100 100 100 100 100 100 100 100 100 100 100 100 100 100 100
0 0 0 0 0 0 0 0 0 0 10 6 13 10 3 3 0 0 16 35 6 0 0 6 55 87 94 100 100 100 100 100 100 100 100 100 100 100 100 100 100 100 100 100 100 100 100 100 94
0 0 0 0 0 0 0 0 0 0 6 16 3 0 3 6 3 3 16 39 58 16 3 0 6 45 74 52 61 100 100 100 100 100 100 100 100 97 97 94 94 97 100 100 100 100 94 87 81
0 0 0 0 0 0 0 0 0 0 3 13 0 0 0 3 6 3 6 26 65 48 19 3 10 10 35 19 48 94 97 100 100 100 100 100 94 90 87 77 74 87 94 100 94 90 84 74 81
0 0 0 0 0 0 0 0 0 0 10 19 3 0 0 0 3 3 3 13 48 68 58 19 16 42 55 61 81 87 90 100 100 100 100 100 90 90 77 71 61 81 81 87 87 77 74 74 77
0 0 0 0 0 0 0 0 0 3 29 39 16 3 0 3 6 6 6 13 16 39 48 45 48 65 81 84 97 100 100 100 100 100 100 94 87 84 71 65 42 48 61 65 65 74 65 58 48
0 0 0 0 0 0 0 0 0 3 32 61 45 10 10 13 19 13 6 10 10 16 29 26 39 55 68 81 87 94 97 100 100 100 100 90 87 71 61 52 52 55 61 52 29 29 16 13 6
0 0 0 0 0 0 0 0 0 3 35 52 48 29 19 6 10 10 6 6 10 10 13 23 26 39 55 58 74 87 90 97 100 100 97 97 84 81 68 55 45 52 48 26 6 6 3 0 0
0 0 0 0 0 0 0 0 3 0 19 32 42 23 6 6 0 3 3 0 3 6 13 16 23 26 39 52 58 68 81 77 87 97 97 97 90 84 71 42 26 13 10 3 0 0 0 0 0
0 0 0 0 0 0 0 0 3 10 10 23 19 13 10 0 0 0 0 0 0 0 3 13 13 16 23 45 52 58 52 52 48 71 71 77 71 61 32 10 6 6 3 0 0 0 0 0 0
0 0 0 0 0 0 0 0 6 6 13 13 13 3 3 0 0 0 0 0 0 0 0 6 13 16 16 32 48 29 29 19 32 48 39 26 32 10 3 0 0 0 0 0 0 0 0 0 0
0 0 0 0 0 0 3 13 19 16 10 10 3 0 0 0 0 0 0 0 0 0 0 0 3 10 13 23 19 16 6 3 10 19 3 10 13 3 0 0 0 0 0 0 0 0 0 0 0
0 0 0 0 0 0 0 10 23 13 3 0 0 0 0 0 0 0 0 0 0 0 0 0 0 0 0 0 3 3 3 0 0 0 0 0 0 0 0 0 0 0 0 0 0 0 0 0 0
0 0 0 0 0 0 0 0 6 10 3 0 0 0 0 0 0 0 0 0 0 0 0 0 0 0 0 0 0 3 3 0 0 0 3 0 0 0 0 0 0 0 0 0 0 0 0 0 0
0 0 0 0 0 0 0 0 0 3 3 0 0 0 0 0 0 0 0 0 0 0 0 0 0 0 0 0 0 0 0 0 0 0 0 0 0 0 0 0 0 0 0 0 0 0 0 0 0
0 0 0 0 0 0 0 0 0 3 0 0 0 0 0 0 0 0 0 0 0 0 0 0 0 0 0 0 0 0 0 0 0 0 0 0 0 0 0 0 0 0 0 0 0 0 0 0 0
0 0 0 0 0 0 0 0 0 0 0 0 0 0 0 0 0 0 0 0 0 0 0 0 0 0 0 0 0 0 0 0 0 0 0 0 0 0 0 0 0 0 0 0 0 0 0 0 0
0 0 0 0 0 0 0 0 0 0 0 0 0 0 0 0 0 0 0 0 0 0 0 0 0 0 0 0 0 0 0 0 0 0 0 0 0 0 0 0 0 0 0 0 0 0 0 0 0
0 0 0 0 0 0 0 0 0 0 0 0 0 0 0 0 0 0 0 0 0 0 0 0 0 0 0 0 0 0 0 0 0 0 0 0 0 0 0 0 0 0 0 0 0 0 0 0 0
0 0 0 0 0 0 0 0 0 0 0 0 0 0 0 0 0 0 0 0 0 0 0 0 0 0 0 0 0 0 0 0 0 0 0 0 0 0 0 0 0 0 0 0 0 0 0 0 0
0 0 0 0 0 0 0 0 0 0 0 0 0 0 0 0 0 0 0 0 0 0 0 0 0 0 0 0 0 0 0 0 0 0 0 0 0 0 0 0 0 0 0 0 0 0 0 0 0
0 0 0 0 0 0 0 0 0 0 0 0 0 0 0 0 0 0 0 0 0 0 0 0 0 0 0 0 0 0 0 0 0 0 0 0 0 0 0 0 0 0 0 0 0 0 0 0 0

GEFSSGP_con_cape1000_024.txt.gz
Probability
0 0 0 0 0 0 3 0 0 0 0 0 0 0 0 3 0 0 0 0 0 0 90 100 100 100 94 87 84 94 97 100 100 100 100 100 100 100 100 100 100 100 100 100 100 100 100 100 100
0 0 0 0 0 0 0 0 0 0 0 0 0 0 0 10 0 0 0 0 0 16 94 100 100 100 100 94 94 94 97 100 100 100 100 100 100 100 100 100 100 100 100 100 100 100 100 100 100
0 0 0 0 0 0 0 0 0 0 0 0 0 0 0 3 6 0 0 0 0 35 90 100 100 100 100 97 97 94 94 100 100 100 100 100 100 100 100 100 100 100 100 100 100 100 100 100 97
0 0 0 0 0 0 0 0 0 0 0 0 0 0 0 13 10 0 0 0 13 65 84 97 100 100 100 100 97 97 94 100 100 100 100 100 100 100 100 100 100 100 100 100 100 100 97 97 97
0 0 0 0 0 0 0 0 0 0 0 0 0 0 0 19 0 0 0 0 23 65 77 97 100 100 100 100 97 97 94 100 100 100 100 100 100 100 100 100 100 100 100 100 100 100 100 100 100
0 0 0 0 0 0 0 0 0 0 0 0 0 0 0 10 0 0 0 0 23 65 90 97 100 100 100 100 100 100 100 100 100 100 100 100 100 100 100 100 100 100 100 100 100 100 100 100 100
0 0 0 0 0 0 0 0 0 0 0 0 0 0 0 16 0 0 0 0 23 68 90 100 100 100 100 100 100 100 100 100 100 100 100 100 100 100 100 100 100 100 100 100 100 100 100 100 100
0 0 0 0 0 0 0 0 0 0 0 0 0 0 0 6 0 0 0 0 16 61 90 100 100 94 97 100 100 100 100 100 100 100 100 100 100 100 100 100 100 100 100 100 100 100 100 100 100
0 0 0 0 0 0 0 0 0 0 0 0 0 0 0 3 0 0 0 0 10 55 71 90 94 94 94 94 94 94 94 100 100 100 100 100 100 100 100 100 100 100 100 100 100 100 100 100 100
0 0 0 0 0 0 0 0 0 0 0 0 0 6 10 13 0 0 0 0 0 16 42 81 87 87 87 87 90 90 90 90 94 97 97 100 100 100 100 100 100 100 100 100 100 100 100 100 97
0 0 0 0 0 0 0 0 0 0 0 0 0 0 16 19 10 6 0 0 0 0 13 32 48 45 58 68 65 68 84 84 87 94 94 97 97 100 100 100 100 100 100 100 97 100 94 90 94
0 0 0 0 0 0 0 0 0 0 0 0 0 0 19 23 19 13 19 6 0 0 0 6 29 35 39 42 45 52 58 68 84 81 87 90 94 97 97 100 97 90 87 90 87 87 84 84 84
0 0 0 0 0 0 0 0 0 0 3 6 10 13 16 19 19 16 10 19 10 3 0 0 10 16 19 29 23 32 42 52 55 65 71 84 87 81 81 77 77 77 77 81 71 71 65 71 77
0 0 0 0 0 0 0 0 0 3 3 6 6 10 16 13 10 3 3 13 13 10 3 0 0 3 10 13 10 13 23 39 45 52 58 61 71 77 71 65 45 48 48 42 42 39 48 52 58
0 0 0 0 0 0 0 0 0 3 3 10 10 10 3 0 0 0 0 3 6 6 6 3 0 0 0 3 3 10 16 26 35 42 42 42 55 61 65 39 29 16 10 3 0 0 0 6 10
0 0 0 0 0 0 0 0 3 0 3 6 6 3 0 0 0 0 0 0 0 0 0 0 0 0 3 3 3 13 19 23 23 26 35 42 58 52 48 39 19 6 3 0 0 0 0 0 0
0 0 0 0 0 0 0 3 3 3 0 0 0 0 3 0 0 0 0 0 0 0 0 0 0 0 3 3 6 13 13 13 19 23 23 29 52 58 35 23 3 3 0 0 0 0 0 0 0
0 0 0 0 3 0 0 0 0 3 3 0 0 0 0 0 0 0 3 0 0 0 0 0 0 0 0 0 3 6 3 3 10 19 26 29 42 58 23 13 3 0 0 0 0 0 0 0 0
0 0 0 6 6 0 0 0 0 0 0 0 0 0 0 0 0 0 0 0 0 0 0 0 0 0 0 0 0 3 3 3 3 10 13 19 29 48 10 6 0 0 0 0 0 0 0 0 0
0 0 0 6 10 3 0 0 0 0 0 0 0 0 0 0 0 0 0 0 0 0 0 0 0 0 0 0 0 0 0 0 0 0 0 0 13 6 10 0 0 0 0 0 0 0 0 0 0
0 0 0 10 6 13 0 0 0 0 0 0 0 0 0 0 0 0 0 0 0 0 0 0 0 0 0 0 0 0 0 0 0 0 0 0 0 3 0 0 0 0 0 0 0 0 0 0 0
0 0 0 6 0 0 0 0 0 0 0 0 0 0 0 0 0 0 0 0 0 0 0 0 0 0 0 0 0 0 0 0 0 0 0 0 0 0 0 0 0 0 0 0 0 0 0 0 0
0 0 0 0 0 0 0 0 0 0 0 0 0 0 0 0 0 0 0 0 0 0 0 0 0 0 0 0 0 0 0 0 0 0 0 0 0 0 0 0 0 0 0 0 0 0 0 0 0
0 0 0 0 0 0 0 0 0 0 0 0 0 0 0 0 0 0 0 0 0 0 0 0 0 0 0 0 0 0 0 0 0 0 0 0 0 0 0 0 0 0 0 0 0 0 0 0 0
0 0 0 0 0 0 0 0 0 0 0 0 0 0 0 0 0 0 0 0 0 0 0 0 0 0 0 0 0 0 0 0 0 0 0 0 0 0 0 0 0 0 0 0 0 0 0 0 0
0 0 0 0 0 0 0 0 0 0 0 0 0 0 0 0 0 0 0 0 0 0 0 0 0 0 0 0 0 0 0 0 0 0 0 0 0 0 0 0 0 0 0 0 0 0 0 0 0
0 0 0 0 0 0 0 0 0 0 0 0 0 0 0 0 0 0 0 0 0 0 0 0 0 0 0 0 0 0 0 0 0 0 0 0 0 0 0 0 0 0 0 0 0 0 0 0 0
0 0 0 0 0 0 0 0 0 0 0 0 0 0 0 0 0 0 0 0 0 0 0 0 0 0 0 0 0 0 0 0 0 0 0 0 0 0 0 0 0 0 0 0 0 0 0 0 0
0 0 0 0 0 0 0 0 0 0 0 0 0 0 0 0 0 0 0 0 0 0 0 0 0 0 0 0 0 0 0 0 0 0 0 0 0 0 0 0 0 0 0 0 0 0 0 0 0
0 0 0 0 0 0 0 0 0 0 0 0 0 0 0 0 0 0 0 0 0 0 0 0 0 0 0 0 0 0 0 0 0 0 0 0 0 0 0 0 0 0 0 0 0 0 0 0 0

GEFSSGP_con_cape1000_030.txt.gz
Probability
0 0 0 3 81 29 0 0 0 0 0 0 0 0 0 0 0 10 74 32 16 90 94 97 97 100 100 100 100 100 100 100 100 100 100 100 100 100 100 100 100 100 100 100 100 100 100 100 100
0 0 0 19 23 0 0 0 0 0 0 0 0 0 0 3 42 52 45 23 19 84 94 94 97 100 100 100 100 100 100 100 100 100 100 100 100 100 100 100 100 100 100 100 100 100 97 97 94
0 0 0 0 0 0 0 0 0 0 0 0 0 0 0 13 35 26 29 10 23 84 94 100 100 100 100 100 100 100 100 100 100 100 100 100 100 100 100 100 100 100 100 100 100 97 97 94 97
0 0 0 0 0 0 0 0 0 0 0 0 0 0 3 84 35 16 6 0 26 87 94 100 100 100 100 100 100 100 100 100 100 100 100 100 100 100 100 100 100 100 100 100 100 97 97 97 97
0 0 0 0 0 0 0 0 0 0 0 0 0 0 35 87 29 10 6 0 29 58 87 100 100 100 100 100 100 100 100 100 100 100 100 100 100 100 100 100 100 100 100 100 100 100 100 100 100
0 0 0 0 0 0 0 0 0 0 0 0 0 3 68 90 55 42 19 13 16 42 74 100 100 100 100 100 100 100 100 100 100 100 100 100 100 100 100 100 100 100 100 100 100 100 100 100 100
0 0 0 0 0 0 0 0 0 0 0 0 0 6 74 94 71 58 45 29 13 13 55 100 100 100 100 100 97 97 100 100 100 100 100 100 100 100 100 100 100 100 100 100 100 100 100 100 100
0 0 0 0 0 0 0 0 0 0 0 0 0 6 61 100 97 77 71 58 39 42 65 100 100 100 100 97 97 97 97 100 100 100 100 100 100 100 100 100 100 100 100 100 100 100 100 100 100
0 0 0 0 0 0 0 0 0 0 0 10 29 39 87 97 100 100 97 90 81 77 87 97 97 97 97 94 94 97 97 97 100 100 100 100 97 77 100 100 100 100 100 100 100 100 100 100 100
0 0 0 0 0 0 0 0 0 0 10 29 42 71 97 97 100 100 100 94 97 97 90 97 97 97 97 94 94 94 94 90 94 97 97 100 97 94 81 94 100 100 100 100 100 100 100 100 97
0 0 0 0 0 0 0 0 3 0 23 39 48 68 94 100 100 100 100 94 87 87 94 94 90 90 90 87 90 90 87 87 87 87 90 97 97 97 90 90 97 100 94 100 100 97 100 94 94
0 0 0 0 0 0 0 0 3 23 23 32 65 77 97 97 97 97 90 87 87 87 94 87 87 87 81 71 68 71 71 74 77 84 84 87 87 90 90 97 90 94 97 97 97 94 94 94 90
0 0 0 0 0 0 0 0 10 16 19 52 68 77 81 87 87 87 87 90 84 87 84 84 81 74 65 61 55 45 55 58 58 77 74 81 84 84 87 94 97 90 94 94 94 90 94 90 81
0 0 0 0 0 0 0 0 6 6 23 35 45 48 48 52 58 65 58 61 55 55 61 52 52 48 58 52 58 55 35 52 45 55 52 74 77 77 84 90 97 97 87 84 90 87 84 84 81
0 0 0 0 0 0 0 3 6 13 19 23 16 16 16 23 19 16 26 39 29 35 35 32 26 29 48 45 45 35 35 23 23 35 42 55 65 68 77 84 90 90 94 94 87 87 84 74 48
0 0 0 0 0 0 0 16 3 10 6 13 13 16 10 10 10 13 10 13 13 23 26 26 13 16 39 48 58 32 35 26 26 32 35 39 45 52 65 55 58 84 77 77 87 87 87 81 71
0 0 0 3 0 3 10 26 13 6 10 6 6 6 6 6 6 3 3 10 10 19 26 29 29 23 35 42 52 42 52 48 55 32 32 26 19 23 39 48 45 42 55 61 48 71 81 71 77
0 0 6 6 16 16 39 26 16 13 10 13 10 6 6 3 3 3 6 6 10 16 13 13 16 19 26 19 29 48 48 48 42 32 29 26 19 16 29 35 32 26 45 55 71 58 77 77 68
0 0 6 39 32 39 42 26 16 13 10 13 3 0 3 6 6 3 3 3 6 10 19 19 19 19 19 19 16 13 23 42 39 26 10 10 13 16 32 26 32 48 32 39 26 42 35 55 42
0 3 23 58 35 26 32 19 13 10 6 6 10 10 6 10 6 6 6 0 0 0 3 10 10 10 13 16 19 23 29 29 29 29 23 16 13 13 10 39 52 52 55 42 42 52 26 19 16
0 3 19 58 55 19 16 13 13 3 3 6 3 3 3 3 3 0 0 0 0 0 0 0 3 6 6 6 6 6 10 10 13 6 10 10 6 3 13 23 48 61 45 42 48 45 26 3 6
0 0 10 48 61 29 16 3 10 6 0 0 0 3 3 0 0 0 0 0 0 0 0 0 0 0 0 0 0 0 3 0 0 0 3 3 3 6 3 6 13 39 52 74 52 23 16 16 3
0 0 13 32 19 10 3 0 13 3 0 0 0 0 0 0 0 0 0 0 0 0 0 0 0 3 3 3 0 0 0 0 0 0 0 0 0 0 0 3 6 13 16 23 52 45 48 23 13
0 13 19 19 3 0 0 0 3 16 0 0 0 0 0 0 0 0 0 0 0 0 0 0 0 0 0 0 0 0 0 0 0 0 0 0 0 0 0 0 3 10 16 19 23 35 55 52 29
0 0 0 0 0 0 0 0 13 13 0 0 0 0 0 0 0 0 0 0 0 0 0 0 0 0 0 0 0 0 0 0 0 0 0 0 0 0 0 0 0 3 3 6 13 16 19 39 68
0 0 0 0 0 0 0 0 19 3 0 0 0 0 0 0 0 0 0 0 0 0 0 0 0 0 0 0 0 0 0 0 0 0 0 0 0 0 0 0 0 0 0 3 3 6 13 23 35
0 0 0 0 0 0 0 3 10 0 0 0 0 0 0 0 0 0 0 0 0 0 0 0 0 0 0 0 0 0 0 0 0 0 0 0 0 0 0 0 0 0 0 0 3 3 3 13 13
0 0 0 0 0 0 0 0 3 0 0 0 0 0 0 0 0 0 0 0 0 0 0 0 0 0 0 0 0 0 0 0 0 0 0 0 0 0 0 0 0 0 0 0 0 0 3 3 3
0 0 0 0 0 0 0 0 0 0 0 0 0 0 0 0 0 0 0 0 0 0 0 0 0 0 0 0 0 0 0 0 0 0 0 0 0 0 0 0 0 0 0 0 0 0 0 0 3
0 0 0 0 0 0 0 0 0 0 0 0 0 0 0 0 0 0 0 0 0 0 0 0 0 0 0 0 0 0 0 0 0 0 0 0 0 0 0 0 0 0 0 0 0 0 0 0 0

GEFSSGP_con_cape1000_036.txt.gz
Probability
0 0 0 19 81 90 48 0 0 0 0 0 0 0 3 10 55 77 48 71 100 94 90 100 100 100 100 100 100 100 100 100 100 100 100 100 100 100 100 100 94 94 94 94 97 97 100 100 100
0 3 13 61 94 61 0 0 0 0 0 0 0 0 6 10 16 39 48 81 100 94 84 100 100 100 100 100 100 100 100 100 100 100 100 100 100 100 100 100 97 94 94 97 100 100 100 100 100
3 19 0 52 61 6 0 0 0 0 0 0 0 0 6 6 10 26 32 81 100 84 94 100 100 100 100 100 100 100 100 100 100 100 100 100 100 100 100 100 100 97 100 100 100 100 94 94 90
13 3 0 0 0 0 0 0 0 0 0 0 0 23 19 13 10 10 23 77 97 97 94 100 100 100 100 100 100 100 100 100 100 100 97 100 100 100 100 100 100 100 100 100 100 100 100 94 90
3 0 0 0 0 0 0 0 0 0 0 0 19 42 29 10 0 3 23 65 87 97 97 97 100 100 100 100 100 100 100 100 97 100 100 100 100 100 100 100 100 100 100 100 100 100 100 97 97
0 0 0 0 0 0 0 0 0 0 0 3 19 45 35 19 0 3 16 45 74 94 97 100 100 100 100 100 100 100 97 97 97 100 100 100 100 100 100 100 100 100 100 100 100 100 100 100 100
0 0 0 0 0 0 0 0 0 0 0 6 19 61 45 23 10 3 10 13 65 97 97 100 100 100 100 100 100 100 100 100 100 100 100 100 100 100 100 100 100 100 100 100 100 100 100 100 100
0 0 0 0 0 0 0 0 0 0 6 19 42 65 58 52 19 23 10 10 71 94 100 100 100 100 100 100 100 100 100 100 100 100 100 100 100 100 100 100 100 100 100 100 100 100 100 100 100
0 0 0 0 0 0 0 0 3 6 16 32 52 71 71 52 52 29 26 19 58 90 100 100 100 100 100 100 100 100 100 100 100 100 100 100 100 100 100 100 100 100 100 100 100 100 100 100 100
0 0 0 0 0 0 0 0 0 10 32 35 65 84 84 71 71 61 52 39 42 77 84 97 97 97 97 97 100 100 97 100 100 100 100 100 100 100 100 100 100 100 100 100 100 100 100 100 100
0 0 0 0 0 0 0 0 3 23 39 48 58 84 90 94 94 94 94 74 74 74 84 84 90 94 94 90 97 100 100 97 97 100 100 100 100 100 100 97 100 100 100 100 100 100 100 100 97
0 0 0 0 0 0 0 0 19 45 42 65 77 81 94 94 97 94 97 84 90 90 90 81 90 94 97 97 94 90 81 90 87 100 100 100 97 100 100 94 94 100 97 100 97 97 97 97 94
0 0 0 0 0 0 0 6 23 42 48 58 77 84 90 87 94 90 90 94 94 90 90 81 87 90 90 94 94 84 87 77 84 100 100 97 90 97 97 90 90 81 84 87 90 97 90 90 90
0 0 0 0 0 0 0 3 39 39 42 61 71 71 74 71 81 77 81 84 90 81 74 77 74 81 84 94 97 94 87 94 87 94 90 90 84 87 81 81 87 84 74 68 71 65 74 81 81
0 0 0 0 0 0 13 29 45 32 52 61 61 58 58 58 61 68 71 81 77 77 71 65 58 68 74 74 81 81 87 81 87 90 84 81 81 81 74 74 74 65 45 42 29 23 42 42 35
0 0 0 0 0 0 6 48 48 52 45 48 52 55 55 55 39 48 55 61 68 68 65 52 35 48 65 61 61 65 84 87 84 84 81 81 77 74 68 61 58 52 48 39 16 13 16 13 19
0 0 0 0 0 0 0 61 48 52 55 52 45 48 45 52 39 42 39 39 45 55 58 58 52 45 48 42 55 55 58 58 77 74 68 61 55 52 55 58 35 29 19 19 13 13 16 10 16
0 0 0 0 0 0 48 58 52 55 58 58 58 52 48 48 35 32 29 35 39 35 42 45 48 48 48 35 39 35 29 39 45 52 52 48 52 42 39 32 39 29 23 13 13 13 6 10 10
0 0 0 0 0 13 45 58 65 55 61 65 65 61 45 29 29 29 23 19 26 26 32 32 45 48 52 42 32 26 16 23 26 26 26 32 29 26 42 29 26 26 16 16 13 6 10 6 3
0 0 0 0 0 3 29 55 58 65 65 58 58 52 35 29 26 23 23 16 16 23 23 26 26 32 39 42 48 32 26 19 10 19 19 16 13 16 6 26 19 23 29 19 10 6 3 3 6
0 0 0 0 0 0 10 26 48 48 42 39 35 29 19 23 16 13 10 6 3 6 13 6 16 23 32 23 10 6 13 3 3 3 6 3 0 3 10 10 10 16 16 16 16 10 6 6 13
0 0 0 0 0 0 0 3 35 19 23 19 23 13 10 3 0 3 0 0 0 0 3 10 16 16 16 16 10 0 0 0 0 10 0 0 0 0 3 3 3 10 10 10 6 3 16 16 6
0 0 0 0 0 0 0 0 10 19 10 13 16 3 3 0 3 3 0 0 0 0 3 6 16 6 6 13 6 0 0 0 0 0 0 0 0 0 0 0 0 3 6 13 6 10 10 16 10
0 0 0 0 0 0 0 0 0 6 13 6 3 0 0 0 3 0 0 0 3 0 0 3 3 3 6 0 0 0 3 3 0 0 0 0 0 0 0 0 0 0 0 3 6 6 3 10 16
0 0 0 0 0 0 0 0 0 10 13 3 0 0 0 0 0 0 0 0 0 0 0 0 0 0 0 0 0 0 0 0 0 0 0 0 0 0 0 0 0 0 0 0 0 0 6 3 3
0 0 0 0 0 0 0 0 13 10 3 0 0 0 0 0 0 0 0 0 0 0 0 0 0 0 0 0 0 0 0 0 0 0 0 0 0 0 0 0 0 0 0 0 0 0 0 0 0
0 0 0 0 0 0 0 19 3 3 0 0 0 0 0 0 0 0 0 0 0 0 0 0 0 0 0 0 0 0 0 0 0 0 0 0 0 0 0 0 0 0 0 0 0 0 0 0 0
0 0 0 0 0 0 0 6 26 0 0 0 0 0 0 0 0 0 0 0 0 0 0 0 0 0 0 0 0 0 0 0 0 0 0 0 0 0 0 0 0 0 0 0 0 0 0 0 0
0 0 0 0 0 0 0 0 0 0 0 0 0 0 0 0 0 0 0 0 0 0 0 0 0 0 0 0 0 0 0 0 0 0 0 0 0 0 0 0 0 0 0 0 0 0 0 0 0
0 0 0 0 0 0 0 0 0 0 0 0 0 0 0 0 0 0 0 0 0 0 0 0 0 0 0 0 0 0 0 0 0 0 0 0 0 0 0 0 0 0 0 0 0 0 0 0 0

GEFSSGP_con_cape1000_042.txt.gz
Probability
3 0 0 0 0 6 23 26 10 0 0 0 6 26 42 71 71 81 71 68 77 100 100 100 100 100 100 100 100 100 100 100 100 100 100 100 100 100 100 100 100 100 100 100 100 94 97 100 100
0 0 0 0 0 16 13 0 0 0 0 6 6 10 26 74 100 90 71 65 77 100 100 100 100 100 100 100 100 100 100 100 100 100 100 100 100 100 100 100 100 100 100 100 100 100 100 100 100
0 0 0 0 3 13 10 0 0 0 0 6 6 6 13 39 84 94 74 58 74 100 100 100 100 100 100 100 100 100 100 100 100 100 100 100 100 100 100 100 100 100 100 100 100 100 100 100 97
0 0 0 0 0 0 6 0 0 3 6 10 10 0 0 13 74 94 65 52 71 100 100 100 100 100 100 100 100 100 100 100 100 100 100 100 100 100 100 100 100 100 100 100 100 100 100 100 97
0 0 0 0 0 0 0 0 3 3 10 13 3 0 0 58 94 77 61 52 84 100 100 100 100 100 100 100 100 100 100 100 100 100 100 100 100 100 100 100 100 100 100 100 100 100 100 100 100
0 0 0 0 0 0 0 3 10 13 19 16 6 6 3 58 90 77 74 74 84 100 100 100 100 100 100 100 100 100 100 100 100 100 100 100 100 100 100 100 100 100 100 100 100 100 100 100 100
0 0 0 0 0 0 0 0 13 23 26 32 23 13 6 32 68 90 87 90 90 100 100 100 100 100 100 100 100 100 100 100 100 100 100 100 100 100 100 100 100 100 100 100 100 100 100 100 100
0 0 0 0 0 0 3 23 35 55 58 45 32 23 19 35 61 87 94 94 94 100 100 100 100 100 100 100 100 100 100 100 100 100 100 100 100 100 100 100 100 100 100 100 100 100 100 100 100
0 0 0 0 0 0 6 32 45 58 68 52 48 26 29 42 68 81 94 90 84 97 97 97 100 100 100 100 100 100 100 100 100 100 100 100 100 100 100 100 100 100 100 100 100 100 100 100 100
0 0 0 0 0 0 16 52 61 74 71 55 65 58 55 58 74 81 77 81 77 77 81 81 84 81 84 97 97 97 97 100 97 97 97 97 97 94 97 97 97 100 100 100 100 100 100 100 100
0 0 0 0 0 3 23 55 61 68 74 74 84 81 81 81 77 68 65 61 61 68 74 68 61 61 71 81 87 87 87 90 97 97 94 90 94 87 87 77 84 87 87 94 90 90 97 90 97
0 0 0 0 0 3 19 48 48 68 77 77 74 81 81 77 68 58 52 45 45 55 58 58 55 58 58 58 55 52 65 65 65 71 77 71 77 61 55 45 35 48 55 68 71 71 65 68 74
0 0 0 0 3 16 35 42 52 61 65 55 55 61 74 55 61 48 35 39 35 39 45 42 35 35 29 26 29 39 35 39 39 45 48 52 55 39 19 26 19 16 16 23 29 32 35 42 39
0 0 0 0 10 19 32 32 42 52 39 39 35 35 45 42 45 32 19 23 29 19 23 19 16 13 16 16 19 26 23 10 19 26 26 39 32 29 13 10 6 3 6 6 6 10 10 16 23
0 0 0 0 0 6 16 52 45 48 35 29 32 32 23 19 29 29 26 26 13 10 6 6 16 13 10 16 10 10 10 10 6 16 16 16 16 19 19 3 0 0 0 3 0 0 0 3 3
0 0 0 0 0 3 16 35 42 26 29 29 35 32 19 19 23 23 23 16 10 10 6 6 10 6 6 6 6 6 3 6 10 0 6 13 16 10 10 3 3 3 3 0 0 0 0 0 0
0 0 0 0 0 6 19 32 26 19 19 26 29 29 29 23 19 19 19 10 10 10 10 10 3 3 0 0 3 3 0 0 0 0 0 0 3 6 6 0 0 0 0 0 3 3 0 0 0
0 0 0 0 6 10 13 23 16 13 23 16 23 19 26 23 13 10 10 6 10 6 6 6 0 0 0 0 0 0 0 0 0 0 0 0 0 0 0 0 0 0 0 0 0 0 0 0 0
0 0 0 0 0 6 13 10 16 13 16 16 26 19 26 16 16 10 10 6 6 3 3 0 3 0 0 0 0 0 0 0 0 0 0 0 0 0 0 0 0 0 0 0 0 0 0 0 0
0 0 0 0 0 3 6 6 6 3 6 13 19 23 16 16 19 19 10 10 6 0 0 0 3 0 0 0 0 0 0 0 0 0 0 0 0 0 0 0 0 0 0 0 0 0 0 0 0
0 0 0 0 0 0 10 0 6 10 6 6 19 13 10 13 16 13 13 13 3 0 0 0 0 0 0 0 0 0 0 0 0 0 0 0 0 0 0 0 0 0 0 0 0 0 0 0 0
0 0 0 0 0 0 0 0 0 3 0 10 3 3 10 6 6 3 3 3 0 0 0 0 0 0 0 0 0 0 0 0 0 0 0 0 0 0 0 0 0 0 0 0 0 0 0 0 0
0 0 0 0 0 0 0 0 0 0 0 0 3 0 3 0 0 0 0 0 0 0 0 0 0 0 0 0 0 0 0 0 0 0 0 0 0 0 0 0 0 0 0 0 0 0 0 0 0
0 0 0 0 0 0 0 0 0 0 0 0 0 0 0 0 0 0 0 0 0 0 0 0 0 0 0 0 0 0 0 0 0 0 0 0 0 0 0 0 0 0 0 0 0 0 0 0 0
0 0 0 0 0 0 0 0 0 0 0 0 0 0 0 0 0 0 0 0 0 0 0 0 0 0 0 0 0 0 0 0 0 0 0 0 0 0 0 0 0 0 0 0 0 0 0 0 0
0 0 0 0 0 0 0 0 0 0 0 0 0 0 0 0 0 0 0 0 0 0 0 0 0 0 0 0 0 0 0 0 0 0 0 0 0 0 0 0 0 0 0 0 0 0 0 0 0
0 0 0 0 0 0 0 0 0 0 0 0 0 0 0 0 0 0 0 0 0 0 0 0 0 0 0 0 0 0 0 0 0 0 0 0 0 0 0 0 0 0 0 0 0 0 0 0 0
0 0 0 0 0 0 0 0 0 0 0 0 0 0 0 0 0 0 0 0 0 0 0 0 0 0 0 0 0 0 0 0 0 0 0 0 0 0 0 0 0 0 0 0 0 0 0 0 0
0 0 0 0 0 0 0 0 0 0 0 0 0 0 0 0 0 0 0 0 0 0 0 0 0 0 0 0 0 0 0 0 0 0 0 0 0 0 0 0 0 0 0 0 0 0 0 0 0
0 0 0 0 0 0 0 0 0 0 0 0 0 0 0 0 0 0 0 0 0 0 0 0 0 0 0 0 0 0 0 0 0 0 0 0 0 0 0 0 0 0 0 0 0 0 0 0 0

GEFSSGP_con_cape1000_048.txt.gz
Probability
16 0 0 0 0 0 0 0 13 10 0 6 45 68 90 97 65 42 55 71 81 97 100 100 100 100 100 100 100 100 100 100 100 100 100 100 100 100 100 100 100 100 100 97 97 97 97 100 100
0 0 0 0 0 0 0 0 0 3 0 3 16 65 100 100 87 71 68 90 97 100 100 100 100 100 100 100 100 100 100 100 100 100 100 100 100 100 100 100 100 100 100 97 97 94 94 100 100
0 0 0 0 0 3 0 0 0 0 0 3 3 3 84 100 94 84 87 97 97 100 100 100 100 100 100 100 100 100 100 100 100 100 100 100 100 100 100 100 100 100 100 100 100 97 94 97 100
0 0 0 0 0 0 0 0 3 0 3 0 0 19 68 97 94 90 94 97 97 100 100 100 100 100 100 100 100 100 100 100 100 100 100 100 100 100 100 100 100 100 100 100 100 100 97 94 97
0 0 0 0 0 0 0 3 6 0 0 3 16 48 77 90 87 94 94 97 100 100 100 100 100 100 100 100 100 100 100 100 100 100 100 100 100 100 100 100 100 100 100 100 100 100 100 100 100
0 0 0 0 0 0 0 10 10 13 13 19 13 48 77 81 87 94 94 97 100 100 100 100 100 100 100 100 100 100 100 100 100 100 100 100 100 100 100 100 100 100 100 100 100 100 100 100 100
0 0 0 0 0 0 10 19 26 32 32 23 26 61 74 74 71 90 97 100 100 100 100 100 100 100 100 100 100 100 100 100 100 100 100 100 100 100 100 100 100 100 100 100 100 100 100 100 100
0 0 0 0 0 3 13 32 52 45 45 42 45 68 77 87 81 84 94 97 100 100 100 100 100 100 100 100 100 100 100 100 100 100 100 100 97 97 97 97 97 100 100 100 100 100 100 100 100
0 0 0 0 0 3 29 52 58 52 45 65 84 77 90 90 87 90 87 94 97 97 97 97 97 97 97 97 97 100 100 100 97 97 97 97 97 97 97 97 97 97 97 100 100 100 100 100 100
0 0 0 0 0 16 42 61 71 68 71 90 100 100 97 84 84 65 68 77 74 77 84 77 84 87 90 94 94 94 94 94 97 94 94 94 94 90 90 94 94 94 94 87 94 94 100 97 94
0 0 0 0 3 23 35 55 58 77 77 90 100 100 90 87 71 68 58 58 55 61 68 61 71 74 77 81 77 71 68 65 68 71 84 84 87 87 81 77 74 77 74 74 84 84 81 87 74
0 0 0 3 3 26 35 65 68 71 77 77 84 87 68 65 61 55 52 42 45 39 39 32 29 35 39 42 39 35 45 39 48 45 48 55 55 61 52 45 48 35 35 35 48 55 61 58 55
0 0 0 13 23 42 61 58 58 58 68 74 71 68 61 52 45 35 32 29 32 32 23 13 13 16 19 16 16 19 16 13 13 16 23 39 45 45 26 19 19 23 23 26 19 23 26 26 32
0 0 10 19 52 55 55 55 52 48 55 55 55 61 45 35 32 35 32 13 16 6 13 6 16 10 10 3 3 3 6 6 3 6 6 10 16 19 6 6 13 10 13 10 6 6 6 6 6
0 0 6 10 16 45 39 42 48 45 42 48 48 39 29 26 29 23 13 10 6 6 6 3 3 6 3 0 0 0 0 0 0 0 0 3 6 6 3 3 0 6 3 3 3 3 3 3 3
0 0 0 3 10 19 29 35 42 39 45 29 35 32 26 16 13 10 10 6 6 6 6 3 6 0 0 0 0 0 0 0 0 0 0 0 3 3 0 0 0 0 0 0 3 0 3 6 3
0 0 0 3 6 19 19 23 39 29 29 29 26 23 29 19 10 13 10 6 6 3 0 0 0 0 0 0 0 0 0 0 0 0 0 0 0 0 0 0 0 0 0 0 0 0 0 0 0
0 0 0 3 13 26 26 23 32 23 23 13 16 19 23 19 6 6 6 3 3 0 0 0 0 0 0 0 0 0 0 0 0 0 0 0 0 0 0 0 0 0 0 0 0 0 0 0 0
0 0 3 3 3 19 16 13 19 23 19 19 16 13 6 16 3 3 3 3 3 0 0 0 0 0 0 0 0 0 0 0 0 0 0 0 0 0 0 0 0 0 0 0 0 0 0 0 0
0 0 0 3 3 6 6 13 16 13 10 10 13 10 6 6 6 6 3 3 0 0 0 0 0 0 0 0 0 0 0 0 0 0 0 0 0 0 0 0 0 0 0 0 0 0 0 0 0
0 0 0 0 3 3 3 3 10 3 0 0 3 3 6 3 6 6 6 0 0 0 0 0 0 0 0 0 0 0 0 0 0 0 0 0 0 0 0 0 0 0 0 0 0 0 0 0 0
0 0 0 0 0 0 0 0 0 0 0 0 0 3 3 6 3 3 3 0 0 0 0 0 0 0 0 0 0 0 0 0 0 0 0 0 0 0 0 0 0 0 0 0 0 0 0 0 0
0 0 0 0 0 0 0 0 0 0 0 0 3 3 3 0 3 3 3 3 0 0 0 0 0 0 0 0 0 0 0 0 0 0 0 0 0 0 0 0 0 0 0 0 0 0 0 0 0
0 0 0 0 0 0 0 0 0 0 0 0 0 3 0 3 0 0 0 0 0 0 0 0 0 0 0 0 0 0 0 0 0 0 0 0 0 0 0 0 0 0 0 0 0 0 0 0 0
0 0 0 0 0 0 0 0 0 0 0 0 0 0 0 0 0 0 0 0 0 0 0 0 0 0 0 0 0 0 0 0 0 0 0 0 0 0 0 0 0 0 0 0 0 0 0 0 0
0 0 0 0 0 0 0 0 0 0 0 0 0 0 0 0 0 0 0 0 0 0 0 0 0 0 0 0 0 0 0 0 0 0 0 0 0 0 0 0 0 0 0 0 0 0 0 0 0
0 0 0 0 0 0 0 0 0 0 0 0 0 0 0 0 0 0 0 0 0 0 0 0 0 0 0 0 0 0 0 0 0 0 0 0 0 0 0 0 0 0 0 0 0 0 0 0 0
0 0 0 0 0 0 0 0 0 0 0 0 0 0 0 0 0 0 0 0 0 0 0 0 0 0 0 0 0 0 0 0 0 0 0 0 0 0 0 0 0 0 0 0 0 0 0 0 0
0 0 0 0 0 0 0 0 0 0 0 0 0 0 0 0 0 0 0 0 0 0 0 0 0 0 0 0 0 0 0 0 0 0 0 0 0 0 0 0 0 0 0 0 0 0 0 0 0
0 0 0 0 0 0 0 0 0 0 0 0 0 0 0 0 0 0 0 0 0 0 0 0 0 0 0 0 0 0 0 0 0 0 0 0 0 0 0 0 0 0 0 0 0 0 0 0 0

GEFSSGP_con_cape1000_054.txt.gz
Probability
32 6 6 0 39 52 6 3 6 16 42 68 74 77 81 81 77 94 87 65 65 97 100 100 100 100 100 100 100 100 100 100 100 100 100 100 100 100 100 100 100 97 94 94 94 94 94 87 94
19 6 0 16 48 13 6 3 13 23 35 48 48 74 74 77 90 90 87 74 77 97 100 100 100 100 100 100 100 100 100 100 100 100 100 100 100 100 100 100 100 100 94 94 97 84 87 87 100
6 0 10 32 19 0 0 3 23 19 13 29 55 71 81 87 87 84 97 84 74 97 100 100 100 100 100 100 100 100 100 100 100 100 100 100 100 100 100 100 100 97 94 94 94 90 90 94 90
0 6 16 16 0 0 0 13 26 16 23 16 39 65 97 100 100 100 97 81 77 100 100 100 100 100 100 100 100 100 100 100 100 100 100 100 100 100 100 100 100 100 100 100 100 97 90 90 90
3 0 3 0 0 0 0 23 23 29 29 29 48 71 94 100 100 100 94 74 90 87 97 100 100 100 100 100 100 100 100 100 100 100 100 100 100 100 100 100 100 100 100 100 100 100 90 90 94
3 3 3 0 0 3 16 35 45 45 48 45 48 68 100 100 100 100 90 84 77 84 90 100 100 100 100 100 100 100 100 100 100 100 100 100 100 100 100 100 100 100 100 100 100 100 100 94 97
3 0 0 0 0 13 19 52 61 61 58 58 65 71 100 100 100 97 97 87 81 87 87 94 94 100 100 100 100 100 100 100 100 100 100 100 100 100 100 100 100 100 100 100 100 100 100 100 97
0 0 0 0 0 10 32 55 77 71 84 81 74 71 94 100 100 97 97 94 94 87 87 97 90 97 97 100 97 100 100 100 97 97 97 97 97 97 97 94 94 97 97 100 100 100 100 97 100
0 0 0 0 0 6 29 52 65 90 94 100 100 97 97 100 100 97 94 94 97 97 97 94 97 100 94 84 97 100 97 97 97 97 97 97 97 90 90 94 94 90 90 94 94 97 100 97 97
0 0 0 0 0 13 26 42 65 84 90 97 97 100 100 100 100 90 87 87 90 94 97 97 87 84 74 68 87 97 90 97 97 97 97 84 81 81 81 84 81 87 87 87 87 87 90 94 94
0 0 0 0 0 13 23 45 68 71 90 97 100 100 100 100 100 90 77 81 81 81 81 87 77 87 77 90 84 90 90 87 87 81 71 77 77 77 77 81 87 87 84 87 84 87 84 90 87
0 0 3 3 10 19 29 45 71 87 94 97 97 100 100 100 100 94 87 81 84 77 81 77 84 87 84 81 81 84 71 61 61 71 68 68 71 77 77 81 81 77 81 87 84 87 81 84 84
0 0 10 29 26 32 55 68 84 97 97 97 97 100 100 100 97 97 90 94 81 77 74 77 81 77 74 68 68 48 52 45 42 52 48 48 52 52 58 65 58 58 55 55 65 68 71 84 81
0 10 26 55 68 84 81 94 94 97 97 97 97 97 100 100 97 97 87 84 77 71 68 71 68 68 61 58 52 42 35 35 19 16 16 19 19 29 32 39 45 42 35 35 42 45 48 55 71
13 23 39 74 90 94 94 100 97 94 97 97 97 97 97 97 94 90 84 81 77 71 65 65 58 55 48 35 19 13 10 6 6 6 10 10 3 16 19 19 19 23 23 26 32 32 35 48 48
13 13 10 65 90 97 94 77 90 90 97 97 97 97 94 90 87 81 74 74 68 65 61 42 16 39 35 26 13 6 6 6 6 6 0 3 3 10 13 3 3 10 13 13 23 23 26 23 35
0 0 0 42 81 87 77 87 94 90 94 94 97 84 81 81 71 71 68 58 55 48 55 32 23 19 10 6 6 6 10 6 3 0 0 0 0 3 0 3 3 0 3 0 0 3 6 10 13
0 0 3 16 58 68 74 81 90 87 87 90 90 84 77 71 68 65 55 52 45 45 29 23 19 13 13 6 10 6 6 3 3 0 0 0 0 0 0 0 0 0 0 0 0 3 3 3 10
0 0 3 23 48 58 52 68 87 87 77 81 84 77 77 71 55 42 48 32 23 32 26 26 23 19 16 6 6 3 3 3 0 0 0 0 0 0 0 0 0 0 0 0 0 0 0 0 3
0 3 10 29 35 42 52 55 71 71 65 61 61 61 61 61 48 42 35 32 23 29 32 39 35 23 23 16 16 16 3 0 0 0 0 0 0 0 0 0 0 0 0 0 0 0 0 0 0
0 0 6 23 26 26 29 42 52 55 45 45 35 42 29 29 23 23 29 29 23 29 32 26 32 26 23 16 10 0 3 3 0 0 0 0 0 0 0 0 0 0 0 0 0 0 0 0 0
0 0 6 10 23 19 10 6 23 29 35 32 29 19 13 13 10 13 19 26 23 26 23 29 39 39 42 29 6 0 0 0 0 0 0 0 0 0 0 0 0 0 0 0 0 0 0 0 0
3 0 10 6 10 3 3 3 6 16 19 19 19 16 10 16 3 6 10 19 16 23 23 29 45 48 39 32 13 10 0 0 0 0 0 0 0 0 0 0 0 0 0 0 0 0 0 0 0
0 3 3 3 0 0 0 0 0 3 3 6 10 16 19 6 6 10 16 29 35 32 32 32 42 52 45 26 6 6 3 0 0 0 0 0 0 0 0 0 0 0 0 0 0 0 0 0 0
0 3 0 0 0 0 0 0 0 0 0 0 3 13 16 10 13 16 26 32 35 39 32 13 26 32 13 6 0 0 0 0 0 0 0 0 0 0 0 0 0 0 0 0 0 0 0 0 0
0 0 0 0 0 0 3 0 0 0 0 0 0 3 13 10 6 10 23 29 29 26 16 10 6 6 6 3 0 0 0 0 0 0 0 0 0 0 0 0 0 0 0 0 0 0 0 0 0
0 0 0 0 0 0 0 0 0 0 0 0 0 3 6 3 3 6 19 23 16 6 3 6 6 3 0 0 0 0 0 0 0 0 0 0 0 0 0 0 0 0 0 0 0 0 0 0 0
0 0 0 0 0 0 0 0 0 0 0 0 0 0 3 0 0 0 6 6 6 6 3 0 0 0 0 0 0 0 0 0 0 0 0 0 0 0 0 0 0 0 0 0 0 0 0 0 0
0 0 0 0 0 0 0 0 0 0 0 0 0 0 0 0 0 0 0 0 0 0 0 0 0 0 0 0 0 0 0 0 0 0 0 0 0 0 0 0 0 0 0 0 0 0 0 0 0
0 0 0 0 0 0 0 0 0 0 0 0 0 0 0 0 0 0 0 0 0 0 0 0 0 0 0 0 0 0 0 0 0 0 0 0 0 0 0 0 0 0 0 0 0 0 0 0 0

GEFSSGP_con_cape1000_060.txt.gz
Probability
68 61 58 65 65 81 52 6 0 6 10 19 26 65 74 74 71 55 42 84 97 97 100 100 100 100 100 100 100 100 100 100 100 100 100 100 100 100 100 97 94 94 84 81 74 74 68 77 77
42 52 45 52 77 58 13 0 3 10 13 19 29 58 61 68 58 42 65 84 94 94 94 100 100 100 100 100 100 100 100 100 100 100 100 100 100 100 100 97 94 94 84 81 74 65 71 81 74
39 55 32 45 65 35 6 3 3 6 0 16 39 68 77 68 61 65 55 77 90 97 100 100 100 100 100 100 100 100 100 100 100 100 100 100 100 100 100 100 97 90 87 84 71 74 74 77 74
48 48 23 23 10 0 3 3 6 6 0 16 61 87 97 84 65 42 45 74 100 100 100 100 100 100 100 100 100 100 100 100 100 100 100 100 100 100 100 100 100 90 94 94 97 81 84 84 71
55 32 23 13 3 0 3 3 3 16 10 19 71 94 100 90 55 35 52 81 100 100 97 100 100 100 100 100 100 100 100 100 100 100 100 100 100 100 100 100 100 100 100 100 100 100 90 87 87
26 13 6 3 0 0 6 3 10 19 13 26 90 97 97 87 52 35 61 71 94 100 97 100 100 100 100 100 100 100 100 100 100 100 100 100 100 100 100 100 100 100 100 100 100 100 97 94 87
16 6 3 0 0 0 3 13 23 23 19 23 65 90 87 87 65 48 52 68 97 100 100 100 100 100 100 100 100 100 100 100 100 100 100 97 97 97 97 97 97 97 94 97 100 100 100 97 97
3 0 0 0 0 0 3 13 23 39 29 45 58 87 94 94 77 74 74 90 100 97 97 100 100 100 97 97 100 100 100 100 100 97 97 97 97 97 97 97 94 94 90 90 90 97 100 100 97
0 0 0 0 0 0 0 10 23 48 55 71 71 87 97 97 84 81 84 87 100 100 100 100 100 100 97 97 100 100 100 100 97 97 94 94 97 97 90 90 84 81 87 90 90 90 94 100 100
0 0 0 0 0 3 16 23 19 39 55 65 84 87 97 100 100 97 90 90 94 100 100 100 100 100 94 94 97 97 97 97 97 94 94 97 97 94 77 77 74 77 81 84 84 84 84 87 90
0 0 0 0 0 3 10 19 16 23 52 58 65 84 87 97 100 97 100 100 97 97 100 97 87 84 87 90 87 90 87 87 90 87 77 84 81 81 74 81 77 77 74 81 84 84 84 81 84
0 0 0 0 3 6 3 3 26 39 48 48 65 74 90 97 100 100 100 94 90 94 87 77 77 77 81 81 84 81 74 68 65 65 58 58 61 68 74 84 77 74 74 74 74 84 81 74 74
0 0 0 0 0 3 6 6 42 58 48 55 61 74 87 100 100 100 100 100 97 90 87 81 74 74 68 71 71 55 55 55 48 39 32 26 29 45 45 52 61 55 61 68 68 68 68 71 68
0 0 0 0 3 3 6 13 35 55 45 61 71 77 90 100 97 100 100 100 94 90 84 74 71 65 61 65 55 52 48 42 29 23 16 16 23 26 29 39 48 48 48 42 35 39 45 52 55
0 0 0 0 0 3 3 19 48 65 61 58 74 84 97 100 97 97 97 97 90 81 71 74 61 61 68 52 42 35 29 23 16 16 16 6 6 13 6 23 35 42 32 26 35 26 39 45 42
0 0 0 0 0 3 3 23 35 48 65 74 84 97 100 97 94 90 94 87 87 71 77 74 52 48 48 45 39 19 6 13 10 10 13 3 3 3 10 13 19 16 16 26 26 19 23 23 29
0 0 0 3 0 0 3 19 26 35 61 74 87 97 94 94 90 87 87 81 81 84 84 74 68 45 39 32 23 10 19 13 13 13 6 3 3 3 3 3 6 13 10 16 6 13 6 10 16
0 0 0 0 0 0 3 23 23 29 58 68 87 87 94 94 90 84 77 74 74 81 84 84 71 58 42 35 26 32 16 16 13 6 6 3 3 3 3 3 0 0 3 10 10 6 3 3 3
0 0 0 0 0 3 6 19 29 32 52 65 90 90 84 84 84 77 74 61 58 81 84 84 74 71 61 52 42 45 35 26 16 6 3 0 0 0 3 0 0 0 0 3 0 0 0 0 6
0 0 0 0 3 6 6 13 35 45 42 61 68 81 77 74 68 68 61 45 55 77 84 90 84 74 74 71 61 58 32 26 19 13 3 3 0 0 0 3 0 0 0 0 0 0 0 0 0
0 0 0 0 0 3 6 6 29 29 32 29 45 55 58 61 58 58 55 52 48 65 77 52 94 90 74 65 58 55 55 42 26 10 10 3 3 3 0 0 0 0 0 0 0 0 0 0 0
0 0 0 0 0 0 0 3 23 19 19 35 32 39 45 45 48 58 52 45 52 58 65 94 94 94 84 71 68 58 45 29 16 13 6 3 3 3 0 0 0 0 0 0 0 0 0 0 0
0 0 0 0 0 0 0 0 6 6 10 23 29 35 39 35 32 42 32 42 42 42 55 87 94 90 84 74 61 52 48 35 16 6 3 3 3 0 0 0 0 0 0 0 0 0 0 0 0
0 0 0 0 0 0 0 0 10 10 13 26 29 35 26 23 23 29 32 42 58 52 55 84 94 94 81 68 52 42 39 16 6 3 3 0 0 0 0 0 0 0 0 0 0 0 0 0 0
0 3 0 0 0 0 0 0 0 6 3 13 23 26 23 23 19 32 23 29 55 58 65 71 87 84 81 55 52 39 19 6 6 3 0 0 0 0 0 0 0 0 0 0 0 0 0 0 0
0 0 0 0 0 0 0 0 0 3 0 3 13 19 26 23 10 3 13 23 42 42 58 71 81 77 55 39 26 13 6 0 0 0 0 0 0 0 0 0 0 0 0 0 0 0 0 0 0
0 0 0 0 0 0 0 3 0 3 0 0 0 6 13 6 6 6 10 19 42 45 48 42 61 48 29 19 19 6 6 0 0 0 0 0 0 0 0 0 0 0 0 0 0 0 0 0 0
0 0 0 0 0 0 0 0 0 3 0 0 0 0 6 10 6 3 6 6 26 32 42 42 39 26 16 10 6 0 3 0 0 0 0 0 0 3 0 0 0 0 0 0 0 0 0 0 0
0 0 0 0 3 0 0 0 0 3 0 0 0 0 0 3 3 3 3 13 10 13 16 16 23 23 10 3 3 0 0 0 3 0 0 0 3 3 3 0 0 0 0 0 0 0 0 0 0
0 0 0 0 0 0 0 0 0 0 0 0 0 0 0 0 0 0 0 10 10 6 10 10 3 3 3 3 0 0 0 0 0 0 0 0 0 3 0 0 0 0 0 0 0 0 0 0 0

GEFSSGP_con_cape1000_066.txt.gz
Probability
81 65 45 39 32 29 3 0 0 0 6 10 23 23 16 26 35 26 45 65 87 100 100 100 100 100 100 100 100 100 100 100 100 100 100 100 100 100 100 100 100 100 97 94 94 94 90 87 87
61 45 35 32 35 6 0 0 0 3 3 10 19 32 39 65 84 87 74 81 94 100 100 100 100 100 100 100 100 100 100 100 100 100 100 100 100 100 100 100 100 97 97 87 90 90 94 87 87
35 35 32 26 10 0 0 0 0 6 10 16 29 32 39 87 77 84 77 84 97 100 100 100 100 100 100 100 100 100 100 100 100 100 100 100 100 100 100 100 94 94 94 94 87 84 74 90 87
23 19 23 23 3 0 3 0 0 3 3 19 26 32 55 77 81 71 65 77 100 100 100 100 100 100 100 100 100 100 100 100 100 100 100 100 100 100 97 94 94 94 94 94 94 87 81 77 74
3 16 23 16 6 3 0 0 0 6 3 16 26 42 52 68 68 58 65 81 90 100 100 100 100 100 100 100 100 100 100 100 100 100 100 100 100 100 100 100 97 100 97 97 100 94 81 81 81
13 10 13 3 3 0 0 0 3 16 10 19 23 35 45 65 74 65 65 65 84 97 97 97 100 100 100 100 100 100 100 100 100 100 100 100 100 100 100 100 100 100 100 100 100 100 94 87 84
0 6 3 3 3 0 6 3 10 6 13 19 23 29 48 65 84 74 61 52 74 97 97 97 97 97 100 100 100 100 100 100 100 100 100 100 100 100 100 100 97 97 97 97 97 100 100 97 94
0 0 3 3 0 0 3 6 10 10 13 19 26 35 52 65 71 74 68 61 77 90 94 90 90 90 94 100 100 100 100 100 100 100 97 97 97 97 97 97 97 97 94 97 97 97 97 100 97
0 0 0 0 0 3 6 16 19 19 19 19 23 35 48 61 68 71 68 68 71 77 81 84 90 90 94 94 97 100 100 100 97 94 94 94 71 71 84 87 87 87 77 81 84 90 90 94 100
0 0 0 0 0 3 3 10 23 16 13 23 35 42 45 58 65 71 74 74 81 71 71 74 81 87 87 84 81 84 84 81 68 65 55 35 29 39 55 68 84 74 71 71 77 81 74 71 61
0 0 0 0 0 6 6 6 13 19 23 19 32 45 52 52 68 71 81 77 77 74 71 55 65 65 68 65 68 68 58 45 35 35 32 23 16 16 16 23 35 39 48 55 65 61 65 65 58
0 0 3 0 0 3 3 6 10 10 13 19 26 45 48 52 58 71 71 77 71 58 55 55 55 52 52 45 45 35 29 23 19 16 23 10 3 6 10 13 16 19 19 26 29 23 35 39 45
0 0 3 0 0 0 19 10 13 13 13 16 23 32 45 58 61 61 58 52 52 45 42 39 45 45 39 32 29 19 16 13 6 3 6 0 0 3 3 6 10 10 6 6 10 6 6 16 13
0 0 0 0 0 0 10 16 16 16 10 13 19 32 48 52 58 61 58 48 52 48 42 39 45 39 23 16 19 16 10 6 6 3 3 0 0 3 3 0 0 3 3 3 3 3 3 3 3
0 0 0 0 0 0 6 10 13 13 16 19 26 23 42 52 52 61 52 48 52 48 45 39 29 23 13 10 13 10 3 3 0 0 0 0 0 0 0 0 0 0 0 3 3 3 3 3 3
0 0 0 0 0 0 6 10 6 16 23 19 26 35 39 45 48 61 61 52 45 45 42 35 29 16 6 6 10 0 0 0 0 0 0 0 0 0 0 0 0 0 0 0 0 0 0 0 0
0 0 0 0 0 0 6 3 10 16 19 23 32 29 32 42 39 48 55 52 48 39 35 26 19 13 3 3 0 0 0 3 0 3 3 3 0 0 0 0 0 0 0 0 0 0 0 0 0
0 0 0 0 0 0 0 3 10 10 19 23 26 29 35 35 39 55 52 52 32 32 23 23 16 13 3 0 0 3 3 3 3 3 3 3 0 0 0 0 0 0 0 0 0 0 0 0 0
0 0 0 0 0 0 0 3 3 6 16 19 23 29 39 39 39 48 39 35 29 23 19 13 10 10 3 3 3 3 3 3 3 3 0 0 0 0 0 0 0 0 0 0 0 0 0 0 0
0 0 0 0 0 0 0 6 6 10 13 13 23 23 29 29 29 42 32 29 23 16 13 10 13 6 3 3 3 3 3 3 3 0 0 0 0 0 0 0 0 0 0 0 0 0 0 0 0
0 0 0 0 0 0 0 0 3 6 10 13 16 23 29 26 26 35 32 23 16 16 16 13 6 3 3 3 0 0 0 0 0 0 0 0 0 0 0 0 0 0 0 0 0 0 0 0 0
0 0 0 0 0 0 0 0 0 3 13 16 13 23 23 26 32 23 19 16 16 16 16 10 3 3 3 3 0 0 0 0 0 0 0 0 0 0 0 0 0 0 0 0 0 0 0 0 0
0 0 0 0 0 0 0 0 0 0 0 6 10 10 16 26 29 26 19 16 16 13 16 10 3 3 3 3 0 0 0 0 0 0 0 0 0 0 0 0 0 0 0 0 0 0 0 0 0
0 0 0 0 0 0 0 0 0 0 0 0 10 13 16 29 29 23 16 13 13 16 26 16 10 10 3 3 0 0 0 0 0 0 0 0 0 0 0 0 0 0 0 0 0 0 0 0 0
0 0 0 0 0 0 0 0 0 0 0 0 3 3 23 26 23 16 13 13 13 19 23 19 10 6 3 3 3 3 3 0 0 0 0 0 0 0 0 0 0 0 0 0 0 0 0 0 0
0 0 0 0 0 0 0 0 0 0 0 0 0 0 13 10 13 13 10 10 13 13 26 23 10 3 3 3 3 3 3 0 0 0 0 0 0 0 0 0 0 0 0 0 0 0 0 0 0
0 0 0 0 0 0 0 0 0 0 0 0 0 3 6 13 16 13 3 3 6 13 16 10 10 6 3 3 0 0 0 0 0 0 0 0 0 0 0 0 0 0 0 0 0 0 0 0 0
0 0 0 0 0 0 0 0 0 0 0 3 0 0 3 3 10 3 3 3 6 10 3 6 10 6 3 0 0 0 0 0 0 0 0 0 0 0 0 0 0 0 0 0 0 0 0 0 0
0 0 0 0 0 0 0 0 0 0 0 0 0 0 0 0 3 3 3 3 0 3 10 13 6 0 0 0 0 0 0 0 0 0 0 0 0 0 0 0 0 0 0 0 0 0 0 0 0
0 0 0 0 0 0 0 0 0 0 0 0 0 0 0 0 0 0 0 0 0 3 10 13 0 0 0 0 0 0 0 0 0 0 0 0 0 0 0 0 0 0 0 0 0 0 0 0 0

GEFSSGP_con_cape1000_072.txt.gz
Probability
84 65 48 26 13 0 0 0 0 6 3 3 0 3 3 19 19 16 26 65 81 87 100 100 100 100 100 100 100 100 100 100 100 100 100 100 100 100 100 100 100 94 87 81 87 87 81 81 87
58 52 29 6 3 0 0 0 0 3 6 3 6 10 23 26 52 68 71 84 81 94 100 100 100 100 100 100 100 100 100 100 100 100 100 100 100 100 97 97 97 87 84 84 84 87 84 87 87
52 35 13 3 3 0 0 0 6 6 6 3 3 16 23 45 61 81 77 81 84 97 97 100 100 100 100 100 100 100 100 100 100 100 100 100 97 97 97 94 90 90 87 81 87 90 90 90 94
19 10 3 6 0 0 0 0 6 10 6 6 13 23 32 55 71 77 84 74 81 90 94 100 100 100 100 100 100 100 100 100 100 100 100 100 97 97 97 97 90 90 94 94 90 87 84 84 90
0 0 3 0 0 0 0 3 0 3 6 3 10 26 42 58 74 77 87 87 87 90 94 97 100 100 100 100 100 100 100 100 100 100 100 100 100 100 97 97 97 94 94 90 97 97 94 81 87
0 0 0 0 0 0 3 3 6 10 13 13 19 26 32 71 77 81 87 87 87 90 94 97 97 100 100 100 100 100 100 100 100 100 100 100 100 100 97 97 97 100 100 100 100 94 90 90 97
0 0 0 0 0 0 10 6 10 10 16 13 23 32 45 58 71 71 77 87 90 94 94 94 94 97 100 100 100 100 100 100 100 100 100 100 100 100 100 97 97 97 97 97 94 94 97 94 94
0 0 0 0 0 0 10 10 6 16 23 23 32 32 45 65 71 68 74 87 90 87 87 87 90 90 94 97 100 100 100 100 97 97 97 94 94 94 94 94 94 94 94 94 94 94 97 94 90
0 0 0 0 0 0 6 13 19 10 19 16 26 32 55 74 61 55 71 74 87 87 84 74 81 87 90 90 97 100 97 90 87 84 84 71 55 58 68 94 90 84 84 87 90 87 87 87 87
0 0 0 0 0 0 10 13 16 13 13 23 29 39 58 68 48 42 42 65 71 68 65 68 71 77 84 84 74 71 65 58 48 42 39 32 23 23 23 42 71 71 65 74 77 77 74 71 61
0 0 0 0 0 0 10 10 10 16 19 16 26 52 58 61 42 32 35 39 45 52 61 55 61 74 74 68 55 42 39 32 23 23 19 19 10 10 13 16 23 19 32 29 42 48 55 55 55
0 0 0 0 0 0 6 10 19 10 10 16 26 52 61 55 42 29 29 32 35 48 55 55 65 58 45 45 42 32 26 19 16 13 13 6 6 6 6 6 13 10 16 16 13 26 32 35 42
0 0 0 0 0 0 6 13 6 13 10 19 35 42 61 55 48 39 23 29 29 42 48 45 48 45 29 23 29 19 10 6 6 6 3 3 3 3 3 6 6 6 6 6 3 3 16 13 13
0 0 0 0 0 6 6 6 10 10 6 23 23 39 48 45 42 39 48 35 32 35 35 35 39 26 16 13 10 6 3 3 3 3 3 3 3 3 3 3 3 0 3 3 3 3 3 3 3
0 0 0 0 0 3 3 13 13 10 6 16 19 29 42 42 32 26 35 35 29 29 23 26 26 19 10 6 3 3 3 3 3 3 3 3 0 3 3 3 3 0 0 3 3 3 3 3 3
0 0 0 0 0 0 0 0 6 10 13 16 16 16 16 26 29 19 23 23 26 26 19 19 19 6 3 3 0 3 3 3 3 3 3 3 0 0 0 0 0 0 0 0 0 0 0 0 3
0 0 0 0 0 0 0 0 6 10 16 10 19 13 13 19 16 16 23 23 23 16 13 13 6 0 0 0 0 0 0 0 0 0 0 0 0 0 0 0 0 0 0 0 0 0 0 0 0
0 0 0 0 0 0 0 0 3 13 13 10 10 10 19 16 13 16 23 23 19 13 6 3 0 0 0 0 0 0 0 0 0 0 0 0 0 0 0 0 0 0 0 0 0 0 0 0 0
0 0 0 0 0 0 0 0 3 10 10 10 10 13 13 23 19 19 19 23 16 6 0 3 0 0 0 0 0 0 0 0 0 0 0 0 0 0 0 0 0 0 0 0 0 0 0 0 0
0 0 0 0 0 0 0 0 6 16 10 10 10 10 13 13 23 23 16 16 10 6 0 0 0 0 0 0 0 0 0 0 0 0 0 0 0 0 0 0 0 0 0 0 0 0 0 0 0
0 0 0 0 0 0 0 0 0 10 10 6 6 10 19 13 26 23 19 13 0 3 0 3 0 0 0 0 0 0 0 0 0 0 0 0 0 0 0 0 0 0 0 0 0 0 0 0 0
0 0 0 0 0 0 0 0 0 0 0 3 6 10 13 13 23 16 16 10 3 0 0 0 0 0 0 0 0 0 0 0 0 0 0 0 0 0 0 0 0 0 0 0 0 0 0 0 0
0 0 0 0 0 0 0 0 0 0 0 3 3 6 13 16 16 19 19 10 10 3 0 0 0 0 0 0 0 0 0 0 0 0 0 0 0 0 0 0 0 0 0 0 0 0 0 0 0
0 0 0 0 0 0 0 0 0 0 0 0 0 6 10 13 10 10 13 13 10 6 3 3 3 3 0 0 0 0 0 0 0 0 0 0 0 0 0 0 0 0 0 0 0 0 0 0 0
0 0 0 0 0 0 0 0 0 0 0 0 0 6 6 13 10 6 3 10 6 6 6 6 3 3 3 0 0 0 0 0 0 0 0 0 0 0 0 0 0 0 0 0 0 0 0 0 0
0 0 0 0 0 0 0 0 0 0 0 0 0 6 6 13 13 13 10 10 10 6 6 6 6 3 3 3 3 0 0 0 0 0 0 0 0 0 0 0 0 0 0 0 0 0 0 0 0
0 0 0 0 0 0 0 0 0 0 0 0 3 3 6 13 13 13 10 10 10 6 6 6 6 6 3 3 3 0 0 0 0 0 0 0 0 0 0 0 0 0 0 0 0 0 0 0 0
0 0 0 0 0 0 0 0 0 0 0 3 3 3 3 3 10 10 13 10 13 6 6 6 6 6 6 3 3 0 0 0 0 0 0 0 0 0 0 0 0 0 0 0 0 0 0 0 0
0 0 0 0 0 0 0 0 0 0 0 0 3 3 0 0 3 6 6 6 10 6 6 6 3 3 3 3 3 3 0 0 0 0 0 0 0 0 0 0 0 0 0 0 0 0 0 0 0
0 0 0 0 0 0 0 0 0 0 0 0 3 0 0 0 0 3 3 3 3 3 3 3 3 3 3 3 3 3 0 0 0 0 0 0 0 0 0 0 0 0 0 0 0 0 0 0 0

GEFSSGP_con_cape1000_078.txt.gz
Probability
84 58 65 71 65 3 0 0 0 3 13 13 10 3 6 6 3 23 74 16 26 65 77 94 100 100 100 100 100 100 100 100 100 100 100 100 100 100 100 87 84 71 71 68 74 81 81 81 84
52 52 65 52 19 0 0 0 3 10 23 16 6 6 10 35 42 74 81 39 39 65 74 65 100 100 100 100 100 100 100 100 100 100 100 100 100 100 100 87 87 74 71 71 74 81 81 81 81
52 52 39 10 0 0 0 0 6 19 16 13 10 10 10 42 61 87 81 55 55 68 77 100 100 100 100 100 100 100 100 100 100 100 100 100 100 97 90 81 87 74 81 77 81 87 81 84 90
45 35 32 0 0 0 0 0 3 19 16 19 16 19 35 71 87 90 77 55 52 74 81 100 100 100 100 100 100 100 100 100 100 100 100 100 97 97 90 84 84 84 87 81 84 81 77 90 94
35 6 0 0 0 0 0 3 16 35 35 32 26 42 52 84 87 87 81 58 55 58 77 90 100 100 100 100 100 100 100 100 100 100 100 97 97 90 90 94 87 87 94 90 97 84 84 87 97
6 3 0 0 0 0 0 13 23 35 48 45 39 52 87 94 94 90 77 58 52 58 61 100 100 100 100 100 100 100 100 100 100 100 100 97 97 97 97 97 97 94 94 84 90 87 94 100 90
0 0 0 0 0 0 0 10 13 39 42 58 55 55 87 100 94 90 74 58 52 55 68 87 68 90 100 100 100 100 100 100 100 100 100 100 100 100 94 94 94 94 94 90 87 81 87 100 97
0 0 0 0 0 0 0 10 19 39 32 45 58 68 87 94 94 94 90 77 71 74 71 84 81 84 90 90 100 100 100 100 100 100 100 100 100 94 94 94 94 90 94 94 94 84 90 90 94
0 0 0 0 0 0 0 0 13 26 32 52 68 81 94 90 94 94 94 90 84 84 90 84 84 94 90 84 94 97 97 97 97 90 84 81 84 84 87 90 87 90 87 81 90 90 74 81 71
0 0 0 0 0 0 0 3 10 35 32 35 61 84 87 90 90 90 90 81 81 84 90 90 90 90 84 84 87 90 90 87 84 77 77 77 81 77 52 48 71 81 84 74 74 74 74 71 61
0 0 0 0 0 0 0 0 13 23 26 35 61 84 84 90 90 90 87 81 74 90 87 94 84 84 84 94 84 87 81 81 77 68 68 68 55 39 39 45 48 58 55 61 65 68 61 52 58
0 0 0 0 0 0 0 0 0 23 26 42 65 84 84 87 90 84 77 74 71 84 90 81 90 90 84 87 81 77 77 74 55 48 42 39 29 29 23 32 29 35 42 39 45 61 61 58 52
0 0 0 0 0 0 0 0 3 13 13 35 61 81 81 84 77 77 74 74 77 87 84 81 84 84 90 84 74 65 65 45 45 42 32 19 16 16 16 23 23 19 23 19 42 29 45 45 42
0 0 0 0 0 0 0 0 3 13 29 42 61 77 81 77 74 71 77 68 74 74 81 81 77 77 84 81 77 65 48 42 32 19 16 13 13 13 13 19 19 16 19 16 23 16 32 32 35
0 0 0 0 0 0 0 0 0 19 26 52 55 65 68 68 65 71 61 68 65 68 71 74 74 77 74 74 61 42 42 29 23 13 10 10 6 6 10 13 10 10 13 23 13 16 10 13 13
0 0 0 0 0 0 0 0 3 16 26 39 52 55 61 65 55 58 52 58 55 68 74 71 58 77 74 68 55 42 32 26 13 6 6 6 6 3 3 3 3 10 10 10 10 6 6 6 6
0 0 0 0 0 0 0 0 6 16 16 29 35 39 39 55 42 45 52 48 55 58 61 65 61 68 68 58 45 35 29 16 10 3 3 3 3 3 3 3 3 3 3 3 3 3 3 3 3
0 0 0 0 0 0 0 0 0 6 3 13 29 35 35 29 32 39 52 52 48 48 52 58 55 65 61 48 42 32 16 13 6 3 3 3 3 3 3 3 3 3 3 3 3 3 3 3 3
0 0 0 0 0 0 0 0 0 6 10 10 23 26 29 32 26 29 39 42 39 42 48 48 48 48 45 45 32 23 16 13 3 3 6 3 3 3 3 3 3 3 3 0 3 3 3 0 0
0 0 0 0 0 0 0 3 3 6 6 10 23 26 29 29 32 35 45 48 45 52 52 48 45 42 45 45 39 23 16 10 6 6 6 6 3 3 3 3 3 3 3 0 0 0 0 0 0
0 0 0 0 0 0 0 3 10 19 13 10 16 13 16 23 35 48 52 42 39 42 42 32 48 52 45 42 29 19 19 13 6 6 6 3 3 3 3 3 3 3 0 0 0 0 0 0 0
0 0 0 0 0 0 0 0 10 13 13 13 16 13 16 16 32 42 42 48 39 42 42 39 42 52 48 42 19 16 16 13 6 10 6 3 3 3 3 3 3 0 0 0 0 0 0 0 0
0 0 0 0 0 0 0 0 0 6 3 10 10 13 13 16 26 42 45 42 42 35 42 35 52 52 52 39 35 32 16 16 10 10 10 10 3 3 3 3 3 0 0 0 0 0 0 0 0
0 0 0 0 0 0 0 0 0 0 3 3 10 6 19 16 29 39 48 52 58 48 39 39 42 52 42 39 35 39 26 26 23 13 3 10 6 3 3 3 3 3 0 0 0 0 0 0 0
0 0 0 0 0 0 0 0 0 0 0 0 3 10 13 23 32 48 58 71 68 55 45 35 45 45 42 42 42 48 52 55 48 39 16 13 3 3 3 3 3 3 0 0 0 0 0 0 0
0 0 0 0 0 0 0 0 0 0 3 3 3 10 16 29 26 39 58 71 65 52 58 48 45 45 42 45 48 55 52 35 29 52 16 13 6 3 3 3 3 3 0 0 0 0 0 0 0
0 0 0 0 0 0 0 0 0 6 3 3 3 6 10 29 32 39 61 65 65 65 61 55 58 65 52 48 61 61 55 45 39 39 39 19 10 3 6 3 0 0 0 0 0 0 0 0 0
0 0 0 0 0 0 0 0 0 0 0 3 3 6 13 19 39 48 55 48 65 71 65 68 68 71 68 65 65 52 61 58 52 45 35 29 16 10 6 3 0 0 0 0 0 0 0 0 0
0 0 0 0 0 0 0 0 0 3 6 3 3 3 6 13 19 42 42 58 71 65 68 74 71 74 74 71 81 74 74 55 55 48 35 35 29 16 10 6 0 0 0 0 0 0 0 0 0
0 0 0 0 0 0 0 0 0 3 3 3 3 3 13 10 13 23 42 55 68 65 61 68 77 77 71 77 81 84 81 71 65 55 42 45 39 23 13 3 3 0 0 0 0 0 0 0 0

GEFSSGP_con_cape1000_084.txt.gz
Probability
77 61 81 87 87 77 32 0 0 3 3 3 0 3 10 39 35 35 26 35 77 77 94 100 100 100 100 100 100 100 100 100 100 100 100 100 100 97 94 87 87 87 84 77 81 81 77 87 81
58 77 77 74 71 29 0 0 3 13 10 6 3 10 16 48 52 48 29 68 84 81 87 100 100 100 100 100 100 100 100 100 100 100 100 100 100 97 97 90 84 84 84 81 81 77 81 81 84
48 65 42 35 35 6 0 0 0 0 0 6 10 16 35 81 74 58 55 65 77 87 94 100 100 100 100 100 100 100 100 100 100 100 100 100 97 97 97 94 84 81 84 84 81 81 87 87 87
52 55 26 13 0 0 0 0 0 3 6 10 13 32 74 87 90 68 65 61 81 84 90 100 100 100 100 100 100 100 100 100 100 100 100 97 94 87 81 90 87 87 77 77 71 77 90 94 84
39 23 19 6 0 0 0 0 0 0 6 16 16 58 90 94 90 84 74 68 84 84 81 94 100 100 100 100 100 100 100 100 100 100 100 100 94 90 87 81 90 87 87 84 77 74 87 87 94
10 10 0 0 0 0 0 0 0 0 13 13 23 58 94 97 97 84 71 71 84 90 84 94 100 97 100 100 100 100 100 100 100 97 97 97 90 90 97 90 90 90 87 84 84 74 90 84 90
3 0 0 0 0 0 0 0 0 0 19 26 26 58 94 90 87 87 77 71 81 84 87 84 94 97 97 100 100 100 100 100 100 100 97 97 94 94 90 90 87 84 77 77 81 74 74 81 81
0 0 0 0 0 0 0 0 0 6 16 23 23 55 90 90 84 81 68 77 81 94 90 87 77 84 84 97 100 100 100 100 100 100 100 100 97 87 84 94 90 87 84 84 81 77 81 84 77
0 0 0 0 0 0 0 0 0 3 6 16 35 81 94 87 87 77 74 87 97 100 97 84 81 94 94 87 100 100 100 100 100 97 94 97 94 94 94 90 90 87 84 81 77 74 71 74 74
0 0 0 0 0 0 0 0 0 0 6 26 65 84 90 87 87 84 77 90 90 94 87 94 90 90 90 94 97 100 97 97 97 90 84 87 84 81 68 71 77 74 77 77 74 77 74 71 68
0 0 0 0 0 0 0 0 0 0 13 45 81 84 84 84 94 87 84 94 94 90 87 84 87 90 94 97 94 97 97 97 77 77 74 68 71 58 61 58 68 87 77 77 74 77 71 74 74
0 0 0 0 0 0 0 0 0 0 23 55 65 77 84 87 84 84 81 87 87 90 90 87 81 87 94 90 90 84 81 81 71 65 52 55 55 52 58 42 42 48 58 68 68 77 74 68 65
0 0 0 0 0 0 0 0 0 6 29 39 58 65 71 84 81 81 81 87 87 87 87 87 87 87 94 87 84 77 77 68 55 48 45 35 35 32 35 42 45 29 42 55 65 68 65 61 52
0 0 0 0 0 0 0 0 0 13 13 19 32 68 71 71 77 81 81 81 81 84 84 84 90 87 84 87 87 87 58 58 52 39 32 26 26 32 29 35 32 29 35 48 58 48 52 58 55
0 0 0 0 0 0 0 0 3 26 19 19 32 68 71 74 68 68 77 81 81 81 81 87 84 81 77 87 77 58 55 42 32 32 29 13 19 19 26 39 35 32 35 29 45 23 35 42 32
0 0 0 0 0 0 0 3 6 16 19 29 39 65 68 65 65 65 74 74 77 81 84 87 77 81 77 81 84 58 42 29 29 26 23 6 10 6 16 19 23 23 26 35 35 29 19 32 26
0 0 0 0 0 0 0 3 13 13 19 32 35 58 68 65 58 65 65 74 74 74 74 81 77 74 77 71 65 45 45 32 29 23 19 10 3 3 13 16 23 19 16 26 13 23 19 19 19
0 0 0 0 0 0 0 3 10 10 19 19 39 55 55 55 58 48 61 65 74 68 68 81 77 71 71 65 55 52 35 29 26 23 23 10 6 3 6 6 3 6 6 23 29 23 23 23 26
0 0 0 0 0 0 0 3 13 10 10 23 42 58 45 48 55 48 55 55 58 68 65 74 74 68 68 61 52 42 32 29 23 23 16 6 6 6 6 6 6 6 6 10 6 6 13 13 3
0 0 0 0 0 0 0 0 13 16 13 26 39 39 52 42 42 45 45 52 55 61 61 71 77 68 58 61 58 48 39 26 26 23 19 10 6 6 3 10 6 6 10 10 6 3 6 6 3
0 0 0 0 0 0 0 3 10 16 10 13 19 29 42 35 35 39 48 52 52 55 58 61 81 74 61 65 48 35 42 23 29 32 29 13 10 6 3 3 6 6 6 3 3 6 3 0 3
0 0 0 0 0 0 0 3 13 13 13 13 23 26 29 35 35 39 42 52 58 55 55 68 71 71 71 71 55 39 32 32 39 45 39 26 10 6 3 3 3 3 6 6 3 6 6 0 0
0 0 0 0 0 0 0 0 13 13 19 16 23 19 32 32 26 42 42 48 52 45 58 65 71 71 74 68 58 52 35 42 42 45 45 35 19 13 6 6 6 3 6 3 3 3 0 0 0
0 0 0 0 0 3 0 0 3 3 10 13 19 32 42 29 29 39 48 52 52 45 55 61 68 71 68 65 65 61 55 48 42 48 48 42 35 23 16 10 10 10 3 3 3 0 0 0 0
0 0 6 3 3 0 0 0 0 0 3 6 19 26 23 29 29 35 52 52 55 45 52 65 71 68 71 68 65 61 65 65 65 61 61 52 32 19 29 13 16 13 10 3 3 3 3 0 0
0 0 0 0 0 0 0 0 3 0 3 10 13 19 23 23 32 32 42 58 61 58 65 65 71 68 68 65 68 71 74 65 61 71 71 68 61 39 26 26 23 13 13 3 10 6 6 3 0
0 0 0 0 0 0 0 3 3 3 3 6 13 19 19 29 29 39 58 55 65 68 71 65 71 71 71 68 71 74 77 77 77 74 71 65 61 39 39 26 19 13 13 6 10 10 10 6 6
0 0 0 0 3 0 0 0 6 6 6 3 19 23 32 26 42 48 58 58 65 68 71 71 74 74 74 71 68 61 84 77 77 77 71 68 65 55 48 26 13 13 13 13 13 10 10 6 6
0 0 0 0 0 0 0 0 0 6 6 3 10 23 39 32 42 55 58 68 77 74 74 74 77 81 81 71 74 77 81 77 74 74 77 77 71 61 52 35 26 13 13 19 23 10 10 10 10
0 0 0 3 19 23 10 6 0 0 0 6 3 10 35 48 58 61 61 74 77 84 81 74 87 84 81 81 84 84 81 81 84 81 84 94 90 74 71 55 45 29 16 23 26 13 6 6 6

GEFSSGP_con_cape1000_090.txt.gz
Probability
74 71 39 35 48 16 0 0 0 0 0 6 23 35 26 13 6 0 0 29 68 90 100 100 100 100 100 100 100 100 100 100 100 100 100 100 94 97 94 94 94 94 94 90 87 90 90 97 97
35 32 32 26 29 0 0 0 0 0 3 6 29 52 45 23 16 19 19 48 68 84 100 100 100 100 100 100 100 100 100 100 100 100 100 97 94 90 90 90 94 94 87 90 94 90 94 94 97
3 19 35 16 6 0 0 0 3 6 10 13 48 68 55 48 32 35 42 58 74 90 100 100 100 100 100 100 100 100 100 100 100 100 100 97 97 94 94 90 94 94 94 90 94 97 90 90 90
6 10 16 3 0 0 0 0 3 10 10 39 58 68 74 52 58 52 61 74 81 87 100 100 100 100 100 100 100 100 100 100 100 100 100 97 97 100 97 97 90 94 84 81 87 90 94 94 87
6 10 3 0 0 0 0 0 3 10 29 61 71 71 68 68 68 61 71 81 74 94 100 100 100 100 100 100 100 100 100 100 100 100 100 100 100 100 94 94 94 97 90 81 84 81 90 90 97
3 0 0 0 0 0 3 3 10 16 39 61 71 71 61 58 65 68 77 81 84 94 100 100 100 100 100 100 100 100 100 100 100 100 100 100 100 97 90 90 94 94 87 81 84 81 87 87 90
0 0 0 0 0 0 0 3 10 26 29 45 65 77 55 55 71 74 71 71 84 97 97 100 100 100 100 100 100 100 100 100 100 100 100 100 97 94 94 90 94 94 87 81 77 71 71 87 90
0 0 0 0 0 0 0 3 6 16 26 48 74 74 48 48 58 68 68 58 61 81 87 94 97 100 100 100 100 100 100 100 100 100 100 100 97 94 90 97 94 81 71 81 81 71 65 71 81
0 0 0 0 0 0 3 3 6 16 42 65 74 77 68 55 61 68 55 52 52 55 71 81 94 94 97 100 100 100 100 100 100 100 100 100 71 71 84 90 94 84 74 68 68 81 77 77 68
0 0 0 0 0 0 0 3 6 32 45 65 71 68 65 58 61 65 55 48 45 55 65 71 74 81 90 90 100 100 97 97 74 61 71 42 32 39 61 81 84 84 77 74 68 74 77 68 39
0 0 0 0 0 0 0 0 6 16 32 65 61 55 55 55 52 52 55 55 52 48 65 65 68 74 71 74 87 71 61 55 39 42 39 19 13 16 26 19 52 52 55 45 55 55 42 32 23
0 0 0 0 0 0 0 0 13 19 26 58 48 42 42 48 45 52 52 58 52 55 52 58 55 58 55 65 65 58 48 35 32 29 29 10 6 10 10 6 6 6 6 10 13 19 10 13 13
0 0 0 0 0 0 0 0 10 26 42 48 55 52 45 35 35 48 48 52 39 35 42 48 45 48 52 52 42 45 35 29 23 19 16 6 3 3 0 0 3 3 3 0 3 3 6 6 6
0 0 0 0 0 0 0 0 10 26 32 39 45 52 45 29 39 39 45 55 39 35 42 52 55 52 45 45 42 32 26 19 19 16 10 6 0 0 0 0 0 3 0 0 3 0 3 3 3
0 0 0 0 0 0 0 0 6 19 29 45 42 42 48 39 45 35 35 35 32 32 42 52 48 42 39 39 32 29 19 13 13 10 10 6 0 0 0 0 0 0 0 0 0 0 0 0 0
0 0 0 0 0 0 0 0 6 16 26 32 45 55 42 45 42 45 39 32 32 32 42 48 52 32 29 23 23 16 13 10 6 3 3 3 3 0 0 0 0 0 0 0 0 0 0 0 0
0 0 0 0 0 0 0 0 6 16 19 29 45 42 35 35 35 35 39 32 32 39 45 52 45 32 23 19 13 13 6 6 6 3 3 3 3 3 0 0 0 0 0 0 0 0 0 0 0
0 0 0 0 0 0 0 0 6 13 19 19 42 35 29 26 26 32 32 29 29 32 42 42 39 29 23 16 13 10 6 6 3 3 3 3 3 3 0 0 0 0 0 0 0 0 0 0 0
0 0 0 0 0 0 0 0 6 13 13 23 29 32 32 29 29 29 32 32 32 32 42 39 39 26 16 10 10 10 6 6 3 3 3 3 3 3 0 0 0 0 0 0 0 0 0 0 0
0 0 0 0 0 0 0 6 0 6 3 13 32 26 32 26 19 16 19 26 23 26 39 39 35 23 13 6 3 3 0 0 0 3 3 3 3 3 0 0 0 0 0 0 0 0 0 0 0
0 0 0 0 0 0 0 3 3 0 6 10 26 29 19 19 19 16 16 16 23 26 39 32 29 23 13 6 3 3 0 0 3 3 3 3 3 3 0 0 0 0 0 0 0 0 0 0 0
0 0 0 0 0 0 0 0 0 0 0 6 19 10 19 16 16 13 19 19 26 26 29 26 26 23 13 6 6 3 0 0 0 0 3 3 3 3 3 0 0 0 0 0 0 0 0 0 0
0 0 0 0 0 0 0 0 0 0 0 0 6 13 13 19 16 13 13 16 16 23 23 23 16 23 16 6 3 3 0 0 0 0 0 0 0 3 3 0 0 0 0 0 0 0 0 0 0
0 0 0 0 0 0 0 0 0 0 0 0 0 10 19 13 13 13 10 16 13 13 23 23 19 19 19 13 6 0 0 0 0 0 0 0 0 0 0 0 0 0 0 0 0 0 0 0 0
0 0 0 0 0 0 0 0 0 0 0 0 0 10 16 13 10 13 10 13 10 23 23 26 19 19 19 13 6 3 0 0 0 0 0 0 0 0 0 0 0 0 0 0 0 0 0 0 0
0 0 0 0 0 0 0 0 0 0 0 0 0 3 10 6 6 13 10 10 13 23 23 26 23 23 19 16 10 10 6 0 3 0 0 0 0 0 0 0 0 0 0 0 0 0 0 0 0
0 0 0 0 0 0 0 0 0 0 0 0 0 3 6 13 10 13 10 13 23 19 23 26 23 26 26 19 13 10 10 10 3 3 0 0 0 0 0 0 0 0 0 0 0 0 0 0 0
0 0 0 0 0 0 0 0 0 0 0 6 0 0 3 10 16 16 13 13 23 23 19 26 26 26 26 26 13 13 10 10 6 3 3 0 0 3 0 0 3 0 0 0 0 0 0 0 0
0 0 0 0 0 0 0 0 0 0 0 0 0 3 6 10 13 19 19 16 23 26 23 23 35 26 32 29 19 13 16 16 16 10 6 3 3 3 0 0 0 0 3 0 0 0 0 0 0
0 0 0 0 0 0 0 0 0 0 0 0 0 3 3 10 13 16 13 23 23 26 29 32 35 29 32 29 23 13 13 13 19 19 6 3 3 3 3 0 0 0 0 0 0 0 0 0 0

GEFSSGP_con_cape1000_096.txt.gz
Probability
71 77 55 26 3 0 0 0 0 0 0 0 10 6 0 0 0 0 0 19 45 71 94 100 100 100 100 100 100 100 100 100 100 100 100 100 100 94 97 97 97 97 87 87 87 87 77 84 84
48 61 23 6 0 0 0 0 0 0 10 29 32 26 19 19 16 13 16 32 61 81 97 100 100 100 100 100 100 100 100 100 100 100 100 100 97 94 90 90 90 90 84 90 87 84 81 84 84
26 19 10 3 0 0 0 0 3 6 29 45 58 48 39 35 42 26 23 48 77 87 94 100 100 100 100 100 100 100 100 100 100 100 100 100 97 94 90 90 87 84 84 87 90 90 87 94 97
6 0 0 3 3 0 0 0 3 10 23 58 68 58 52 52 48 35 48 74 87 94 100 100 100 100 100 100 100 100 100 100 100 100 100 100 100 90 90 90 84 84 87 90 87 87 81 90 90
0 0 0 0 0 0 0 3 3 13 45 68 68 61 55 58 55 55 58 71 84 97 100 100 100 100 100 100 100 100 100 100 100 100 100 100 97 97 97 97 87 81 84 84 87 84 81 84 84
0 0 0 0 0 3 3 3 10 39 61 74 68 68 58 61 61 71 74 81 87 94 97 100 100 100 100 100 100 100 100 100 100 100 100 100 100 100 97 94 84 81 71 77 84 77 84 84 84
0 0 0 0 0 3 3 6 16 39 77 74 81 55 45 65 74 71 77 74 81 87 97 100 100 100 100 100 100 100 100 100 100 100 100 100 97 94 90 90 84 77 77 74 74 74 74 81 84
0 0 0 0 0 3 3 10 19 29 55 74 74 42 39 61 71 71 68 74 84 84 87 97 97 100 100 100 100 100 100 100 100 100 97 97 94 94 94 94 94 68 61 61 61 65 61 77 77
0 0 0 0 0 0 0 10 19 32 71 68 77 58 45 71 71 71 71 74 77 81 77 84 90 94 97 100 100 100 100 100 97 100 97 94 87 77 81 81 84 71 65 55 58 58 58 65 61
0 0 0 0 0 0 3 13 16 45 55 65 65 65 68 71 71 74 65 65 74 74 74 77 84 87 94 97 100 100 94 94 81 77 84 52 39 39 61 77 71 68 65 61 61 68 68 39 29
0 0 0 0 0 0 6 10 16 39 42 52 71 65 65 68 61 58 61 65 68 68 71 65 77 77 77 84 90 81 68 61 58 55 39 26 16 26 35 35 39 39 48 32 32 35 32 19 19
0 0 0 0 0 0 3 10 13 16 26 42 65 61 65 71 65 61 58 55 52 65 68 71 68 71 65 71 74 55 55 48 39 39 26 19 10 10 10 10 13 19 19 6 10 10 10 10 13
0 0 0 0 0 0 3 6 10 23 32 58 55 58 65 65 61 58 45 45 48 55 58 58 65 65 61 55 61 48 42 39 23 23 23 13 6 3 3 6 6 6 3 0 0 0 0 6 6
0 0 0 0 0 0 3 6 16 23 42 39 48 48 58 65 61 42 32 29 35 42 48 55 52 42 42 48 48 42 29 23 19 19 16 13 6 3 3 3 3 6 3 0 0 0 0 3 6
0 0 0 0 0 0 0 0 10 26 42 32 39 35 45 48 42 39 32 16 26 23 39 42 45 39 39 42 39 32 23 19 16 16 13 6 3 0 3 0 0 0 0 0 0 0 0 0 0
0 0 0 0 0 0 0 0 6 26 35 32 29 32 39 35 35 26 23 23 16 19 19 29 39 35 32 23 23 19 16 16 16 13 13 10 6 0 0 0 0 0 0 0 0 0 0 0 0
0 0 0 0 0 0 0 0 6 26 29 23 26 32 32 32 29 16 19 19 19 16 16 19 26 26 23 16 16 13 13 13 10 3 6 6 6 3 0 0 0 0 0 0 0 0 0 0 0
0 0 0 0 0 0 0 0 6 26 29 39 32 23 29 29 29 29 19 19 16 16 16 16 23 32 16 10 10 3 3 3 6 6 6 6 3 3 0 0 0 0 0 0 0 0 0 0 0
0 0 0 0 0 3 3 3 10 16 26 32 32 29 26 23 16 19 16 13 16 16 16 13 19 16 13 10 6 3 6 3 0 0 6 3 3 3 0 0 0 0 0 0 0 0 0 0 0
0 0 0 0 0 0 0 3 10 13 10 19 29 23 23 16 10 10 13 10 10 13 13 10 13 16 13 10 6 0 0 0 0 3 3 3 3 0 0 0 0 0 0 0 0 0 0 0 0
0 0 0 0 0 0 0 0 3 13 3 10 13 19 16 13 10 13 13 10 10 10 10 10 6 10 6 3 0 0 0 0 0 0 0 3 3 3 0 0 0 0 0 0 0 0 0 0 0
0 0 0 0 0 0 0 0 0 0 3 6 6 13 16 13 10 6 10 10 10 10 10 6 6 6 0 0 0 0 0 0 0 0 0 0 3 3 0 0 0 0 0 0 0 0 0 0 0
0 0 0 0 0 0 0 0 0 0 3 3 3 6 13 16 13 6 10 10 10 10 10 6 3 3 3 0 0 0 0 0 0 0 0 0 3 3 3 0 0 0 0 0 0 0 0 0 0
0 0 0 0 0 0 0 0 0 0 0 0 3 3 10 13 6 6 3 6 6 6 6 10 6 3 3 0 0 0 0 0 0 0 0 0 0 0 0 3 0 0 0 0 0 0 0 0 0
0 0 0 0 0 0 0 0 0 0 0 0 3 3 6 6 6 3 3 6 6 6 16 13 6 3 3 3 0 0 0 0 0 0 0 0 0 0 0 0 0 0 0 0 0 0 0 0 0
0 0 0 0 0 0 0 0 0 0 0 0 0 3 10 6 3 0 3 6 10 6 13 13 13 6 3 3 0 0 0 0 0 0 0 0 0 0 0 0 0 0 0 0 0 0 0 0 0
0 0 0 0 0 0 0 0 0 0 0 0 0 3 10 3 3 0 0 10 10 16 16 16 16 13 6 0 0 0 0 0 0 0 0 0 0 0 0 0 0 0 0 0 0 0 0 0 0
0 0 0 0 0 0 0 0 0 0 0 0 0 3 6 6 6 6 6 10 13 13 13 16 16 16 13 10 0 0 0 0 0 0 0 0 0 0 0 0 0 0 0 0 0 0 0 0 0
0 0 0 0 0 0 0 0 0 0 0 0 0 3 0 3 6 3 6 10 13 13 13 13 16 16 13 10 3 0 0 3 3 3 3 3 3 0 0 0 0 0 0 0 0 0 0 0 0
0 0 0 0 0 0 0 0 0 0 0 0 0 0 0 3 3 0 3 10 13 13 13 13 13 13 13 10 3 0 3 3 3 3 3 3 3 0 3 3 0 0 0 0 0 0 0 0 0

GEFSSGP_con_cape1000_102.txt.gz
Probability
58 61 71 81 87 10 0 0 0 0 0 3 16 0 0 0 0 26 84 19 29 61 90 97 100 100 100 100 100 100 100 100 100 100 100 100 97 94 94 94 94 84 84 84 81 77 77 87 84
48 58 68 61 10 0 0 0 0 0 3 26 26 16 3 16 52 84 74 39 39 71 90 94 100 100 100 100 100 100 100 100 100 100 100 97 97 97 97 94 90 81 81 81 74 81 84 87 90
39 52 52 26 0 0 0 0 0 0 16 16 39 29 16 58 74 77 84 55 45 74 90 97 100 100 100 100 100 100 100 100 100 100 100 97 94 94 90 90 87 87 87 77 77 84 81 90 90
39 42 35 13 0 0 0 0 0 3 16 35 35 39 71 81 81 81 81 58 52 94 94 97 100 100 100 100 100 100 100 100 100 100 100 97 94 94 90 90 84 81 81 81 84 90 84 90 94
32 26 10 0 0 0 0 0 0 0 13 35 39 26 81 94 81 90 77 61 74 94 94 97 100 100 100 100 100 100 100 100 100 100 100 100 100 97 90 87 84 81 81 81 87 87 87 84 90
3 0 0 0 0 0 0 0 3 0 6 42 55 45 84 94 94 94 81 77 90 84 97 97 100 100 100 100 100 100 100 100 100 100 100 100 100 97 94 87 77 81 81 84 87 81 77 81 81
3 0 0 0 0 0 0 0 6 6 16 42 55 52 90 97 97 94 84 84 90 90 97 90 90 97 100 100 100 100 100 100 100 100 100 100 97 97 94 84 81 71 77 81 71 68 68 71 74
0 0 0 0 0 0 0 6 6 13 16 68 81 55 84 100 97 94 90 87 90 90 84 90 94 94 94 100 97 100 100 100 97 97 97 94 90 90 90 84 81 68 65 58 58 58 65 65 71
3 0 0 0 0 0 3 6 16 26 39 77 87 87 90 94 97 94 94 94 97 90 87 94 94 97 97 97 97 97 100 97 97 97 87 87 87 84 84 77 68 55 58 61 61 58 55 55 61
0 0 0 0 0 0 6 6 16 29 35 58 74 94 94 94 94 97 94 94 94 94 94 94 94 97 94 94 97 94 94 97 97 94 90 90 94 87 61 74 68 55 61 65 61 55 39 39 42
0 0 0 0 0 0 3 3 6 10 16 32 65 84 94 94 94 94 94 94 94 90 94 90 94 94 97 94 94 94 94 97 97 97 94 97 87 71 68 68 74 68 68 52 55 39 32 26 32
0 0 0 0 0 0 3 3 6 13 23 42 55 74 94 94 90 90 87 84 84 84 87 87 87 84 94 94 94 94 94 97 97 97 90 87 81 71 58 74 55 55 55 55 39 48 29 26 26
0 0 0 0 0 0 0 3 10 23 42 58 68 74 90 87 87 87 81 74 71 81 84 84 90 84 87 94 94 87 94 94 94 94 84 81 77 58 52 52 55 32 42 39 35 29 29 35 32
0 0 0 0 0 0 3 6 16 32 45 61 71 74 81 84 77 77 74 68 68 74 74 77 77 77 84 84 87 90 87 84 71 77 77 65 55 58 48 48 48 32 29 26 23 16 26 16 29
0 0 0 0 0 0 3 6 19 35 52 68 71 74 74 77 77 65 61 61 61 68 65 71 71 71 74 77 77 74 71 68 61 74 74 52 45 48 39 42 45 32 29 29 23 10 13 16 13
0 0 0 0 0 0 0 0 26 45 48 68 68 71 77 77 68 65 58 55 61 61 65 71 65 68 68 74 71 65 61 74 61 61 55 45 42 42 39 26 26 32 26 26 26 16 10 6 10
0 0 0 0 0 0 0 3 26 39 48 68 68 65 71 74 68 68 55 52 58 61 65 65 65 68 65 71 65 61 65 65 55 48 42 35 39 39 35 29 29 23 19 19 6 13 6 6 16
0 0 0 0 0 0 0 6 23 48 52 48 68 61 61 58 65 65 55 52 58 55 55 48 61 65 65 65 68 61 55 48 42 42 42 29 35 29 23 13 13 16 23 23 23 16 16 13 10
0 0 0 0 0 0 0 6 16 45 48 65 65 61 68 58 61 58 52 52 52 48 55 61 65 65 68 68 61 61 45 42 35 32 29 29 26 26 23 10 13 16 23 16 6 10 6 6 6
0 0 0 0 0 0 0 6 19 42 45 55 68 61 58 58 48 58 52 48 48 55 55 65 68 65 65 68 71 58 45 42 32 29 29 26 16 13 10 16 16 16 23 19 16 16 10 6 3
0 0 0 0 3 3 0 0 26 39 48 52 65 65 52 48 48 55 48 48 45 45 45 45 58 61 58 61 48 42 42 35 23 29 32 26 16 16 6 10 13 19 19 19 16 16 6 3 0
0 0 0 0 0 0 0 0 13 29 39 39 48 48 55 48 48 52 48 42 42 39 35 48 58 58 61 48 35 32 32 26 26 29 23 23 16 19 10 10 13 19 13 19 6 6 3 0 0
0 0 0 0 0 0 0 0 0 13 23 23 35 48 58 48 39 42 42 39 39 32 29 45 48 55 48 42 35 35 32 29 26 26 29 23 16 19 10 16 13 16 13 6 3 6 3 0 0
0 0 0 0 0 0 0 0 0 3 13 13 32 39 71 48 32 39 39 35 42 32 29 35 42 42 42 32 35 32 29 29 13 23 29 26 19 16 16 16 16 13 3 3 3 6 3 3 0
0 0 0 0 0 0 0 0 0 13 0 6 23 32 35 42 39 42 39 39 32 26 26 35 39 42 39 32 32 32 29 26 32 26 26 23 10 13 16 10 16 16 13 6 6 6 3 3 6
0 0 0 0 0 0 0 0 0 6 0 3 13 32 39 42 39 32 35 39 29 23 26 29 39 39 29 32 35 32 39 32 23 29 26 23 13 10 13 13 19 19 16 3 10 6 6 6 6
0 0 0 0 0 0 0 0 3 23 3 13 26 35 32 26 29 32 39 39 32 35 32 29 35 39 39 39 42 39 35 29 19 26 26 16 19 13 13 13 16 16 16 16 19 6 6 6 6
0 0 0 0 0 0 0 0 0 13 23 29 35 29 29 26 29 26 29 35 35 32 26 32 32 42 45 39 42 35 39 42 35 32 29 23 26 19 19 16 16 16 16 19 19 19 13 13 10
0 0 0 0 0 0 0 0 0 6 26 32 35 35 39 29 29 35 32 39 35 29 35 35 45 55 45 42 42 39 32 32 32 32 32 32 26 26 29 26 23 16 23 32 32 23 23 19 16
0 0 0 0 0 0 0 0 6 13 19 29 39 42 35 39 39 35 35 42 39 35 35 42 45 48 55 55 45 48 42 42 35 26 32 35 39 32 32 32 32 26 26 35 32 29 29 32 26

GEFSSGP_con_cape1000_108.txt.gz
Probability
61 48 71 77 81 77 13 0 0 0 0 0 0 0 0 3 16 39 52 55 94 87 97 100 100 100 100 100 100 100 100 100 100 100 100 97 97 97 94 94 87 87 84 81 81 84 84 90 90
39 58 55 58 68 23 0 0 0 0 0 0 0 0 6 13 19 42 52 94 94 90 94 100 100 100 100 100 100 100 100 100 100 100 100 97 97 97 94 90 81 84 84 84 81 87 90 87 87
32 52 48 52 55 0 0 0 0 0 0 0 0 0 10 19 35 61 74 90 94 90 97 100 100 100 100 100 100 100 100 100 100 100 97 97 97 97 97 94 84 94 94 81 87 90 90 90 87
42 45 45 29 3 0 0 0 0 0 0 0 0 16 39 32 45 68 71 90 94 94 97 100 100 100 100 100 100 100 100 100 100 97 97 97 97 97 97 84 87 84 87 94 90 90 90 90 84
39 32 32 16 0 0 0 0 0 0 0 0 0 45 71 71 71 77 77 97 94 97 97 97 100 100 100 100 100 100 100 100 100 100 97 97 97 94 94 84 84 84 90 90 90 90 90 87 77
23 13 6 0 0 0 0 0 0 0 0 0 0 52 81 74 77 84 77 97 97 97 97 97 100 100 100 100 100 100 100 100 100 100 100 100 97 97 94 90 94 94 94 87 87 81 81 81 71
6 6 3 0 0 0 0 0 0 0 0 0 3 52 77 87 90 90 84 97 97 97 97 97 97 100 100 100 100 100 100 100 100 100 100 97 97 97 94 90 94 84 81 87 81 71 68 68 74
0 0 0 0 0 0 0 0 0 0 3 3 6 52 81 87 97 94 97 97 97 94 94 90 94 97 97 97 97 97 97 100 100 100 100 97 97 97 94 90 94 84 81 71 61 61 65 68 74
0 0 0 0 0 0 0 0 0 3 6 10 29 45 84 90 97 90 97 97 94 94 94 90 90 97 97 97 97 97 97 100 100 100 100 97 97 97 94 87 84 77 68 65 55 55 48 65 71
0 0 0 0 0 0 0 0 0 0 10 13 45 61 81 84 94 90 97 97 94 94 87 87 90 90 87 90 97 97 97 97 100 100 97 97 97 97 90 94 84 71 61 55 58 55 52 48 48
0 0 0 0 0 0 0 0 0 0 13 26 58 68 84 90 90 90 90 97 94 90 87 84 87 87 87 87 94 90 97 97 97 97 100 100 97 90 87 77 71 81 71 65 65 55 39 48 61
0 0 0 0 0 0 0 0 0 6 16 19 52 71 87 94 90 90 90 97 90 87 84 84 84 81 81 81 90 90 90 94 94 97 94 94 100 94 87 90 87 87 90 87 81 90 84 55 61
0 0 0 0 0 0 0 0 0 13 23 29 45 55 84 87 87 84 87 84 87 90 84 84 81 77 81 84 87 84 84 87 87 90 87 87 84 81 84 84 84 71 71 81 81 74 84 61 58
0 0 0 0 0 0 0 0 6 10 29 29 39 65 71 84 81 81 81 84 81 81 74 77 74 77 84 84 81 81 77 84 84 87 77 81 77 81 81 81 71 71 61 58 65 58 65 61 71
0 0 0 0 0 0 0 0 10 16 29 29 42 65 74 77 84 77 81 81 81 74 77 81 77 74 77 74 77 74 71 74 71 71 74 71 71 71 61 71 71 68 65 52 48 45 39 55 45
0 0 0 0 0 0 0 0 19 26 26 26 42 65 71 81 77 71 74 74 74 81 74 77 71 74 68 61 68 65 65 65 61 71 68 52 55 45 58 65 71 52 45 55 52 52 35 32 45
0 0 0 0 0 0 0 3 19 26 16 35 42 58 74 77 74 74 65 68 68 71 68 74 61 65 58 58 55 55 65 58 68 68 52 48 42 39 52 65 65 35 32 35 23 42 39 39 32
0 0 0 0 0 0 0 3 13 23 16 32 48 65 84 81 71 68 61 71 74 68 65 55 55 48 55 48 42 52 61 61 58 58 52 48 42 42 48 55 39 39 39 35 48 26 35 39 35
0 0 0 0 0 0 0 0 13 19 13 39 65 71 77 77 65 61 58 61 58 68 68 52 52 52 48 45 42 45 61 61 52 52 45 45 39 32 39 39 42 32 39 32 16 19 26 29 26
0 0 0 0 0 0 0 0 10 19 19 32 58 68 74 74 65 68 58 65 61 52 61 55 52 48 48 48 45 48 58 55 48 52 42 35 32 35 26 39 35 39 35 32 26 35 35 32 19
0 0 0 0 0 0 0 0 13 16 23 26 42 45 68 68 65 68 58 61 58 52 61 55 55 65 58 48 52 45 55 55 48 42 42 35 32 29 32 26 23 29 32 39 29 35 19 29 32
0 0 0 0 0 0 0 0 16 10 26 29 32 42 55 61 68 68 61 55 55 48 55 65 65 61 65 52 52 45 42 42 48 42 48 32 32 26 26 29 23 19 26 48 32 23 19 13 10
0 0 0 0 0 0 0 0 10 13 19 26 29 45 52 61 65 55 55 48 45 48 45 55 68 61 58 55 55 58 52 48 45 45 45 39 35 29 26 29 26 26 35 39 26 35 26 26 26
0 0 0 0 0 0 0 0 10 3 13 29 26 42 61 65 61 55 52 52 55 52 45 58 61 65 55 55 55 55 52 48 39 42 45 45 48 32 26 26 29 32 39 32 23 23 19 23 23
0 0 0 0 0 0 0 0 13 6 0 16 29 48 58 65 61 55 52 55 48 48 48 61 55 55 48 55 48 58 55 55 42 39 39 39 29 29 35 26 35 35 35 29 29 26 16 13 16
0 0 0 0 0 0 0 0 3 3 3 19 32 52 55 65 61 61 55 55 52 48 55 55 48 48 48 48 48 52 55 45 39 48 32 35 32 29 42 42 32 32 32 26 35 23 19 16 19
0 0 0 0 0 0 0 3 3 10 6 13 29 45 52 58 68 55 52 55 52 48 48 52 58 55 52 42 45 58 55 48 39 48 39 35 35 23 35 29 29 29 29 32 32 35 29 26 23
0 0 0 0 0 0 0 0 3 16 10 13 35 45 42 52 61 58 52 52 55 45 52 48 55 61 55 45 35 29 52 55 48 42 39 35 35 35 32 23 32 32 35 32 32 29 29 32 26
0 0 0 0 0 0 0 0 3 6 10 23 29 52 45 45 45 65 58 48 48 42 45 45 48 55 52 45 39 45 45 52 52 45 35 42 39 45 45 35 26 29 29 29 32 35 32 29 29
0 0 0 0 3 3 0 0 0 6 6 16 26 45 52 52 45 61 65 55 52 45 45 48 48 45 52 52 55 58 58 58 52 45 52 52 45 42 42 39 45 35 26 35 39 26 29 35 35

GEFSSGP_con_cape1000_114.txt.gz
Probability
65 48 29 45 52 29 10 6 0 0 0 0 6 6 6 13 3 3 23 61 81 100 100 100 100 100 100 100 100 100 100 100 100 100 100 100 100 100 100 100 100 100 100 97 94 94 90 90 90
26 26 32 45 23 0 0 0 0 0 0 3 6 13 13 42 52 48 65 77 87 100 100 100 100 100 100 100 100 100 100 100 100 100 100 100 100 100 100 100 100 97 94 90 87 87 87 87 94
3 16 35 23 6 3 0 0 0 0 0 10 13 16 32 55 68 71 71 90 94 97 100 100 100 100 100 100 100 100 100 100 100 100 100 100 100 100 100 97 94 97 90 84 87 87 90 87 90
10 10 13 16 3 3 0 0 0 0 6 13 29 35 45 65 77 74 84 94 97 100 100 100 100 100 100 100 100 100 100 100 100 100 100 100 100 100 100 94 97 94 94 90 97 97 90 87 81
3 10 6 0 0 0 0 0 0 3 10 29 42 52 52 74 84 74 84 94 97 97 100 100 100 100 100 100 100 100 100 100 100 100 100 100 100 100 100 97 94 97 97 97 100 97 94 94 87
3 0 0 0 0 0 0 0 3 6 29 39 52 55 48 71 74 81 84 94 97 97 100 100 100 100 100 100 100 100 100 100 100 100 100 100 100 100 94 94 97 97 94 94 94 90 87 90 90
0 0 0 0 0 0 0 0 0 6 32 45 58 52 48 68 74 81 84 97 97 97 100 100 100 100 100 100 100 100 100 100 100 100 100 100 97 94 94 94 97 90 87 90 84 87 77 81 84
0 0 0 0 0 0 0 0 3 6 23 48 55 58 45 55 68 84 87 97 97 97 100 100 100 100 100 100 100 100 100 100 100 100 100 100 100 97 97 94 94 84 84 81 81 74 68 74 71
0 0 0 0 0 0 0 0 6 19 29 42 52 58 55 58 74 87 87 94 97 97 94 100 97 97 97 100 100 100 100 100 100 100 100 97 84 87 90 90 87 84 81 77 74 68 68 68 58
0 0 0 0 0 0 0 3 10 23 32 52 58 58 55 71 71 87 87 90 87 84 87 90 90 94 94 97 94 97 100 100 97 94 94 71 55 65 84 90 87 81 77 71 58 61 68 45 10
0 0 0 0 0 0 3 3 3 19 35 48 58 58 61 68 71 77 84 87 84 77 81 81 87 87 87 87 94 90 87 90 87 84 74 65 52 52 55 55 68 58 58 39 45 52 16 10 6
0 0 0 0 0 0 3 3 13 19 35 55 58 58 58 55 68 74 77 74 74 68 68 74 74 81 81 87 81 84 84 84 84 77 61 52 39 29 29 23 19 16 16 13 13 6 10 3 3
0 0 0 0 0 0 3 6 13 16 32 52 55 52 52 55 61 71 77 71 68 58 61 61 58 68 77 74 74 74 74 71 68 71 61 42 32 16 13 6 3 6 3 0 3 3 0 0 0
0 0 0 0 0 0 3 3 10 16 35 52 48 48 48 52 55 65 65 58 61 55 48 45 48 42 58 48 58 61 55 45 48 55 42 32 19 13 10 6 0 3 0 0 0 3 0 3 0
0 0 0 0 0 0 0 0 6 16 35 45 48 55 55 52 52 58 55 55 48 45 35 42 45 55 39 35 42 42 39 42 52 32 32 23 13 10 10 3 3 3 0 0 0 0 0 0 0
0 0 0 0 0 0 0 3 10 19 29 35 52 58 65 52 48 58 55 45 32 29 39 45 55 48 35 26 32 39 32 32 29 23 29 19 16 16 6 0 0 0 0 0 0 0 0 0 0
0 0 0 0 0 0 0 3 13 10 23 29 45 58 61 52 42 48 48 48 35 39 32 39 42 39 26 19 19 19 26 23 19 19 19 13 13 13 6 3 0 3 0 0 0 0 0 0 0
0 0 0 0 0 0 0 6 16 13 16 35 52 61 65 52 52 48 45 45 39 35 29 32 32 29 26 19 19 19 19 19 19 16 6 13 13 10 6 3 0 3 0 0 0 0 0 0 0
0 0 0 0 0 0 0 10 16 16 29 42 55 55 58 52 55 45 42 48 45 39 26 26 23 23 23 19 19 19 23 19 19 16 6 10 10 6 6 3 3 6 0 0 0 0 0 0 0
0 0 0 0 0 3 3 6 6 13 13 29 45 55 52 52 55 48 48 42 48 35 29 19 23 23 23 19 19 19 19 16 16 13 6 13 10 10 6 3 3 3 3 0 0 0 0 0 0
0 0 0 0 0 0 0 3 6 10 13 19 39 39 39 42 48 42 52 42 45 32 29 32 26 26 23 23 16 16 19 13 16 13 13 13 13 10 3 3 3 0 0 0 0 0 0 0 0
0 0 0 0 0 0 0 0 10 6 10 16 23 35 39 32 35 39 39 45 35 29 32 26 23 23 23 26 19 13 19 13 10 13 16 10 13 13 6 0 3 0 0 0 0 0 0 0 0
0 0 0 0 0 0 0 0 6 6 6 6 10 26 26 26 26 32 39 35 35 32 29 23 16 19 19 19 13 10 10 6 6 3 13 13 13 13 6 0 0 0 0 0 0 0 0 0 0
0 0 0 0 0 0 0 0 0 0 3 6 10 23 23 16 26 29 29 23 29 32 26 19 19 16 16 19 10 3 3 0 0 3 6 10 10 3 6 3 0 0 0 0 0 0 0 0 0
0 0 0 0 0 0 0 0 0 0 0 3 13 16 23 29 19 23 19 19 29 29 26 19 23 19 16 16 10 6 3 0 0 0 3 3 3 0 3 3 0 0 0 0 0 0 0 0 0
0 0 0 0 0 0 0 0 0 0 0 10 13 19 19 19 19 19 19 16 19 26 19 16 13 16 13 13 13 10 3 0 0 0 0 3 0 0 0 0 0 0 0 0 0 0 0 0 0
0 0 0 0 0 0 0 0 0 0 3 10 13 19 19 26 19 16 19 16 19 19 13 13 13 16 13 13 10 10 10 3 0 0 0 0 0 0 0 0 0 0 0 0 0 0 0 0 0
0 0 0 0 0 0 0 0 0 0 0 3 10 13 19 23 26 19 16 16 16 16 13 13 13 16 16 13 13 13 10 6 3 0 0 0 0 0 0 0 0 0 0 0 0 0 0 0 0
0 0 0 0 0 0 0 0 0 0 0 3 13 13 13 23 26 23 19 16 13 19 13 13 13 16 16 16 13 13 13 10 3 0 0 0 0 0 0 0 3 0 0 0 0 0 0 0 0
0 0 0 0 0 0 0 0 0 0 0 3 6 3 6 13 13 19 16 19 13 16 13 13 13 16 16 19 16 16 13 13 10 6 3 0 0 0 0 3 3 3 0 0 3 3 3 3 3

GEFSSGP_con_cape1000_120.txt.gz
Probability
42 48 29 23 6 3 0 0 0 0 0 0 0 0 0 3 3 0 10 23 61 87 100 100 100 100 100 100 100 100 100 100 100 100 100 100 100 100 100 100 100 100 97 94 94 90 90 90 94
45 48 26 10 0 0 0 0 0 0 3 6 6 10 26 45 45 39 42 65 77 94 100 100 100 100 100 100 100 100 100 100 100 100 100 100 100 100 100 100 100 100 90 90 94 90 90 90 94
32 29 10 3 0 0 0 0 0 0 6 10 10 16 48 52 68 58 65 65 84 97 100 100 100 100 100 100 100 100 100 100 100 100 100 100 100 100 100 100 100 97 90 90 90 94 94 94 87
10 0 0 0 0 0 0 0 0 3 3 16 19 35 48 71 84 71 74 84 94 100 97 97 100 100 100 100 100 100 100 100 100 100 100 100 100 100 100 100 94 90 90 94 94 94 90 87 87
0 0 0 0 0 0 0 0 0 13 10 26 29 39 61 74 77 77 77 94 94 100 97 97 100 100 100 100 100 100 100 100 100 100 100 100 100 100 100 97 94 90 94 94 97 97 94 87 87
0 0 0 0 0 0 0 0 3 10 23 45 42 45 65 77 77 81 84 94 94 100 100 100 100 100 100 100 100 100 100 100 100 100 100 100 100 100 100 97 94 94 97 100 97 97 84 87 84
0 0 0 0 0 0 0 0 6 19 26 39 48 55 65 77 84 90 87 87 94 100 100 100 100 100 100 100 100 100 100 100 100 100 100 100 100 100 100 100 94 94 90 94 97 94 84 81 90
0 0 0 0 0 0 0 0 6 23 35 42 52 45 61 74 90 87 94 94 94 97 97 100 100 100 100 100 100 100 100 100 100 100 100 100 100 97 100 100 94 90 87 84 81 81 81 87 84
0 0 0 0 0 0 0 0 13 26 39 45 45 48 68 77 90 87 94 97 97 97 97 97 97 100 100 100 100 100 100 100 100 100 100 100 90 87 90 90 90 77 77 71 74 68 74 77 81
0 0 0 0 0 0 0 0 10 26 39 55 61 58 87 87 90 84 87 84 87 90 90 87 90 94 100 100 100 100 100 100 97 100 100 74 71 84 87 90 84 74 68 68 74 74 65 35 29
0 0 0 0 0 0 0 6 10 29 39 45 58 61 81 87 84 74 71 65 74 77 87 84 84 87 87 84 94 90 90 90 94 87 74 45 39 58 61 65 65 48 52 45 48 32 16 16 10
0 0 0 0 0 0 0 0 10 19 23 26 42 58 81 84 77 68 58 61 61 74 77 77 77 81 81 81 90 81 81 77 71 65 48 29 26 35 26 42 39 26 23 19 13 10 10 3 3
0 0 0 0 0 0 0 10 6 13 29 35 52 65 74 74 77 77 61 61 58 61 71 71 68 74 77 77 77 74 71 68 58 55 39 26 23 13 10 6 16 16 10 6 3 6 6 0 3
0 0 0 0 0 0 3 10 6 16 29 42 61 61 74 74 77 71 71 61 61 52 52 58 65 65 68 68 58 52 52 42 42 45 35 26 23 13 6 6 6 6 3 3 0 3 3 3 3
0 0 0 0 0 0 0 0 0 23 35 48 58 52 68 71 74 71 74 65 55 39 39 45 45 48 48 42 39 35 35 32 29 32 26 23 23 10 3 3 0 0 3 0 0 0 0 0 0
0 0 0 0 0 0 0 0 0 16 35 35 48 55 65 65 65 65 68 55 42 26 26 29 35 39 32 32 29 26 29 26 19 19 29 26 19 13 6 3 0 0 0 0 0 0 0 0 0
0 0 0 0 0 0 0 0 3 10 35 42 42 52 55 58 45 52 45 35 29 19 23 23 26 26 23 16 19 19 19 13 13 13 19 19 19 13 13 10 0 0 0 3 3 0 0 0 0
0 0 0 0 0 0 0 3 3 6 35 32 42 48 52 45 45 42 39 32 26 19 23 19 16 13 10 10 16 13 16 13 13 10 10 13 13 13 10 3 0 0 0 0 0 0 0 0 0
0 0 0 0 0 0 0 3 0 6 19 32 39 48 39 35 29 23 29 29 26 19 16 16 13 6 6 13 13 13 10 13 10 10 10 10 10 10 6 3 0 0 0 0 0 0 0 0 0
0 0 0 0 0 0 0 6 6 6 13 19 32 45 42 32 32 32 29 26 19 13 13 13 13 13 3 10 13 13 10 10 10 10 10 10 10 10 3 3 0 0 0 0 0 0 0 0 0
0 0 0 0 0 0 0 3 6 3 10 19 26 35 39 35 32 32 26 19 19 10 13 13 10 10 6 10 10 6 3 3 6 6 6 6 10 10 6 3 3 0 0 0 0 0 0 0 0
0 0 0 0 0 0 0 0 0 6 6 10 23 23 35 32 35 32 26 29 13 13 13 13 10 6 6 10 10 10 10 10 6 6 10 6 6 6 3 3 0 0 0 0 0 0 0 0 0
0 0 0 0 0 0 0 0 0 3 3 3 13 19 26 26 29 26 26 26 19 13 13 13 6 6 6 6 6 10 10 6 6 3 10 10 3 3 0 3 3 0 0 0 0 0 0 0 0
0 0 0 0 0 0 0 0 0 3 3 3 3 13 16 23 23 13 19 23 32 19 13 6 13 10 10 6 6 3 3 0 0 3 6 6 6 0 0 0 3 0 0 0 0 0 0 0 0
0 0 0 0 0 0 0 0 0 0 3 3 3 6 13 16 19 19 16 23 29 23 13 13 10 10 6 6 6 3 0 0 0 0 3 6 6 3 6 0 3 0 0 0 0 0 0 0 0
0 0 0 0 0 0 0 0 0 0 0 3 6 10 6 10 13 16 19 23 19 19 10 13 13 10 6 6 6 0 0 0 0 0 3 3 3 6 3 3 3 0 0 0 0 0 0 0 0
0 0 0 0 0 0 0 0 0 0 6 10 10 10 6 6 16 13 13 10 13 13 6 10 6 6 6 6 3 3 0 0 0 0 0 0 3 0 0 0 0 0 0 0 0 0 0 0 0
0 0 0 0 0 0 0 0 0 0 3 6 6 10 10 6 16 13 13 6 10 10 3 3 10 6 6 6 6 10 6 6 0 0 0 0 0 0 0 0 0 0 0 0 0 0 0 0 0
0 0 0 0 0 0 0 0 0 0 0 0 3 3 10 3 10 10 10 6 3 6 6 3 6 10 6 6 6 6 10 10 6 0 0 0 0 0 0 0 0 0 0 0 0 0 0 0 0
0 0 0 0 0 0 0 0 0 0 0 0 0 0 6 10 10 3 6 6 6 6 6 6 6 10 10 10 6 10 10 10 10 6 3 0 0 0 0 0 0 0 0 0 0 0 0 0 0

GEFSSGP_con_cape1000_126.txt.gz
Probability
32 48 65 77 84 6 0 0 0 0 0 0 0 0 0 0 0 48 81 29 32 84 97 100 100 100 100 100 100 100 100 100 100 100 100 100 100 100 100 97 94 94 90 84 87 87 94 94 94
39 52 61 58 16 0 0 0 0 0 3 3 3 0 0 16 58 81 87 68 65 77 97 100 100 100 100 100 100 100 100 100 100 100 100 100 100 100 97 97 94 94 94 90 87 90 97 94 97
39 45 48 26 0 0 0 0 0 0 6 6 3 10 10 26 81 94 87 77 68 81 97 100 100 100 100 100 100 100 100 100 100 100 100 100 100 100 97 97 94 94 94 94 90 90 90 90 94
39 42 35 10 0 0 0 0 0 0 10 10 6 26 61 94 94 94 84 61 68 90 97 100 100 100 100 100 100 100 100 100 100 100 100 100 100 100 100 100 94 94 94 94 94 90 90 87 94
19 19 3 0 0 0 0 0 0 3 6 23 19 35 81 100 94 94 90 68 77 84 97 100 100 100 100 100 100 100 100 100 100 100 100 100 100 100 100 97 94 97 97 94 90 87 90 90 94
16 6 0 0 0 0 0 0 0 0 10 26 23 48 94 100 97 94 90 77 81 90 97 100 100 100 100 100 100 100 100 100 100 100 100 100 100 100 100 97 97 94 94 90 87 90 84 87 84
6 0 0 0 0 0 0 0 0 3 13 32 45 52 94 100 97 94 90 84 84 87 94 100 100 100 100 100 100 100 100 100 100 100 100 100 100 100 100 97 97 97 94 94 90 84 90 90 90
3 0 0 0 0 0 0 0 3 6 23 39 55 65 94 100 97 94 94 87 90 87 94 97 97 100 100 97 100 100 100 100 100 100 100 100 100 100 100 97 97 97 94 97 94 87 90 94 87
0 0 0 0 0 0 0 0 6 10 39 48 65 74 84 94 97 94 94 94 94 90 87 97 97 97 97 100 97 100 100 100 100 100 100 100 100 94 100 94 94 87 90 94 94 87 87 84 87
0 0 0 0 0 0 0 0 10 13 32 48 77 90 94 97 97 94 90 97 94 87 94 94 97 97 94 97 100 100 100 100 100 100 100 100 100 100 90 87 90 84 84 81 84 74 58 61 74
0 0 0 0 0 0 0 3 10 10 23 45 65 87 97 94 97 94 90 94 90 90 90 90 87 94 97 97 100 100 100 100 100 100 100 100 97 94 90 90 94 87 81 68 61 48 45 45 65
0 0 0 0 0 0 3 3 10 13 19 39 55 81 94 94 90 87 90 87 84 84 90 87 87 94 97 97 97 97 97 100 100 100 97 100 94 87 87 87 90 81 77 68 48 52 48 55 52
0 0 0 0 0 3 3 6 10 19 29 39 58 81 90 94 87 87 84 84 87 87 84 87 94 94 94 97 94 94 94 97 100 100 100 97 84 84 84 84 84 55 58 58 55 42 52 58 48
0 0 0 0 0 3 3 6 13 29 32 45 61 81 87 87 87 87 84 84 90 90 90 84 90 97 90 90 94 94 90 97 97 100 100 90 77 81 84 81 77 61 48 48 48 39 61 58 52
0 0 0 0 0 0 3 3 6 29 39 48 55 74 81 84 87 87 84 84 84 87 87 87 94 90 87 87 87 90 90 84 87 94 97 94 77 90 81 74 77 61 65 77 55 52 48 55 42
0 0 0 0 0 0 0 0 3 35 48 52 58 58 74 84 81 87 87 87 90 90 90 87 77 87 87 87 87 90 81 81 90 90 94 84 77 81 84 74 61 65 55 61 61 42 35 32 19
0 0 0 0 0 0 0 3 6 19 42 52 65 58 74 84 81 77 84 87 94 94 90 90 90 87 87 81 81 74 81 77 81 94 87 84 74 74 81 77 71 74 52 42 29 42 32 29 29
0 0 0 0 0 0 0 3 3 13 32 39 65 77 81 84 84 77 84 84 87 90 90 87 84 81 84 81 81 77 74 77 74 68 71 81 81 68 74 74 74 58 52 48 42 42 42 35 35
0 0 0 0 0 0 0 10 6 10 19 39 55 77 84 84 87 81 84 84 84 81 77 84 77 77 81 77 74 61 65 68 68 68 68 68 65 71 71 52 74 71 48 45 39 39 32 29 23
0 0 0 0 0 0 0 10 13 13 19 45 58 74 87 84 81 81 81 74 81 74 74 77 77 77 81 77 71 74 58 55 58 58 65 61 55 61 52 61 61 61 58 42 35 45 26 19 19
0 0 0 0 0 0 3 3 13 10 16 29 42 55 61 74 77 74 74 74 74 71 68 65 74 71 74 68 68 61 55 52 48 58 58 58 52 48 52 52 61 61 45 42 55 48 23 13 16
0 0 0 0 0 0 0 0 10 19 13 26 42 55 61 71 74 74 71 68 77 74 68 74 74 74 68 61 65 45 35 29 39 48 48 48 48 48 48 48 55 55 42 45 29 19 23 16 16
0 0 0 0 0 0 0 0 0 10 10 13 35 52 58 68 71 74 74 68 71 68 61 68 77 81 65 55 58 58 39 29 35 42 52 61 48 45 39 45 48 48 48 42 32 39 26 19 19
0 0 0 0 0 0 0 0 0 6 10 13 35 48 61 65 74 81 77 71 71 65 61 61 74 77 65 48 42 52 48 42 32 39 45 55 55 42 35 42 42 45 42 52 52 45 26 13 13
0 0 0 0 0 0 0 0 3 10 6 16 32 39 52 58 68 77 68 65 58 52 58 58 61 65 58 45 35 48 45 45 45 42 48 45 32 35 42 35 39 39 39 42 39 45 19 13 13
0 0 0 0 0 0 0 0 3 3 16 26 26 32 45 52 61 61 55 52 48 48 48 48 58 58 55 45 45 42 42 45 42 52 45 39 29 32 39 42 42 35 32 26 35 16 19 26 23
0 0 0 0 0 0 0 3 6 10 23 26 26 35 52 58 61 65 55 48 48 52 48 45 55 45 48 48 58 39 39 39 35 42 42 35 39 23 35 26 26 29 29 29 32 29 26 19 19
0 0 0 0 0 0 0 0 0 10 23 32 35 45 58 65 65 61 58 55 52 52 52 48 45 45 45 45 45 29 35 39 35 39 39 23 29 29 32 26 19 23 29 26 32 29 26 26 23
0 0 0 0 0 0 0 0 3 13 29 35 39 42 68 68 58 68 58 55 52 42 35 32 39 42 42 39 32 26 29 29 26 35 26 29 29 26 29 29 26 23 16 23 35 23 19 16 16
0 0 0 0 0 0 0 3 3 13 23 32 42 58 71 65 58 65 68 58 48 39 26 29 29 35 35 29 32 29 35 35 23 19 29 32 35 29 29 23 19 19 13 16 16 16 13 19 16

GEFSSGP_con_cape1000_132.txt.gz
Probability
16 32 71 77 68 71 6 0 0 3 0 0 0 3 3 16 26 29 32 74 87 74 97 100 100 100 100 100 100 100 100 100 100 100 100 100 100 100 100 100 94 87 84 87 87 97 97 97 94
23 55 65 65 52 6 0 0 3 3 3 0 0 3 6 10 13 35 48 84 87 81 87 100 100 100 100 100 100 100 100 100 100 100 100 100 100 100 100 97 94 94 87 90 90 97 94 97 100
26 52 48 61 29 0 0 0 0 3 3 0 0 3 13 19 32 65 65 84 87 81 97 100 100 100 100 100 100 100 100 100 100 100 100 100 100 100 100 97 94 94 90 90 90 97 94 97 97
39 52 45 35 3 0 0 0 0 0 6 6 10 16 35 32 55 58 68 87 90 97 100 100 100 100 100 100 100 100 100 100 100 100 100 100 100 100 100 97 94 94 90 90 90 94 87 90 87
23 32 19 0 3 0 0 0 0 0 6 10 16 55 71 58 68 55 68 84 94 97 100 100 100 100 100 100 100 100 100 100 100 100 100 100 100 100 100 94 94 97 90 87 87 94 90 90 71
19 19 3 0 0 0 0 0 0 0 0 10 29 71 74 74 77 65 71 84 94 94 100 100 100 100 100 100 100 100 100 100 100 100 100 100 100 100 100 97 97 94 94 87 94 90 87 87 61
16 10 3 0 0 0 0 0 0 0 3 13 29 77 74 77 81 71 74 84 94 97 97 97 97 97 100 100 100 100 100 100 100 100 100 100 100 100 100 97 94 94 94 94 90 90 90 84 65
6 3 0 0 0 0 0 0 0 6 6 10 32 77 87 87 94 84 77 87 94 94 94 97 97 97 97 100 100 100 100 100 100 100 100 100 100 100 100 100 97 94 90 94 94 90 87 84 68
0 0 0 0 0 0 0 0 0 3 3 16 29 81 84 90 90 87 84 84 90 94 90 90 94 94 94 97 100 100 100 100 100 100 100 100 100 100 100 97 100 94 90 90 87 77 77 81 61
0 0 0 0 0 0 0 0 0 6 13 32 42 81 90 90 90 94 87 87 87 84 77 84 90 94 90 90 100 100 100 100 100 100 100 100 100 100 100 100 100 94 94 87 84 77 77 71 42
0 0 0 0 0 0 0 0 0 10 23 26 52 90 94 97 94 94 94 94 84 84 87 81 87 90 87 90 100 100 100 100 100 100 100 100 100 100 100 97 97 97 94 87 90 84 48 71 68
0 0 0 0 0 0 0 3 0 6 23 23 61 90 97 100 97 94 97 87 87 90 84 84 84 90 94 97 100 100 100 97 100 97 97 97 97 100 94 97 94 100 100 100 90 100 81 74 77
0 0 0 0 0 0 0 3 0 10 26 32 55 84 97 100 94 90 87 87 90 87 84 87 87 94 97 97 97 94 97 97 94 97 97 97 97 94 97 100 100 97 100 97 100 100 90 87 68
0 0 0 0 0 0 3 3 10 19 16 35 58 71 90 90 87 87 87 87 87 87 87 84 94 97 97 97 97 97 94 97 94 97 97 97 97 94 97 97 97 97 97 97 94 90 87 81 77
0 0 0 0 0 0 3 3 10 16 16 35 55 61 81 81 87 94 87 87 90 87 87 87 90 94 94 97 94 90 84 87 90 97 94 97 90 90 97 97 97 97 94 94 97 90 81 81 77
0 0 0 0 0 0 0 6 13 16 13 42 55 55 77 84 84 87 90 94 90 90 90 90 87 90 90 87 87 84 77 84 87 90 90 90 94 94 90 94 90 97 90 90 100 94 87 84 77
0 0 0 0 0 0 0 3 10 13 13 35 48 55 71 87 87 87 87 87 94 94 94 94 97 90 90 90 87 81 77 81 77 81 87 90 84 87 90 94 94 90 94 87 74 94 90 74 77
0 0 0 0 0 0 0 3 16 13 13 29 42 58 68 87 87 87 87 87 94 97 94 94 97 94 90 87 87 84 81 71 77 81 87 84 81 81 84 87 87 77 94 90 81 87 84 77 77
0 0 0 0 0 0 0 6 13 10 13 19 42 68 77 84 87 90 87 87 90 94 94 97 97 90 87 87 84 74 68 74 71 81 84 81 81 81 74 84 87 90 94 84 77 71 48 55 65
0 0 0 0 0 0 0 6 16 13 10 16 29 58 77 81 90 90 84 84 90 90 90 90 97 90 84 84 81 77 74 74 71 68 74 77 77 74 65 77 77 87 90 74 71 77 71 61 58
0 0 0 0 0 0 0 6 13 16 6 16 26 45 74 77 87 94 87 87 87 87 84 87 90 87 84 81 71 68 81 61 55 61 71 74 61 61 65 71 81 84 87 84 74 68 61 55 48
0 0 0 0 0 0 0 0 13 16 23 19 26 39 52 74 87 90 90 87 84 87 87 90 87 87 77 74 74 68 65 52 58 61 61 68 68 61 65 71 71 77 81 87 71 71 71 58 39
0 0 0 0 0 0 0 0 10 16 16 23 26 32 58 74 87 90 87 81 81 81 81 87 90 84 74 74 77 77 74 58 58 58 58 65 61 58 65 65 65 77 74 81 68 71 68 65 52
0 0 0 0 0 0 0 0 0 16 16 29 35 48 68 77 84 84 84 84 81 74 77 81 77 77 77 77 81 77 71 65 52 58 61 61 58 58 52 61 68 74 68 71 65 65 68 68 61
0 0 0 0 0 0 0 0 3 6 13 23 35 42 52 65 74 84 81 77 74 74 71 84 81 81 81 81 87 81 65 68 61 55 55 55 61 58 68 52 58 68 74 71 61 71 68 61 65
0 0 0 0 0 0 0 0 13 10 16 23 42 48 42 52 71 81 84 77 74 74 77 81 81 81 84 87 84 81 71 61 65 61 52 58 61 52 68 68 61 58 61 52 71 65 61 61 58
0 0 0 0 0 0 0 6 13 13 16 26 39 42 52 61 71 77 77 74 74 74 81 77 81 81 68 71 81 77 77 61 55 45 45 45 52 55 61 61 55 58 58 58 65 61 58 65 52
0 0 0 0 0 0 0 3 16 16 29 26 42 52 58 68 61 68 71 65 65 68 68 68 71 71 68 68 61 58 65 58 52 48 42 45 45 45 55 55 48 55 55 58 55 48 55 52 52
0 0 0 0 0 0 0 0 6 16 32 32 42 55 68 68 61 68 68 65 68 65 61 68 71 71 68 65 65 65 58 55 52 48 45 45 52 42 42 48 52 42 42 52 52 42 52 45 39
0 0 0 0 3 0 0 0 3 6 16 39 48 68 84 77 71 65 68 71 74 61 58 68 61 58 65 55 68 65 55 48 45 48 48 48 45 45 35 39 35 32 29 42 48 35 32 29 29

GEFSSGP_con_cape1000_138.txt.gz
Probability
48 19 3 32 29 0 0 3 0 3 0 0 6 10 16 19 6 3 10 19 68 94 100 100 100 100 100 100 100 100 100 100 100 100 100 100 100 100 100 100 100 94 97 97 97 94 100 100 100
3 6 10 26 13 0 0 0 0 0 0 0 6 23 32 45 58 45 29 52 84 97 100 100 100 100 100 100 100 100 100 100 100 100 100 100 100 100 100 97 100 94 97 97 97 94 100 94 94
6 16 13 23 10 0 0 0 0 0 0 3 6 19 39 61 81 58 29 65 84 94 97 100 100 100 100 100 100 100 100 100 100 100 100 100 100 100 97 97 97 94 94 97 94 100 94 90 90
13 10 10 13 3 0 0 0 0 0 6 10 23 32 35 65 84 68 55 65 87 97 97 100 100 100 100 100 100 100 100 100 100 100 100 100 100 100 97 97 97 94 97 94 94 100 90 87 84
3 10 6 0 0 0 0 3 3 13 10 10 29 39 42 81 77 61 45 71 84 97 97 100 100 100 100 100 100 100 100 100 100 100 100 100 100 100 97 100 97 97 94 90 90 90 90 84 84
0 0 0 0 0 0 0 0 10 10 13 19 35 39 39 74 68 61 58 71 87 94 97 100 100 100 100 100 100 100 100 100 100 100 100 100 100 100 100 100 100 94 90 90 90 90 81 77 84
0 0 0 0 0 0 0 6 10 16 19 23 29 29 35 65 71 68 74 77 90 94 94 100 100 100 100 100 100 100 100 100 100 100 100 100 100 100 100 100 100 97 94 94 90 84 81 74 77
0 0 0 0 0 0 0 0 16 16 16 23 35 32 29 65 71 81 87 84 94 94 94 94 97 97 100 100 100 100 100 100 100 100 100 100 100 100 100 100 100 94 90 94 87 77 71 68 68
0 0 0 0 0 0 3 10 16 23 26 42 45 48 45 58 71 87 87 87 87 90 90 94 94 94 94 97 100 100 100 100 100 100 100 100 100 100 100 97 97 94 90 87 81 81 74 61 48
0 0 0 0 0 0 3 6 13 19 29 42 48 48 65 61 77 87 81 84 87 90 90 90 90 90 94 94 97 100 97 100 97 97 97 77 77 81 97 100 100 90 90 87 84 81 65 35 10
0 0 0 0 0 0 3 10 13 23 23 45 55 52 65 61 74 71 77 77 87 90 90 87 90 90 90 94 94 94 94 90 87 90 81 58 61 74 61 84 90 84 71 55 61 55 26 13 3
0 0 0 0 0 0 3 3 13 16 23 42 55 55 65 68 71 68 71 71 68 81 87 81 84 81 81 87 87 77 77 74 74 71 65 55 52 45 45 45 45 35 29 16 23 23 16 10 6
0 0 0 0 3 3 3 10 13 26 32 48 55 58 74 61 61 61 71 65 65 61 65 65 68 68 71 71 71 68 68 61 58 68 58 55 45 35 32 32 29 19 16 10 10 6 6 6 6
0 0 0 0 3 0 3 10 16 26 39 48 58 65 68 55 52 55 58 58 55 52 55 58 61 61 61 65 61 68 58 52 52 52 58 55 35 35 39 32 19 13 10 10 6 3 3 3 6
0 0 0 0 0 0 3 6 16 23 42 58 61 61 71 61 58 55 68 58 55 65 58 58 61 55 61 52 45 52 48 48 48 48 48 48 39 26 26 23 16 10 3 3 0 3 0 0 0
0 0 0 0 0 0 6 13 26 29 48 55 58 74 74 65 55 55 65 61 61 65 58 61 61 55 58 52 42 55 35 45 48 48 42 39 32 26 23 16 10 6 6 3 3 3 0 0 0
0 0 0 0 0 3 0 13 16 32 42 52 58 61 61 61 68 55 58 58 65 61 58 58 58 55 48 42 32 35 35 32 42 42 29 29 32 26 13 3 6 10 6 3 3 0 0 0 0
0 0 0 0 0 0 0 13 23 26 32 39 55 61 68 65 58 58 65 61 55 58 61 52 52 45 52 52 35 35 32 39 45 39 23 16 32 32 19 3 6 6 0 0 0 0 0 0 0
0 0 0 0 0 0 3 6 16 19 29 42 55 58 68 68 71 68 65 65 65 55 58 55 48 48 55 48 39 29 29 42 42 35 26 19 26 29 19 13 6 3 0 0 0 0 0 0 0
0 0 0 0 0 0 3 6 10 19 23 39 48 61 65 61 71 77 71 74 71 61 55 58 52 48 52 52 32 16 13 23 26 35 23 19 19 26 19 10 6 3 0 3 0 0 0 0 0
0 0 0 0 0 3 3 6 6 19 19 39 45 61 65 65 71 77 77 71 71 65 61 61 52 52 48 39 29 23 16 16 16 13 19 19 26 26 16 10 6 6 3 0 0 0 0 0 0
0 0 0 0 0 0 3 0 3 13 23 39 52 55 61 71 68 77 77 71 68 65 61 48 48 52 42 39 32 23 19 6 3 10 16 19 32 35 16 6 6 6 0 0 0 0 0 0 0
0 0 0 0 0 0 0 0 0 13 23 29 48 58 61 71 74 74 74 68 68 68 65 48 45 48 45 39 32 23 16 3 6 6 13 13 23 32 13 6 3 0 0 0 0 0 0 0 0
0 0 0 0 0 0 0 0 0 10 19 32 42 48 58 77 74 71 68 68 68 68 61 61 55 45 48 45 32 23 13 3 6 6 10 6 10 13 16 16 10 0 0 0 0 0 0 0 0
0 0 0 0 0 0 0 0 0 3 19 26 48 52 61 71 71 74 71 68 65 61 65 61 58 58 48 45 42 23 13 6 3 3 3 3 6 13 10 16 10 6 0 0 0 0 0 0 0
0 0 0 0 0 0 0 3 3 3 19 29 42 52 58 61 65 68 71 68 65 65 65 61 58 58 48 48 29 26 19 13 6 10 6 6 6 3 3 6 3 10 10 10 3 0 0 0 0
0 0 0 0 0 0 0 3 10 19 23 26 32 45 48 58 58 58 52 58 65 65 61 58 55 55 42 45 39 26 23 19 16 13 10 6 6 3 3 6 6 10 10 10 0 0 0 0 0
0 0 0 0 0 0 0 3 3 19 26 29 35 45 48 61 55 48 42 52 55 55 52 55 55 48 39 35 32 32 23 19 16 13 13 13 10 6 10 6 3 10 10 10 6 3 0 0 0
0 0 0 0 0 0 0 0 0 6 16 19 26 42 42 48 48 48 42 52 48 42 39 39 39 42 39 32 29 26 26 16 13 13 6 10 10 10 6 3 3 6 6 10 6 3 3 0 0
0 0 0 0 0 0 0 0 3 6 16 13 32 42 45 42 42 39 42 48 45 42 39 32 35 35 32 32 26 19 13 10 13 13 13 6 10 6 6 3 3 3 3 0 6 3 3 3 3

GEFSSGP_con_cape1000_144.txt.gz
Probability
32 32 13 13 0 0 0 0 0 0 0 0 0 3 10 6 0 0 0 13 48 90 97 100 100 100 100 100 100 100 100 100 100 100 100 100 100 100 100 97 100 100 100 100 100 100 97 90 94
19 16 0 0 0 0 0 0 0 0 0 0 10 16 35 35 19 10 13 42 81 94 100 100 100 100 100 100 100 100 100 100 100 100 100 100 100 100 97 97 100 100 100 97 100 100 94 94 100
6 10 0 0 0 0 0 0 0 0 3 3 16 35 42 45 29 16 32 68 90 94 97 100 100 100 100 100 100 100 100 100 100 100 100 100 100 97 97 97 97 100 97 100 100 100 100 94 94
6 3 0 0 0 0 0 0 0 0 3 13 23 39 52 55 48 29 55 87 90 90 97 100 100 100 100 100 100 100 100 100 100 100 100 100 100 97 100 100 97 97 97 100 97 94 97 94 94
3 0 0 0 0 0 0 0 0 3 10 16 26 39 58 77 52 58 61 84 90 90 94 97 97 100 100 100 100 100 100 100 100 100 100 100 100 100 100 100 100 97 100 100 94 94 94 94 84
0 0 0 0 0 0 0 0 3 10 16 26 29 42 58 68 61 61 74 81 90 94 94 97 97 97 100 100 100 100 100 100 100 100 100 100 100 100 100 100 97 100 100 100 94 90 87 90 90
0 0 0 0 0 3 3 3 6 6 10 26 35 52 52 61 55 58 68 84 94 94 94 97 97 97 97 100 100 100 100 100 100 100 100 100 100 100 100 100 94 94 100 97 94 94 87 87 97
0 0 0 0 0 0 3 3 6 10 16 26 35 42 52 52 48 52 74 87 94 90 90 94 94 97 97 100 100 100 100 100 100 100 100 100 100 100 100 97 97 97 100 97 90 84 81 90 90
0 0 0 0 0 0 0 6 6 10 19 29 45 42 58 58 55 68 74 84 90 90 90 94 94 94 97 100 100 100 100 100 100 100 100 100 94 94 100 97 97 94 94 94 84 74 84 87 84
0 0 0 0 0 0 0 6 10 16 26 35 48 61 65 61 52 48 52 65 77 87 87 84 94 94 97 100 97 100 100 100 97 90 87 77 65 84 94 100 97 94 94 94 87 77 65 26 29
0 0 0 0 0 0 0 13 13 19 19 29 48 74 74 68 52 35 32 35 42 81 84 81 84 87 87 90 90 87 94 84 84 77 65 58 55 65 65 65 81 74 61 42 48 23 16 10 6
0 0 0 0 0 0 0 10 13 10 13 29 45 74 74 77 61 42 35 32 39 55 77 81 87 87 77 81 84 74 65 58 68 68 55 45 45 39 42 42 42 32 23 19 16 16 10 6 3
0 0 0 0 0 0 3 10 16 13 16 45 61 77 77 77 68 48 39 29 35 48 65 81 81 74 68 71 71 68 52 48 48 52 32 29 32 26 23 32 19 19 13 13 13 10 6 6 6
0 0 0 0 0 3 6 13 16 19 35 45 61 71 74 74 65 65 55 42 39 42 61 68 65 61 55 48 48 42 45 42 45 39 32 26 23 19 19 16 13 6 10 6 6 6 6 6 6
0 0 0 0 0 3 10 13 19 19 39 39 45 65 68 71 61 65 61 42 39 39 42 52 48 48 55 39 35 39 42 39 35 23 26 29 16 6 10 10 13 6 6 6 6 3 3 3 3
0 0 0 0 0 0 0 6 16 19 32 39 39 55 65 65 58 61 58 45 39 29 35 45 48 48 45 32 32 35 39 29 26 19 16 26 13 3 3 3 3 3 0 0 0 0 0 0 0
0 0 0 0 0 0 0 6 10 29 32 32 39 35 48 55 55 58 61 52 39 35 32 35 35 32 29 23 19 16 19 23 19 16 19 26 16 10 0 0 0 0 0 0 0 0 0 0 0
0 0 0 0 0 0 0 3 10 26 32 35 42 45 48 52 45 48 48 45 39 35 29 29 23 19 19 23 10 10 13 10 10 10 13 10 13 13 3 0 0 0 0 0 0 0 0 0 0
0 0 0 0 0 0 0 3 13 32 32 32 32 48 45 45 35 35 42 42 32 26 29 26 19 19 16 16 16 13 13 10 10 6 3 6 6 13 6 6 0 0 0 0 0 0 0 0 0
0 0 0 0 0 0 6 10 16 26 29 39 42 35 45 39 35 42 45 42 35 35 35 29 23 16 13 10 13 10 6 6 6 10 6 3 3 10 3 0 0 0 0 0 0 0 0 0 0
0 0 0 0 0 0 3 6 13 19 23 39 39 39 39 35 35 45 55 48 35 26 29 29 23 26 13 10 6 3 0 3 6 6 6 6 3 13 10 0 0 0 0 0 0 0 0 0 0
0 0 0 0 0 0 0 0 3 16 23 32 39 39 45 45 42 48 55 48 39 32 29 23 16 16 13 10 10 3 3 6 6 3 6 3 3 10 13 0 0 0 0 0 0 0 0 0 0
0 0 0 0 0 0 0 0 0 6 19 32 39 39 39 42 45 55 55 45 45 35 35 26 19 16 16 10 10 10 3 3 6 6 6 3 0 3 6 6 0 0 0 0 0 0 0 0 0
0 0 0 0 0 0 0 0 0 0 13 26 32 39 45 42 55 58 55 52 48 45 29 29 29 23 19 19 13 10 6 0 0 0 0 0 0 0 3 6 0 0 0 0 0 0 0 0 0
0 0 0 0 0 0 0 0 0 0 3 16 23 32 45 48 52 58 58 58 55 52 45 32 26 23 19 16 16 6 6 3 0 0 0 0 0 0 0 3 0 0 0 0 0 0 0 0 0
0 0 0 0 0 0 0 0 0 10 16 16 32 35 48 48 52 68 65 61 55 52 42 39 35 26 26 19 19 13 10 3 0 0 0 0 3 3 3 3 3 0 0 0 0 0 0 0 0
0 0 0 0 0 0 0 0 0 13 19 32 32 42 42 48 52 55 58 58 55 48 45 32 35 39 29 26 26 23 6 6 3 3 0 0 0 0 3 3 3 0 3 0 0 0 0 0 0
0 0 0 0 0 0 0 0 0 13 19 32 35 35 45 52 52 52 55 48 48 35 39 32 35 32 32 26 19 13 6 3 3 0 0 0 0 0 0 0 0 0 3 3 0 3 0 0 0
0 0 0 0 0 0 0 0 0 3 16 19 35 35 32 45 42 39 35 39 29 29 32 29 26 26 23 16 16 23 13 13 10 6 6 3 3 0 0 0 0 0 0 0 3 0 0 0 0
0 0 0 0 0 0 0 0 0 3 19 23 35 39 39 45 39 32 35 26 26 23 29 29 29 26 19 13 13 13 16 10 10 13 13 6 6 6 6 3 3 3 3 0 0 0 3 0 0

GEFSSGP_con_cape1000_150.txt.gz
Probability
26 32 45 48 29 0 0 0 0 0 0 0 0 0 0 3 3 26 23 6 13 35 71 90 100 100 100 100 100 100 100 100 100 100 100 100 100 97 100 97 97 100 100 100 100 100 100 97 97
26 42 39 29 0 0 0 0 0 0 0 0 0 0 0 26 29 26 13 16 13 29 65 90 100 100 100 100 100 100 100 100 100 100 100 100 100 97 100 100 100 100 100 97 97 100 100 97 97
32 35 26 0 0 0 0 0 0 0 0 3 3 3 3 26 23 23 32 23 23 45 74 100 100 100 100 100 100 100 100 100 100 100 100 100 97 97 100 100 100 100 100 100 100 97 97 97 97
23 26 6 0 0 0 0 0 3 0 6 10 6 10 23 29 23 16 42 26 26 52 65 100 100 100 100 100 100 100 100 100 100 100 100 100 97 97 94 97 94 94 94 100 100 94 97 97 97
13 6 0 0 0 0 0 0 0 0 10 13 10 6 45 58 35 32 58 29 39 45 74 94 100 100 100 100 100 100 100 100 100 100 100 100 100 100 100 97 97 94 90 94 94 94 87 90 94
6 0 0 0 0 0 0 0 3 6 13 10 13 13 61 81 61 52 52 48 35 45 71 97 97 97 100 100 100 100 100 100 100 100 100 100 100 100 100 97 97 97 94 94 90 90 87 90 87
3 0 0 0 0 0 0 3 10 6 13 13 13 26 68 81 74 65 61 58 39 42 74 97 97 94 94 97 97 100 100 100 100 100 100 100 100 100 100 100 97 97 94 90 90 90 94 87 84
3 0 0 0 0 0 0 3 13 13 19 32 29 32 71 94 90 71 68 71 68 65 74 90 81 84 87 97 97 97 100 97 100 100 100 100 100 100 100 100 100 94 94 90 90 87 84 90 87
3 0 0 0 0 0 0 3 10 16 26 35 52 58 74 94 94 77 81 81 84 90 90 84 77 84 81 87 94 100 100 97 100 100 100 100 100 84 94 94 97 94 87 87 87 81 74 84 84
0 0 0 0 0 0 3 6 13 23 26 45 81 94 90 90 90 87 90 90 84 87 94 94 74 74 74 87 97 100 100 100 100 97 94 100 100 90 94 90 94 87 90 84 87 84 68 71 55
0 0 0 0 0 0 0 3 6 13 13 32 71 94 90 87 90 90 81 81 74 77 90 84 81 81 77 87 94 100 100 100 97 97 94 100 94 87 84 94 87 97 84 77 65 58 45 39 55
0 0 0 0 0 0 0 3 6 13 16 23 58 87 94 90 87 84 77 77 68 74 87 74 87 90 87 87 90 100 97 87 87 100 90 90 94 87 84 90 77 84 90 77 42 65 52 52 48
0 0 0 0 0 0 6 3 6 13 32 39 65 87 97 90 90 87 77 77 74 77 77 77 90 94 94 97 94 87 94 77 81 100 94 97 87 87 84 87 81 48 61 68 61 55 65 55 45
0 0 0 0 0 6 6 6 16 29 35 42 68 90 94 90 90 87 81 84 74 77 84 77 87 87 97 97 97 94 87 90 77 87 87 90 84 90 84 84 81 45 48 48 55 52 58 55 39
0 0 0 0 3 6 3 6 10 29 39 45 68 87 90 94 87 87 87 84 77 84 87 87 84 90 87 94 97 94 84 77 77 77 81 87 81 94 77 74 77 61 58 68 68 52 52 48 29
0 0 0 0 0 6 3 6 23 32 39 48 58 68 94 94 94 90 84 81 84 84 84 84 77 84 84 97 97 94 74 84 77 77 77 84 77 84 81 74 68 77 61 58 68 52 42 39 35
0 0 0 0 0 0 0 6 23 35 39 48 58 61 81 94 94 94 81 81 84 87 87 87 77 81 81 90 97 94 94 94 81 74 77 87 87 71 71 68 74 81 71 61 52 48 45 42 45
0 0 0 0 0 0 0 6 16 32 35 45 58 68 71 94 94 94 87 81 81 84 87 87 77 81 87 94 97 97 94 94 97 90 87 87 84 74 71 65 61 61 71 74 74 61 68 52 65
0 0 0 0 0 0 0 3 10 35 45 52 61 65 68 74 84 90 87 81 81 87 84 87 81 84 87 87 77 90 84 90 84 77 77 81 74 71 68 48 61 65 65 68 55 71 58 55 52
0 0 0 0 0 0 3 6 13 35 48 58 65 68 68 65 74 84 84 74 77 77 84 90 81 81 87 87 87 90 81 84 77 77 77 68 68 68 58 65 65 71 74 77 74 84 61 45 48
0 0 0 0 0 0 3 3 13 29 42 58 61 68 68 71 77 77 84 81 77 84 81 77 84 81 84 84 81 81 84 74 68 71 81 74 74 71 65 61 58 71 65 65 77 81 71 55 52
0 0 0 0 0 0 0 0 6 13 29 45 65 61 65 74 74 81 77 84 77 81 84 77 84 87 77 74 68 74 74 65 71 74 71 71 74 68 61 52 61 68 61 71 61 55 74 71 48
0 0 0 0 0 0 0 0 0 13 16 39 55 65 65 71 77 81 84 71 68 74 65 81 81 84 77 71 77 81 81 77 71 68 74 71 65 61 58 52 55 65 65 65 65 68 74 71 61
0 0 0 0 0 0 0 0 0 6 23 29 48 61 68 74 77 81 77 84 77 68 68 68 77 84 84 74 74 81 84 84 81 65 61 61 48 55 58 52 55 58 65 81 74 74 65 68 61
0 0 0 0 0 0 0 0 0 10 19 35 55 68 74 84 84 84 81 84 81 74 71 71 77 84 84 77 74 81 77 81 84 71 65 58 52 52 55 55 55 61 71 71 65 74 65 61 58
0 0 0 0 0 0 0 0 3 13 26 48 71 71 74 74 84 87 77 77 81 81 71 71 81 84 77 74 74 77 77 74 71 71 61 65 58 48 48 55 55 58 61 55 65 61 65 55 58
0 0 0 0 0 0 0 0 3 16 35 58 71 81 81 84 87 87 84 81 84 81 81 74 77 81 71 74 81 74 71 74 61 61 68 55 55 52 45 45 48 48 48 52 52 55 58 58 52
0 0 0 0 0 0 0 0 0 13 29 52 71 74 84 84 87 84 81 84 77 81 77 77 77 74 71 74 71 61 65 61 65 68 68 58 58 52 48 48 48 45 48 52 55 48 45 48 55
0 0 0 0 0 0 0 0 0 10 26 45 61 81 84 84 87 81 81 81 74 74 71 74 74 71 71 71 61 55 55 58 61 58 61 55 58 52 45 39 35 42 45 42 45 39 35 29 29
0 0 0 0 0 0 0 0 0 6 16 35 58 77 77 87 87 81 81 81 74 68 61 68 61 61 65 61 61 61 58 58 55 55 48 48 52 48 42 42 35 32 35 32 35 32 23 26 23

GEFSSGP_con_cape1000_156.txt.gz
Probability
6 23 48 68 52 13 0 0 0 0 0 0 0 6 10 16 19 6 19 42 61 65 97 100 100 100 100 100 100 100 100 97 100 100 100 100 100 100 100 100 100 100 100 97 100 97 100 100 100
3 39 48 52 35 0 0 0 0 0 0 0 0 10 6 3 6 6 29 55 61 61 84 100 100 100 100 100 100 100 100 100 100 100 100 100 100 100 100 100 100 100 100 97 100 100 100 100 100
10 35 42 35 3 0 0 0 0 0 0 0 0 10 6 6 10 6 32 48 58 71 97 100 100 100 100 100 100 100 100 100 100 100 100 100 100 100 100 100 100 100 100 100 100 97 100 100 90
29 29 29 3 0 0 0 0 3 0 0 0 3 13 10 13 16 13 26 48 68 94 94 100 100 100 100 100 100 100 100 100 100 100 100 100 100 100 97 97 94 100 100 97 97 97 100 94 81
19 6 0 0 0 0 0 0 0 0 0 0 16 23 19 10 13 16 29 48 74 87 90 97 100 100 100 100 100 100 100 100 100 100 100 100 100 97 94 94 94 97 94 94 97 97 97 94 77
3 0 0 0 0 0 0 0 3 0 3 3 19 32 26 16 13 13 23 48 68 94 97 100 100 100 100 100 100 100 100 100 100 100 100 100 100 100 97 97 90 94 90 94 90 87 97 81 58
0 0 0 0 0 0 0 0 0 3 3 0 23 32 26 23 19 13 19 42 71 84 90 94 94 97 97 97 97 97 97 100 100 100 100 100 100 100 100 100 97 94 90 90 90 87 84 68 45
0 0 0 0 0 0 0 0 0 0 0 3 16 35 35 42 32 23 32 55 77 87 87 90 87 90 90 97 97 97 94 94 97 97 100 100 100 100 100 100 100 94 94 90 84 77 74 68 55
0 0 0 0 0 0 0 0 0 3 3 6 23 45 52 45 39 35 35 61 77 84 90 90 81 90 90 90 94 97 94 94 97 100 100 100 97 94 97 97 97 90 84 77 77 68 68 65 45
0 0 0 0 0 0 0 0 3 6 10 26 52 71 58 52 52 42 42 52 71 84 84 81 77 87 81 94 94 97 90 97 100 100 97 97 94 97 81 97 97 84 81 71 74 81 71 48 35
0 0 0 0 0 0 0 0 0 3 10 35 61 71 65 65 61 61 58 58 65 74 84 81 74 84 87 94 90 90 94 97 100 97 94 94 84 84 84 90 97 94 81 71 71 81 71 61 65
0 0 0 0 0 0 0 0 0 3 10 29 61 74 68 71 68 74 65 68 71 81 81 77 77 90 94 94 90 87 90 90 94 94 90 94 94 94 94 100 97 97 90 90 87 87 81 71 61
0 0 0 0 0 0 0 0 0 6 13 42 52 77 84 77 77 84 84 81 84 81 77 84 90 94 94 94 94 87 87 87 87 94 94 94 90 97 94 100 100 94 90 90 94 90 84 81 74
0 0 0 0 0 0 0 0 0 10 19 42 48 71 84 84 81 84 81 84 90 87 90 94 90 94 94 94 94 90 87 84 84 94 94 94 97 100 100 100 100 94 94 94 94 87 84 90 87
0 0 0 0 0 0 0 0 6 13 19 39 48 61 74 87 87 90 90 97 94 94 90 90 90 94 94 94 90 90 84 77 94 94 97 97 97 100 100 100 97 97 94 94 94 87 87 74 84
0 0 0 0 0 0 0 3 13 13 19 39 45 52 71 94 87 94 94 97 100 90 90 87 81 84 90 90 90 94 90 90 94 94 94 97 94 94 97 97 97 100 94 94 94 94 94 90 87
0 0 0 0 0 0 0 3 10 10 16 42 48 58 74 94 94 90 94 97 100 97 94 90 87 84 90 90 94 90 94 97 97 94 94 97 90 87 90 97 100 97 94 94 77 87 97 90 84
0 0 0 0 0 0 0 6 10 10 16 39 55 61 68 81 97 94 97 97 100 100 97 94 87 87 87 90 97 97 100 100 97 97 100 97 97 87 87 87 94 97 94 94 94 90 94 90 90
0 0 0 0 0 0 3 6 10 13 16 32 58 61 71 74 87 100 97 94 94 97 94 97 90 90 90 94 94 97 97 97 94 94 94 90 84 84 84 84 90 87 90 90 84 87 87 87 90
0 0 0 0 0 0 0 3 10 10 13 35 52 65 71 71 90 97 100 90 90 97 100 97 97 94 90 94 97 94 94 90 94 94 97 87 77 77 71 87 87 81 84 90 90 94 90 77 74
0 0 0 0 0 0 0 3 3 10 13 29 42 61 68 74 90 97 97 94 90 97 97 94 94 90 87 87 84 87 84 87 84 87 90 90 81 74 84 81 74 74 74 77 84 81 84 71 74
0 0 0 0 0 0 0 0 6 13 23 32 39 58 71 74 81 90 97 100 87 90 90 97 94 87 90 87 87 81 87 81 77 90 90 87 84 81 74 74 77 65 65 74 68 71 77 74 58
0 0 0 0 0 0 0 0 3 16 23 35 39 52 65 68 81 87 90 94 90 90 94 94 97 90 94 97 94 84 81 81 84 77 90 94 87 81 68 71 71 68 68 68 74 81 81 71 65
0 0 0 0 0 0 0 0 3 6 19 32 48 55 65 65 84 87 90 94 90 87 87 90 94 90 97 94 94 90 87 90 81 87 87 94 94 81 74 68 68 68 68 71 68 74 71 61 68
0 0 0 0 0 0 0 0 10 13 6 16 48 55 61 74 84 87 87 94 94 87 84 87 90 90 90 90 87 90 97 90 87 87 84 90 84 74 77 68 68 58 68 61 68 77 71 65 65
0 0 0 0 0 0 0 0 13 10 13 19 39 58 65 77 84 87 90 97 94 87 87 87 94 94 87 87 94 97 94 90 87 87 84 84 81 74 71 68 61 65 55 45 71 65 65 61 58
0 0 0 0 0 0 0 6 10 13 16 19 42 61 65 77 84 87 87 87 87 87 84 90 97 90 87 84 84 90 84 84 87 84 81 77 81 65 71 61 58 55 58 52 65 55 58 61 61
0 0 0 0 3 0 0 3 13 19 19 19 45 74 77 77 84 87 87 87 84 87 87 87 90 90 81 77 81 74 81 81 81 81 77 74 74 74 71 74 68 55 52 58 65 55 55 65 61
0 0 0 0 0 0 0 0 10 16 29 29 39 68 77 71 77 81 87 87 84 84 87 87 87 87 81 77 68 74 74 77 77 81 71 71 74 68 68 58 55 52 55 55 58 45 65 61 52
0 0 0 0 10 3 0 0 3 10 10 16 29 65 71 71 71 81 84 87 87 84 84 87 87 87 77 74 77 77 77 71 74 68 71 65 68 61 58 61 55 48 52 58 55 39 35 39 32

GEFSSGP_con_cape1000_162.txt.gz
Probability
3 0 6 19 10 3 0 0 0 0 0 0 0 0 0 0 3 10 6 23 68 97 97 100 100 100 100 100 100 100 100 100 100 100 100 100 100 100 100 100 100 100 100 100 100 100 100 97 97
0 3 10 13 3 0 0 0 0 0 0 0 0 3 10 23 23 26 23 45 81 94 97 100 100 100 100 100 100 100 100 100 100 100 100 100 100 100 100 100 100 100 100 100 100 100 100 97 97
0 3 6 10 0 0 0 0 0 0 3 0 0 0 3 23 35 26 32 48 81 94 100 100 100 100 100 100 100 100 100 100 100 100 100 100 100 100 100 100 100 100 100 100 100 97 97 94 90
0 3 6 3 0 0 0 0 0 0 6 3 3 3 6 23 42 32 29 65 81 97 100 100 100 100 100 100 100 100 100 100 100 100 100 100 100 100 100 100 100 100 100 100 100 97 94 90 94
3 0 0 0 0 0 0 0 0 3 13 6 3 6 10 26 39 48 58 71 87 97 100 100 100 100 100 100 100 100 100 100 100 100 100 100 100 100 100 100 100 100 97 94 97 94 90 90 81
0 0 0 0 0 0 0 0 0 16 10 3 3 6 10 42 48 58 65 68 84 100 100 100 100 100 100 100 100 100 100 100 100 100 100 100 100 100 100 97 97 97 94 94 94 90 84 74 77
0 0 0 0 0 0 0 0 3 10 13 16 3 3 6 39 45 58 77 71 81 94 97 97 100 100 100 100 100 100 100 100 100 100 100 100 100 97 97 97 97 94 94 94 87 81 71 65 77
0 0 0 0 0 0 0 0 0 6 16 16 6 3 6 23 35 52 68 65 77 87 87 90 94 94 97 100 100 100 100 100 100 100 100 100 100 94 97 97 97 94 87 77 74 65 55 65 65
0 0 0 0 0 0 0 0 6 13 19 19 16 3 10 19 35 45 55 58 65 71 87 87 94 90 94 97 97 97 100 100 100 100 100 87 77 74 87 90 94 87 81 71 71 68 61 42 42
0 0 0 0 0 0 0 3 6 26 23 16 6 6 16 23 39 45 55 42 48 55 74 77 74 81 90 90 90 87 84 87 74 77 74 58 48 45 61 87 87 87 81 77 77 65 58 39 10
0 0 0 0 0 0 0 3 6 23 26 23 6 10 13 23 35 48 48 48 48 55 61 71 71 68 71 84 77 65 61 71 68 68 55 48 48 45 45 58 71 68 68 32 45 52 35 16 6
0 0 0 0 0 0 0 6 6 16 26 26 10 10 10 19 29 48 55 52 52 55 65 61 58 61 48 68 68 71 55 52 58 52 35 35 32 32 26 29 29 26 19 19 23 13 10 6 6
0 0 0 0 0 0 0 10 19 26 29 29 16 13 10 16 19 32 45 52 42 42 39 45 48 48 45 55 58 65 58 48 45 45 39 29 29 26 19 13 16 13 13 13 13 13 6 6 3
0 0 0 0 0 0 6 19 23 26 23 32 29 19 16 23 26 26 26 35 35 32 39 48 55 45 48 55 45 55 52 52 52 45 45 35 19 16 16 13 10 13 13 6 10 3 6 3 3
0 0 0 0 0 0 3 19 23 23 32 39 42 39 35 29 35 32 29 29 35 45 42 52 55 58 58 61 55 48 48 48 48 32 35 42 19 6 6 13 13 16 13 13 3 0 0 0 3
0 0 0 0 0 0 3 19 23 26 35 45 48 48 52 52 45 32 29 26 35 42 45 55 58 61 61 65 58 52 35 39 42 29 26 26 16 16 10 16 13 13 10 3 3 0 0 3 3
0 0 0 0 0 0 6 16 26 26 39 55 58 68 65 65 52 52 39 39 48 48 55 52 58 58 61 58 55 52 42 39 42 29 26 29 23 19 10 10 10 10 13 6 10 0 0 0 0
0 0 0 0 0 0 6 13 32 35 45 42 58 65 74 74 68 65 65 65 61 65 58 58 58 58 55 48 45 52 52 45 39 42 32 29 19 23 13 6 10 10 6 3 0 0 0 0 0
0 0 0 0 0 0 6 13 32 42 52 52 52 65 74 74 74 74 74 81 74 71 65 61 58 55 52 45 45 42 45 45 42 35 35 35 32 26 10 10 6 3 3 0 0 0 0 0 0
0 0 0 0 0 0 6 10 23 32 45 48 55 58 77 74 77 77 77 81 74 68 65 58 65 55 48 45 45 39 39 39 32 32 35 35 29 29 19 6 6 10 6 3 3 0 0 0 0
0 0 0 0 0 0 3 0 13 29 45 55 61 65 71 81 74 84 81 81 77 71 68 71 58 58 58 52 48 48 35 32 32 35 32 23 29 32 10 10 0 10 6 3 3 0 0 0 0
0 0 0 0 0 0 3 3 3 29 35 52 58 61 61 74 77 84 84 77 77 74 74 61 55 61 61 55 52 52 35 32 29 23 19 19 29 29 16 13 6 3 3 3 0 3 0 0 0
0 0 0 0 0 0 0 3 6 16 42 45 58 61 65 74 84 87 84 77 71 77 74 71 65 61 58 52 45 42 35 29 23 19 19 16 13 16 23 16 16 10 6 6 10 3 3 0 0
0 0 0 0 0 0 0 0 6 13 39 42 55 68 77 77 84 87 84 77 74 74 77 77 68 58 58 52 45 45 42 29 26 23 23 16 10 10 16 23 19 16 10 6 6 10 6 3 3
0 0 0 0 0 0 0 0 0 6 26 42 58 68 74 77 74 74 84 71 68 68 68 74 74 58 61 58 45 35 26 23 23 26 19 16 13 10 10 16 13 10 6 6 10 6 10 10 6
0 0 0 0 0 0 0 3 6 16 23 35 52 68 77 74 84 77 81 74 71 68 65 65 65 58 61 48 39 32 29 29 26 19 23 19 16 16 16 13 13 10 6 6 10 10 10 10 10
0 0 0 0 0 0 0 3 16 29 32 35 52 71 71 65 74 74 74 68 68 65 61 65 61 55 48 48 45 35 35 35 26 19 19 19 23 23 19 23 13 16 13 13 13 10 10 10 6
0 0 0 0 0 0 0 0 6 29 35 39 55 58 58 71 77 71 71 61 61 61 58 61 61 52 52 42 45 45 35 39 32 32 29 23 29 26 29 26 16 16 13 10 10 10 13 13 13
0 0 0 0 0 0 0 0 3 16 35 39 42 48 55 58 74 74 71 58 58 68 61 55 58 58 45 45 39 45 35 39 39 35 32 32 29 29 26 26 23 19 16 10 10 10 10 10 10
0 0 0 0 0 0 0 0 3 10 29 35 45 55 55 58 68 68 71 65 65 68 61 55 52 52 48 45 39 39 29 32 29 26 35 29 26 23 19 16 10 10 6 6 6 6 6 3 3

GEFSSGP_con_cape1000_168.txt.gz
Probability
16 16 10 3 0 0 0 0 0 0 0 3 3 0 3 3 0 0 0 10 71 87 97 100 100 100 100 100 100 100 100 100 100 100 100 100 100 100 100 100 100 100 100 100 97 97 97 97 97
3 0 0 0 0 0 0 0 0 0 0 0 0 3 13 19 10 10 10 42 87 90 97 100 100 100 100 100 100 100 100 100 100 100 100 100 100 100 100 100 100 100 100 100 100 100 100 97 97
0 0 0 0 0 0 0 0 0 0 0 0 0 6 16 19 16 13 26 65 77 87 97 100 100 100 100 100 100 100 100 100 100 100 100 100 100 100 100 100 100 100 97 97 97 97 97 94 94
0 0 0 0 0 0 0 0 0 0 0 0 0 3 13 23 19 23 42 77 84 90 97 100 100 100 100 100 100 100 100 100 100 100 100 100 100 100 100 100 100 94 94 94 94 90 94 97 90
0 0 0 0 0 0 0 0 0 0 0 0 0 0 10 26 29 35 65 81 84 90 97 100 100 100 100 100 100 100 100 100 100 100 100 100 100 100 100 100 97 94 94 87 97 97 100 97 94
0 0 0 0 0 0 0 0 0 0 0 0 3 6 16 32 32 55 68 77 84 87 97 100 100 100 100 100 100 100 100 100 100 100 100 100 100 100 97 94 94 87 90 90 94 97 97 90 94
0 0 0 0 0 0 0 0 3 0 0 3 3 6 26 29 32 35 52 68 77 84 90 94 100 100 100 100 100 100 100 100 100 100 100 100 97 97 97 94 94 90 90 90 90 94 90 90 90
0 0 0 0 0 0 0 0 3 3 6 0 6 13 16 32 35 39 55 65 74 77 94 90 94 94 97 100 100 100 100 100 100 100 100 97 94 90 87 94 94 87 84 77 77 84 84 94 94
0 0 0 0 0 0 0 3 6 10 10 3 6 13 19 39 32 39 52 65 74 84 81 74 87 87 90 94 100 100 97 97 100 94 90 81 58 74 84 90 84 74 71 68 74 87 81 74 71
0 0 0 0 0 0 0 3 10 13 6 6 10 23 42 42 39 29 32 42 61 74 77 68 65 74 84 90 87 77 77 77 77 68 58 52 39 42 71 84 87 77 71 71 74 77 65 23 26
0 0 0 0 0 0 0 6 13 13 6 6 13 35 55 52 45 26 23 26 32 48 68 65 65 74 74 68 71 65 65 61 55 48 45 39 26 32 39 48 58 58 48 23 29 35 23 6 6
0 0 0 0 0 0 0 10 16 13 10 6 13 42 55 52 39 26 23 13 19 42 52 61 55 45 55 61 58 52 52 48 42 39 35 26 19 19 19 19 23 26 13 16 13 13 3 0 3
0 0 0 0 0 0 10 16 16 13 6 10 26 39 48 48 39 29 23 16 16 32 42 48 52 48 45 45 48 52 45 42 29 29 26 23 16 16 16 10 13 10 6 10 10 10 10 0 3
0 0 0 0 3 13 13 16 16 13 6 13 23 35 42 48 42 39 29 19 23 19 32 39 45 39 32 35 39 39 35 32 23 26 26 19 13 16 10 10 10 10 10 6 6 10 6 0 0
0 0 0 0 0 13 13 19 19 13 10 16 19 26 35 39 39 39 42 29 23 19 29 32 26 26 23 32 39 32 29 19 23 19 16 13 13 16 10 10 6 10 13 10 10 6 0 0 0
0 0 0 0 0 3 3 10 16 16 13 16 16 23 29 35 35 39 29 29 26 19 13 29 39 19 19 19 23 32 26 19 13 10 16 16 13 6 3 6 6 6 6 10 10 3 0 0 0
0 0 0 0 0 0 3 6 16 13 23 19 23 23 29 26 19 26 26 23 23 13 10 19 32 23 19 19 19 16 19 23 16 10 13 16 16 10 6 3 3 6 6 6 6 3 0 0 0
0 0 0 0 0 0 3 13 23 13 19 26 29 26 26 29 29 29 29 19 16 19 16 19 32 19 16 16 19 19 13 19 16 10 13 13 13 16 6 0 0 3 6 6 0 0 0 0 0
0 0 0 0 0 0 3 19 26 16 23 29 39 35 29 29 32 32 23 13 26 23 19 23 19 19 13 19 19 19 23 19 13 13 13 10 6 10 6 6 3 0 0 0 0 0 0 0 0
0 0 0 0 0 0 3 23 29 26 32 32 35 45 35 39 35 35 26 23 19 23 29 29 19 16 19 19 16 16 26 19 16 13 6 6 10 6 6 6 6 0 0 0 0 0 0 0 0
0 0 0 0 0 0 3 16 26 42 35 42 45 42 45 42 45 45 35 35 35 32 32 32 26 26 26 26 23 19 10 10 13 10 6 6 3 6 10 10 6 0 0 0 0 0 0 0 0
0 0 0 0 0 0 0 0 6 29 42 42 39 39 42 42 45 48 55 45 45 42 29 29 29 29 29 29 29 23 19 26 16 16 13 6 6 6 6 3 6 3 0 0 0 0 0 0 0
0 0 0 0 0 0 0 0 0 19 32 45 48 45 48 48 48 58 48 48 48 39 35 39 29 32 29 32 29 19 16 19 10 10 10 3 3 6 6 6 6 3 0 0 0 0 0 0 0
0 0 0 0 0 0 0 0 0 13 26 29 48 61 58 61 58 58 52 45 48 52 45 48 32 26 23 26 16 13 13 10 6 10 10 10 3 3 3 3 6 6 0 0 0 3 3 3 0
0 0 0 0 0 0 0 0 0 3 10 29 35 58 68 55 55 55 52 45 52 52 45 45 39 32 26 23 19 16 16 16 10 13 13 13 6 6 10 10 3 3 3 3 3 3 3 3 3
0 0 0 0 0 0 0 3 3 6 26 35 35 58 71 58 55 55 52 55 58 52 45 42 32 26 19 19 23 19 19 16 16 13 16 16 16 10 6 10 10 10 6 3 6 6 10 10 6
0 0 0 0 0 0 3 3 6 29 42 42 58 58 55 55 65 68 58 58 55 52 48 45 39 29 26 26 23 23 19 19 16 13 16 13 13 13 13 16 13 16 10 10 6 10 10 10 13
0 0 0 0 0 0 0 3 3 16 42 45 52 58 52 61 74 65 61 58 52 55 42 48 45 29 26 32 29 26 19 19 26 19 19 23 13 10 10 13 13 13 10 6 3 6 10 6 6
0 0 0 0 0 0 0 0 0 6 29 42 45 45 55 55 68 65 61 61 55 48 48 48 39 39 26 19 23 32 23 23 23 19 13 10 10 16 16 10 13 13 6 10 6 6 3 3 3
0 0 0 0 0 0 0 0 0 3 13 35 45 42 48 52 61 61 61 61 55 55 58 45 42 42 39 26 23 26 16 16 23 26 23 19 13 13 13 16 16 13 13 6 3 3 3 3 0

GEFSSGP_con_cape1000_174.txt.gz
Probability
29 32 35 35 13 0 0 0 0 0 0 0 0 0 0 0 0 3 0 0 13 26 71 87 97 100 97 97 97 97 97 97 97 97 100 100 100 100 94 97 97 97 94 97 90 87 87 87 87
19 26 29 16 0 0 0 0 0 0 0 0 0 0 3 6 10 10 13 13 26 48 71 87 100 100 100 100 100 100 100 100 97 97 100 100 100 97 97 94 100 97 97 94 97 97 87 84 84
19 26 19 0 0 0 0 0 0 0 0 0 3 3 0 0 3 10 19 26 32 55 84 100 100 100 100 100 100 100 100 100 100 100 100 100 100 97 100 100 100 100 100 94 94 94 94 94 90
19 13 3 0 0 0 0 0 0 0 0 0 3 0 6 6 3 13 29 35 35 61 77 97 97 97 100 100 100 100 100 100 100 100 100 100 100 100 100 100 97 97 97 94 90 90 87 87 87
10 0 0 0 0 0 0 0 0 0 3 0 3 3 19 26 16 26 35 32 35 52 65 90 97 97 97 97 100 100 100 100 100 97 100 100 100 100 97 97 94 94 94 94 94 94 90 90 90
3 0 0 0 0 0 0 0 0 3 3 3 0 3 26 52 35 26 23 26 29 45 55 90 100 100 100 100 100 100 100 100 100 97 100 97 100 97 97 100 87 94 87 94 94 84 87 90 81
0 0 0 0 0 0 0 0 3 6 6 3 3 3 19 45 48 39 39 35 32 35 55 81 87 94 100 100 97 100 100 100 100 97 97 100 94 90 90 90 90 90 94 94 90 87 87 87 87
0 0 0 0 0 0 0 0 0 6 6 6 3 3 19 58 58 55 52 45 42 42 52 71 74 81 81 81 100 100 100 100 97 100 97 90 94 90 90 90 94 84 87 87 81 84 87 87 77
0 0 0 0 0 0 0 6 10 6 6 19 16 10 29 58 58 52 52 48 58 55 68 68 77 84 81 81 94 97 94 94 94 97 94 90 71 61 74 77 81 71 77 81 81 81 84 74 61
0 0 0 0 0 0 0 3 13 13 13 23 26 42 55 65 52 45 42 42 48 55 58 81 68 84 87 87 94 94 84 94 94 94 90 81 77 61 58 87 77 81 84 81 74 58 58 42 52
0 0 0 0 0 0 0 6 10 10 6 19 32 55 65 65 48 39 42 39 45 48 58 77 77 77 90 90 81 90 81 94 90 87 84 87 68 58 52 71 74 81 65 61 65 48 26 19 55
0 0 0 0 0 0 0 6 10 13 16 23 29 58 68 65 52 39 32 42 42 55 55 55 77 87 84 87 77 81 77 68 68 84 74 71 65 61 61 71 61 61 65 65 42 52 35 35 39
0 0 0 0 0 0 6 10 10 19 19 19 39 61 68 68 61 55 42 55 52 55 58 52 77 90 87 90 84 74 90 58 61 71 71 65 58 52 45 68 71 45 45 52 61 45 48 52 32
0 0 0 0 0 3 10 16 16 19 19 26 48 65 65 68 65 65 68 68 71 68 61 68 77 87 87 90 87 87 81 84 68 58 58 58 61 68 55 68 74 45 52 48 55 52 48 42 39
0 0 0 0 0 6 3 19 16 29 32 39 55 68 65 71 71 84 81 81 77 77 74 77 74 81 81 77 81 81 68 68 65 61 61 58 55 65 58 55 74 52 55 68 65 55 48 42 29
0 0 0 0 0 0 3 6 23 42 35 42 58 71 77 90 87 87 87 87 81 81 81 81 61 71 81 81 81 74 74 74 68 65 71 68 65 68 77 58 52 68 61 55 58 61 35 42 45
0 0 0 0 0 0 0 6 32 42 39 45 61 77 90 97 94 90 94 97 94 87 84 81 81 81 74 77 81 74 81 77 74 68 71 77 71 68 68 65 68 68 52 52 39 35 39 45 45
0 0 0 0 3 3 3 16 23 45 48 55 61 81 90 94 97 94 90 97 90 90 90 87 87 90 87 81 84 84 77 77 74 74 74 77 71 68 71 65 68 52 52 58 65 61 65 61 61
0 0 0 0 3 3 3 16 26 35 45 52 68 81 90 94 90 90 94 97 90 90 84 90 90 90 90 81 81 81 84 84 81 77 74 77 71 74 71 55 81 87 68 71 42 58 45 52 52
0 0 0 0 3 3 10 13 29 35 45 45 55 71 84 90 90 94 97 94 97 97 90 90 90 90 87 87 84 84 84 84 81 77 77 77 68 71 65 74 65 84 84 81 68 68 55 45 45
0 0 0 0 0 3 10 16 32 42 48 48 58 65 71 74 90 100 100 100 97 100 94 90 97 90 87 87 87 81 81 77 74 77 87 77 71 74 81 77 71 77 65 65 77 77 68 52 48
0 0 0 3 0 0 0 3 29 32 58 65 55 61 68 71 81 90 100 94 97 97 90 87 94 94 90 87 87 84 87 81 77 94 77 87 81 77 81 77 77 68 65 71 71 45 61 61 58
0 0 3 0 0 0 0 0 6 19 45 61 74 74 71 74 77 87 84 90 90 97 94 94 94 90 87 90 87 94 84 84 74 74 77 81 74 77 74 74 74 77 71 74 65 74 74 65 55
0 3 0 0 0 0 0 0 3 10 32 48 71 74 87 84 87 94 90 94 94 94 90 90 90 90 90 87 84 84 77 81 74 84 74 68 71 71 65 68 74 74 68 77 74 77 71 71 65
0 0 0 0 0 0 0 0 3 13 32 48 61 77 90 90 94 94 87 90 97 100 90 87 90 84 84 84 84 84 84 84 87 77 74 74 52 65 74 65 74 74 74 74 74 74 71 68 65
0 0 0 0 0 0 0 0 6 19 35 48 74 81 81 90 87 84 87 90 90 84 77 87 84 81 81 81 81 81 81 71 71 81 65 68 61 52 65 65 68 71 71 61 68 55 55 58 55
0 0 0 0 0 0 0 0 10 39 45 61 71 81 81 81 90 84 84 87 90 84 84 77 81 81 84 81 84 81 74 71 61 71 71 68 68 48 52 55 61 61 61 65 71 58 55 48 48
0 0 0 0 0 0 0 0 0 23 35 71 74 81 84 90 90 84 84 84 87 87 84 81 81 84 77 77 74 68 68 68 65 65 71 65 65 55 55 52 52 48 55 58 58 42 48 48 52
0 0 0 0 0 0 0 0 0 13 32 52 74 84 90 87 87 87 84 87 87 87 87 87 87 87 77 71 68 74 65 65 65 61 68 68 61 52 45 45 45 45 52 48 52 39 39 32 29
0 0 0 0 0 0 0 0 6 16 16 48 71 77 84 90 87 84 87 87 87 87 87 87 84 84 77 71 71 71 61 55 61 61 65 61 58 52 45 45 48 42 45 45 45 39 26 26 26

GEFSSGP_con_cape1000_180.txt.gz
Probability
23 26 61 84 52 13 0 0 0 0 0 3 3 0 3 3 3 6 16 32 35 39 61 87 94 94 94 90 94 97 97 97 97 97 97 90 94 94 94 90 90 90 90 87 90 87 84 81 81
13 39 58 48 16 0 0 0 0 0 0 3 3 0 0 3 6 16 29 39 39 39 71 81 97 100 97 97 100 100 100 100 97 97 97 84 87 97 94 94 94 94 90 87 81 84 84 84 84
6 32 35 16 3 0 0 0 0 0 0 3 0 0 0 3 6 26 35 48 58 68 81 90 100 100 97 100 100 100 100 100 97 97 97 90 90 97 100 97 97 87 84 81 84 87 87 81 74
26 29 16 10 0 0 0 0 0 0 0 0 0 0 0 6 13 19 35 52 74 81 71 94 97 100 100 100 100 100 100 100 97 97 94 94 90 97 100 94 94 90 90 84 77 81 77 68 65
19 10 3 0 0 0 0 0 0 0 0 0 0 0 3 6 13 23 29 42 61 68 71 84 97 100 100 100 100 97 97 97 90 90 94 97 97 90 94 94 94 97 94 84 84 81 77 71 55
10 3 0 0 0 0 0 0 0 0 0 3 0 3 3 13 13 19 26 52 52 71 65 87 100 100 97 100 100 97 97 94 90 90 90 94 94 90 94 97 97 97 90 90 87 81 77 58 45
6 0 0 0 0 0 0 0 0 0 0 0 3 0 3 3 16 23 39 45 55 65 71 81 77 97 94 97 97 94 94 90 90 90 94 90 90 94 94 100 87 84 87 87 77 71 48 52 48
0 0 0 0 0 0 0 0 0 0 0 0 6 3 13 13 16 23 39 42 65 65 65 68 61 84 77 90 97 94 87 87 87 87 87 87 90 90 94 90 84 84 81 81 74 68 55 65 55
0 0 0 0 0 0 0 0 0 3 3 3 6 19 16 19 16 26 32 45 58 65 71 74 71 77 71 68 81 94 94 90 94 94 90 97 87 84 90 90 84 77 81 71 68 61 65 68 58
0 0 0 0 0 0 0 0 0 0 3 3 16 23 29 29 32 29 32 32 39 55 61 74 71 74 74 71 84 90 87 90 94 90 87 87 94 90 77 97 84 77 71 68 74 84 74 61 52
0 0 0 0 0 0 0 0 0 0 0 6 26 32 26 26 39 35 35 35 32 45 65 65 71 74 74 90 84 84 84 90 84 87 87 90 90 90 81 77 84 87 81 71 77 65 48 58 74
0 0 0 0 0 0 0 0 0 0 6 10 32 35 32 35 32 35 39 39 55 55 45 61 81 84 90 94 87 84 74 81 71 81 90 90 90 94 90 100 87 90 90 87 87 87 65 65 61
0 0 0 0 0 0 0 0 3 6 6 10 23 29 39 35 39 39 58 61 74 68 71 81 90 84 94 97 94 77 90 74 84 94 97 97 94 94 94 94 90 87 90 90 90 87 84 74 61
0 0 0 0 0 0 0 0 0 3 10 19 19 29 26 26 32 52 58 61 74 81 90 90 90 94 97 97 97 90 77 87 84 94 84 94 90 97 94 94 97 94 84 87 81 84 84 81 81
0 0 0 0 0 0 0 0 3 6 13 10 19 23 35 39 48 68 68 71 71 97 97 94 90 90 90 97 87 90 81 71 84 94 94 94 94 94 90 90 87 87 74 77 84 71 74 84 74
0 0 0 0 0 0 0 0 6 10 10 16 23 32 45 68 55 74 74 81 94 100 100 100 74 84 90 97 94 94 84 81 87 90 97 90 90 84 87 87 84 84 77 81 81 77 77 71 74
0 0 0 0 0 0 0 3 10 6 10 19 32 42 65 68 71 84 74 90 100 100 100 97 90 87 87 90 97 97 97 94 87 87 94 90 81 81 84 81 84 87 77 77 65 77 81 71 77
0 0 0 0 0 0 0 6 6 6 10 23 39 58 71 68 81 87 90 94 100 100 100 100 97 100 100 94 94 94 94 94 90 87 87 87 87 84 81 81 87 84 81 84 81 77 77 77 77
0 0 0 0 0 0 3 6 6 13 13 32 48 68 68 77 81 90 90 94 97 100 100 100 97 94 94 94 90 87 90 94 90 87 74 84 84 77 90 77 84 84 84 87 77 68 74 74 68
0 0 0 0 0 0 0 3 10 13 16 32 48 65 71 74 87 100 100 97 94 100 97 100 94 97 100 94 94 87 94 90 90 90 94 97 81 77 71 84 87 90 94 84 81 71 68 55 65
0 0 0 0 0 0 0 0 10 10 13 19 42 45 65 74 87 100 97 97 94 100 100 97 97 97 100 100 97 94 87 90 90 94 94 87 81 84 84 87 84 90 84 74 71 65 65 61 65
0 0 0 0 0 0 0 0 10 13 13 23 35 45 58 77 87 100 97 100 97 97 100 100 100 100 100 97 94 94 87 90 87 90 87 90 87 87 84 74 77 84 84 84 71 65 61 58 58
0 0 0 0 0 0 0 0 3 3 10 23 52 55 65 74 77 97 100 100 100 100 97 100 100 100 97 94 94 94 90 90 87 81 84 84 87 84 77 77 77 74 71 71 68 71 71 68 65
0 0 0 0 0 0 0 0 0 6 13 29 52 65 71 71 74 97 97 100 100 100 100 100 100 97 97 94 90 90 90 90 87 84 87 84 84 81 71 74 77 77 71 71 74 74 68 71 58
0 0 0 0 0 0 0 0 0 10 13 26 32 58 71 81 84 97 97 97 100 100 100 97 94 94 94 94 87 94 90 90 84 81 84 84 74 74 77 71 74 74 74 71 68 68 68 65 65
0 0 0 0 0 0 0 0 10 6 16 23 39 61 71 77 87 90 97 97 100 94 94 94 94 97 97 97 97 94 87 87 77 77 77 74 71 74 71 71 74 71 71 71 68 65 65 61 68
0 0 0 0 0 0 0 6 13 16 16 26 35 52 65 74 81 87 94 87 87 90 90 90 97 97 97 97 94 94 90 84 77 77 71 77 74 61 65 68 68 68 71 71 65 61 65 68 65
0 0 0 0 0 0 0 0 10 16 16 29 39 55 61 68 74 81 84 87 84 90 90 94 94 94 97 97 90 84 84 81 81 74 68 71 77 74 77 68 61 65 61 58 55 55 55 55 58
0 0 0 0 0 0 0 0 0 23 23 32 48 58 58 65 74 84 87 87 90 90 94 94 90 90 94 90 81 84 84 77 77 77 74 68 71 65 65 61 65 61 55 55 52 52 55 55 55
0 0 0 0 6 3 0 0 3 6 6 26 48 68 61 71 74 84 87 87 94 94 90 90 90 90 87 87 81 81 81 77 71 68 65 65 58 61 61 58 61 55 48 45 39 45 39 39 35

GEFSSGP_con_cape1000_186.txt.gz
Probability
32 23 26 35 16 0 0 0 0 0 0 3 3 0 0 3 0 3 3 19 61 77 87 90 94 94 97 97 97 97 97 97 94 94 94 94 94 97 94 94 90 90 90 90 94 90 90 84 84
13 16 19 26 6 0 0 0 0 0 0 3 3 6 10 23 23 23 13 42 58 74 84 90 97 97 97 97 97 97 97 97 97 94 94 94 97 97 97 97 97 90 87 87 87 84 84 81 84
0 3 10 10 3 0 0 0 0 0 0 0 3 3 16 19 29 23 23 45 52 68 87 94 97 97 97 97 97 97 97 97 94 90 97 97 100 97 97 94 90 87 90 84 81 74 71 77 81
3 3 0 0 0 0 0 0 0 0 0 0 3 10 16 26 32 35 32 42 55 81 84 100 100 100 100 100 97 97 97 97 94 94 100 100 100 100 97 97 94 84 84 81 74 74 65 61 55
0 0 3 0 0 0 0 0 0 0 0 3 3 6 16 23 35 29 32 39 55 74 77 100 100 100 100 100 97 97 100 90 90 94 100 100 100 97 100 97 94 90 84 81 71 68 71 61 55
0 0 0 0 0 0 0 0 0 0 3 3 3 3 6 23 32 32 39 42 52 71 84 100 100 100 100 100 100 90 94 94 94 97 100 100 100 100 100 100 97 94 87 77 68 65 58 61 48
0 3 0 0 0 0 0 0 0 0 3 3 3 3 10 26 42 45 35 35 52 65 81 94 97 100 100 100 100 100 94 97 97 94 97 100 97 97 94 97 94 84 84 68 71 58 55 58 58
3 3 0 0 0 0 0 0 0 0 0 3 3 3 10 26 39 45 45 35 42 68 68 81 81 77 87 87 100 100 100 97 97 94 87 97 90 90 90 94 94 81 74 68 58 61 55 61 61
0 0 0 0 0 0 0 0 0 0 0 0 0 3 13 29 45 39 35 35 42 48 55 58 55 52 55 58 87 87 87 87 84 84 90 77 48 45 81 87 87 77 74 68 61 65 61 61 61
0 0 0 0 0 0 0 0 0 0 3 0 10 10 19 26 39 39 39 32 35 42 45 52 45 42 42 55 52 58 68 58 55 55 55 39 32 29 58 87 87 84 84 71 71 74 77 52 16
0 0 0 0 0 0 0 0 0 0 3 3 6 13 19 23 26 29 35 35 35 39 39 39 39 39 39 39 42 42 42 35 45 39 35 23 16 23 39 45 55 61 58 32 45 52 29 19 6
0 0 0 0 0 0 0 0 0 3 6 10 6 10 13 16 16 23 23 26 32 35 35 39 39 35 35 32 42 42 35 26 29 32 32 19 10 10 16 16 16 16 16 10 6 10 6 0 3
0 0 0 0 0 0 0 3 3 3 6 10 6 10 13 10 10 16 19 19 29 42 45 45 42 42 39 39 39 39 35 32 29 19 23 16 16 6 10 10 10 10 6 3 6 3 0 0 3
0 0 0 0 0 0 0 3 3 6 6 6 10 19 13 10 13 13 23 19 29 42 52 52 39 48 48 39 39 35 35 29 26 26 23 19 19 16 13 10 6 6 10 3 3 0 0 0 0
0 0 0 0 0 0 0 6 3 3 6 3 13 13 13 13 13 16 23 19 26 39 48 55 48 39 48 42 42 39 32 29 32 35 26 26 16 10 6 13 10 10 6 3 3 3 0 0 0
0 0 0 0 0 0 0 0 10 3 3 3 13 16 10 13 13 16 26 29 32 39 39 55 68 48 48 45 45 39 29 16 26 19 10 23 19 10 6 10 16 13 10 3 0 0 0 0 0
0 0 0 0 0 0 0 3 6 10 6 6 13 19 19 16 16 16 32 39 48 45 48 48 58 58 52 48 45 39 35 32 26 10 13 16 19 13 10 13 10 13 6 3 6 0 0 0 0
0 0 0 0 0 0 0 3 6 6 3 10 19 23 19 26 23 23 39 52 45 45 45 42 55 55 55 52 45 39 32 29 26 19 23 19 26 23 16 19 13 10 6 3 6 0 0 0 0
0 0 0 0 0 0 0 3 0 0 3 16 19 23 23 29 35 48 48 65 61 52 45 58 61 52 48 52 52 39 32 26 29 23 23 23 26 19 16 23 16 13 6 3 3 3 0 0 0
0 0 0 0 0 0 0 6 3 3 3 19 26 29 39 35 48 52 58 68 65 52 48 55 58 52 58 52 48 39 32 32 32 29 32 26 26 23 32 16 13 13 10 3 3 6 6 0 0
0 0 0 0 0 0 0 6 6 6 6 16 19 32 39 48 52 61 71 74 71 65 61 58 58 55 55 55 55 45 39 35 32 32 32 26 23 23 26 16 16 6 6 10 6 10 6 10 3
0 0 0 0 0 0 0 0 6 6 13 23 26 32 42 52 52 58 68 74 77 71 68 61 58 55 58 55 52 48 39 35 26 26 29 29 26 32 39 26 16 16 13 13 6 10 10 10 10
0 0 0 0 0 0 0 0 3 3 16 26 26 32 35 48 58 61 68 77 77 77 77 65 65 58 58 58 52 48 35 29 26 29 29 29 23 32 35 39 35 29 16 16 6 10 6 10 10
0 0 0 0 0 0 0 0 0 3 16 23 29 35 48 61 65 71 74 84 87 90 84 81 71 61 61 58 55 42 35 23 26 26 35 29 23 23 32 32 35 35 26 19 19 10 10 13 6
0 0 0 0 0 0 0 0 0 0 10 16 32 42 55 61 58 71 81 77 84 84 84 81 68 71 65 65 61 48 39 35 32 32 32 29 23 26 26 29 32 32 26 26 23 10 10 10 6
0 0 0 0 0 0 0 0 3 10 6 19 29 52 55 65 71 74 77 77 81 77 77 71 65 61 61 61 61 52 45 39 35 32 35 29 29 32 26 26 19 26 23 26 16 16 13 10 6
0 0 0 0 0 0 0 3 6 10 16 23 35 48 55 68 74 74 68 71 74 71 71 71 68 68 71 65 65 52 45 52 48 39 32 29 26 32 29 29 29 26 23 23 19 16 16 10 6
0 0 0 0 0 0 0 0 6 10 16 23 35 48 61 65 74 74 71 71 71 68 71 74 74 74 81 65 68 61 55 45 45 35 32 29 26 26 23 23 26 23 23 16 16 16 6 6 3
0 0 0 0 0 0 0 0 3 13 19 23 29 48 68 65 68 68 68 71 74 71 77 84 84 71 71 68 65 58 52 55 39 32 26 29 26 23 26 23 23 16 13 13 10 13 6 6 3
0 0 0 0 0 0 0 0 0 10 16 26 42 42 45 52 65 68 71 71 77 77 77 81 81 81 81 68 65 48 48 42 39 32 29 29 29 26 23 16 16 16 13 13 10 10 6 3 6

GEFSSGP_con_cape1000_192.txt.gz
Probability
55 39 19 16 0 0 0 0 0 0 0 0 0 0 3 3 0 0 0 19 52 65 74 87 94 94 94 97 94 94 94 94 94 90 90 90 84 84 84 90 87 84 87 87 81 71 77 81 74
32 29 16 3 0 0 0 0 0 0 0 0 0 10 13 16 6 3 6 45 65 68 81 87 94 94 97 94 94 97 97 94 94 94 94 94 94 90 84 94 90 84 87 90 84 77 81 87 77
19 6 3 0 0 0 0 0 0 0 0 3 3 10 13 13 6 6 13 55 61 71 84 87 97 97 94 94 97 97 94 94 94 94 97 97 97 97 94 90 84 81 84 84 81 77 74 71 74
3 0 0 0 0 0 0 0 0 0 3 3 6 6 13 13 19 16 45 61 52 71 84 90 97 94 94 97 97 94 94 97 97 97 97 97 97 97 97 90 87 87 81 77 74 71 71 74 68
0 0 0 0 0 0 0 0 0 0 3 3 10 16 19 19 26 35 48 52 58 68 77 94 94 94 97 97 87 87 90 97 97 100 100 100 97 90 90 90 81 81 77 74 68 65 61 68 61
0 0 0 0 0 0 0 0 0 0 0 6 6 16 19 19 29 39 39 39 55 65 77 94 97 97 97 97 100 97 87 90 97 100 100 100 94 90 90 81 77 74 71 74 77 71 68 55 61
0 0 0 0 0 0 0 0 0 0 0 6 3 13 13 13 13 19 32 32 55 61 68 74 84 84 100 100 97 97 94 94 94 94 97 94 94 94 90 90 84 71 68 68 65 65 61 61 58
0 0 0 0 0 0 0 0 0 0 0 0 6 10 10 13 16 26 26 29 52 58 58 55 61 74 81 87 97 97 90 94 90 84 81 87 90 84 87 90 84 77 71 65 65 55 58 61 55
0 0 0 0 0 0 0 0 0 0 0 0 3 13 13 16 26 23 23 32 42 52 48 45 45 45 58 74 87 84 84 81 81 77 84 68 42 52 68 87 84 71 68 65 58 65 65 55 61
0 0 0 0 0 0 0 0 0 0 0 6 10 13 29 23 23 19 16 19 29 35 39 29 35 39 42 52 48 55 58 52 55 52 42 26 19 39 61 81 84 68 65 61 68 61 52 16 3
0 0 0 0 0 0 0 0 0 0 0 6 10 26 35 32 26 23 13 10 10 16 29 29 29 32 32 35 39 32 35 39 39 29 19 16 10 16 16 23 39 29 39 13 23 13 10 6 0
0 0 0 0 0 0 0 0 0 0 0 3 10 29 35 35 29 23 10 6 10 10 26 29 29 26 26 26 32 29 29 26 26 19 19 16 10 6 10 10 13 13 13 13 10 10 6 3 0
0 0 0 0 0 0 0 0 0 0 3 10 16 29 39 39 26 16 13 6 10 10 10 19 32 26 29 23 26 29 26 23 16 13 16 16 6 3 3 3 6 10 6 6 6 6 3 0 0
0 0 0 0 0 0 0 3 0 0 3 13 16 26 29 29 23 19 19 10 10 10 10 13 23 26 29 16 19 19 19 16 16 13 16 13 10 6 3 6 3 6 6 3 3 3 3 0 0
0 0 0 0 0 0 0 3 3 0 3 13 13 19 26 26 19 19 19 19 19 13 13 13 16 23 26 16 16 16 19 19 16 16 16 13 10 6 3 6 3 6 3 3 3 0 0 0 0
0 0 0 0 0 0 0 0 0 0 3 6 10 10 13 13 16 16 16 16 19 19 19 19 35 19 19 19 19 19 13 16 16 13 10 13 10 6 3 3 3 0 0 3 3 0 0 0 0
0 0 0 0 0 0 0 0 0 0 3 0 3 6 6 6 10 10 13 13 19 13 13 19 26 23 23 19 19 23 13 10 3 6 6 6 6 0 0 3 3 3 0 0 6 0 0 0 0
0 0 0 0 0 0 0 0 0 0 0 3 3 3 6 3 3 3 6 10 13 13 16 19 23 26 16 10 13 13 10 10 6 6 10 10 10 13 3 6 3 3 3 3 3 0 0 0 0
0 0 0 0 0 0 0 0 0 3 6 3 3 3 6 3 3 0 13 10 13 16 19 23 26 26 16 19 16 16 19 13 10 13 10 13 10 10 10 6 3 3 3 3 3 3 3 0 0
0 0 0 0 0 0 0 0 0 3 6 3 3 10 6 6 6 13 19 16 19 13 19 23 26 23 19 16 16 10 13 13 13 10 13 13 16 13 19 13 6 3 3 3 3 3 3 0 0
0 0 0 0 0 0 0 0 0 3 3 6 6 10 10 10 6 13 23 23 23 23 16 23 19 23 19 19 16 16 19 13 13 10 10 10 16 16 16 13 10 6 3 3 3 3 0 0 0
0 0 0 0 0 0 0 0 0 0 3 3 13 10 10 10 16 23 23 23 23 26 19 16 10 16 16 19 26 23 23 23 16 13 13 10 19 13 16 13 10 6 6 0 0 0 0 0 3
0 0 0 0 0 0 0 0 0 0 6 13 10 16 13 16 23 26 29 26 26 35 29 23 13 26 29 23 29 23 19 16 16 6 10 10 16 13 10 23 16 10 6 6 3 3 3 3 3
0 0 0 0 0 0 0 0 0 0 6 10 13 19 19 16 26 29 29 29 32 32 35 32 19 29 32 29 29 23 19 19 19 13 10 13 13 13 10 19 16 13 10 13 6 3 6 3 3
0 0 0 0 0 0 0 0 0 0 3 6 10 13 19 23 29 32 32 29 29 48 39 39 29 32 35 35 35 32 26 23 19 19 19 16 13 13 13 16 19 19 19 19 10 6 6 3 3
0 0 0 0 0 0 0 0 0 0 3 6 13 23 32 29 29 35 39 39 29 39 39 42 42 35 39 39 35 39 32 26 19 23 23 19 16 16 16 19 23 23 19 19 6 6 3 3 3
0 0 0 0 0 0 0 0 0 6 13 19 23 35 42 42 39 42 45 45 42 45 45 45 48 42 39 45 39 35 39 32 32 23 19 19 19 19 16 16 16 13 13 13 6 10 3 3 3
0 0 0 0 0 0 0 0 0 0 10 26 26 39 35 42 45 42 42 42 42 42 52 52 52 58 45 48 42 42 32 32 23 19 16 16 19 16 13 13 13 13 13 10 10 6 6 0 0
0 0 0 0 0 0 0 0 0 3 6 26 26 35 32 39 35 35 42 52 42 48 52 55 55 48 45 48 42 35 32 23 19 23 26 19 16 16 13 10 13 13 13 6 3 6 3 3 3
0 0 0 0 0 0 0 0 3 3 0 16 26 32 35 32 42 45 45 48 45 55 55 58 58 58 55 45 45 32 29 26 26 29 26 23 16 13 13 13 10 10 10 3 6 6 6 3 3

GEFSSGP_con_cape1000_198.txt.gz
Probability
65 58 48 42 10 0 0 0 0 0 0 3 3 0 0 0 3 13 16 10 23 29 42 71 94 94 94 90 90 84 84 84 84 84 87 81 81 81 81 77 77 77 81 81 68 65 77 77 74
52 48 39 19 0 0 0 0 0 0 0 0 3 10 10 13 13 19 16 19 23 26 39 71 94 94 94 94 94 94 87 84 87 87 90 90 84 84 84 81 81 81 77 74 71 68 71 71 77
45 29 16 3 0 0 0 0 0 0 0 0 0 6 10 13 13 13 19 19 29 39 55 81 94 94 94 97 97 94 90 87 87 90 90 90 84 84 81 77 77 81 84 74 74 74 77 74 71
32 13 3 0 0 0 0 0 0 0 0 0 0 0 6 10 10 13 23 19 29 39 45 84 94 94 94 94 90 94 90 87 84 84 87 87 90 81 77 71 77 74 77 71 71 74 71 71 68
10 0 0 0 0 0 0 0 0 0 0 0 0 3 10 19 16 10 19 16 19 39 48 68 94 94 90 94 90 90 90 87 81 81 87 87 90 77 68 68 68 71 74 77 71 71 68 55 45
3 0 0 0 0 0 0 0 0 0 0 0 0 3 10 29 16 19 16 16 19 35 48 65 97 94 87 94 90 90 90 90 84 81 77 71 77 74 77 71 74 71 61 71 61 61 65 55 48
3 0 0 0 0 0 0 0 0 0 0 0 0 0 13 23 23 13 13 19 26 32 52 48 52 77 90 90 90 90 94 90 87 87 74 71 71 74 68 71 77 68 65 58 61 61 58 48 39
3 0 0 0 0 0 0 0 0 0 0 0 0 0 10 29 26 16 10 26 35 39 42 45 52 61 71 77 84 94 90 90 90 90 77 77 81 74 65 65 71 65 65 65 55 52 52 48 52
0 0 0 0 0 0 0 0 3 0 0 0 0 3 13 32 26 26 26 32 42 35 42 42 52 61 55 55 71 81 87 87 81 81 74 71 65 42 52 52 71 61 58 45 48 61 45 48 32
0 0 0 0 0 0 0 0 3 0 0 3 10 23 29 32 29 23 23 19 26 39 39 48 42 48 52 39 74 81 71 81 77 74 71 81 71 58 32 65 71 65 65 61 68 55 39 26 19
0 0 0 0 0 0 0 0 0 0 0 3 10 29 32 32 26 19 16 13 13 26 39 42 42 52 48 61 61 68 74 74 74 77 74 84 61 48 45 58 77 81 61 48 61 35 19 13 13
0 0 0 0 0 0 0 0 0 0 3 0 6 23 32 32 29 23 19 23 23 32 39 42 55 58 65 52 58 52 58 65 74 81 81 71 74 61 61 71 58 55 52 61 52 68 35 39 32
0 0 0 0 0 0 0 0 0 0 3 3 10 23 29 42 42 35 35 35 45 42 39 45 58 74 81 87 65 45 48 55 71 77 81 77 65 65 58 74 71 52 45 55 68 52 35 35 35
0 0 0 0 0 0 0 0 0 6 6 10 16 23 29 32 39 42 48 45 48 58 61 71 71 87 94 87 84 68 61 87 71 71 68 77 71 71 52 77 74 58 48 48 52 39 55 42 29
0 0 0 0 0 0 0 0 3 10 6 13 19 29 29 42 55 52 52 55 55 71 74 77 77 74 94 74 61 55 65 55 65 77 81 77 71 87 74 61 71 65 68 71 65 48 48 55 35
0 0 0 0 0 0 0 0 3 13 16 16 19 23 48 58 58 58 58 61 65 77 84 90 61 77 87 81 74 61 68 74 71 71 74 74 81 77 84 68 61 81 61 65 65 71 58 45 45
0 0 0 0 0 0 0 0 10 19 16 19 19 19 42 55 55 61 61 68 81 94 97 94 81 84 87 81 84 65 71 68 71 61 68 71 71 74 77 77 81 81 68 65 55 48 55 58 45
0 0 0 0 0 0 0 0 13 19 16 19 26 29 39 42 55 58 68 74 87 94 97 97 97 94 90 87 87 74 74 65 61 65 74 71 71 65 71 71 81 74 68 71 77 74 77 74 68
0 0 0 0 0 0 0 3 13 19 16 16 29 29 35 39 35 58 74 77 84 94 97 97 97 100 94 81 81 81 77 77 61 61 65 68 65 65 71 52 68 74 71 65 58 55 58 61 65
0 0 0 0 0 0 0 3 10 19 19 16 19 29 32 39 45 58 84 84 87 94 97 97 97 97 94 90 90 90 81 71 71 71 71 61 65 65 55 65 52 61 74 74 71 68 58 48 48
0 0 0 0 0 0 0 3 10 16 16 26 29 32 29 35 48 65 77 87 87 97 97 94 97 97 97 94 87 84 87 74 65 65 71 68 68 65 58 61 58 58 55 74 71 61 55 48 45
0 0 0 0 0 0 0 0 10 16 23 32 42 45 42 42 52 61 81 87 87 90 97 97 97 97 97 97 87 71 81 71 77 77 74 71 65 65 58 61 58 58 55 61 55 52 61 58 48
0 0 0 0 0 0 0 0 0 13 23 42 39 52 48 55 58 58 71 90 84 87 97 97 97 97 94 94 94 94 71 74 65 65 68 68 68 61 58 58 61 55 55 52 52 55 55 55 45
0 0 0 0 0 0 0 0 0 6 19 29 42 58 58 58 61 61 71 84 87 84 94 97 97 97 94 94 94 94 94 90 77 81 65 61 65 71 55 58 61 61 61 58 55 55 55 65 52
0 0 0 0 0 0 0 0 0 10 6 16 26 52 55 58 65 71 77 84 90 94 90 97 97 97 97 97 97 97 90 90 87 84 77 74 58 61 68 55 55 61 65 65 65 52 52 58 55
0 0 0 0 0 0 0 0 3 10 6 19 32 48 65 65 65 77 81 90 94 94 97 97 97 94 94 94 97 97 90 81 77 81 74 77 61 52 61 58 61 61 61 48 52 52 45 45 42
0 0 0 0 0 0 0 0 3 16 19 26 45 55 65 61 65 71 81 87 90 90 94 94 90 90 94 94 97 97 90 84 74 84 81 77 81 58 58 61 58 61 58 61 61 58 52 52 35
0 0 0 0 0 0 0 0 0 13 29 35 48 58 61 61 65 68 68 77 90 87 87 90 90 90 90 90 90 87 87 87 87 81 81 74 71 68 68 61 55 52 55 58 65 58 55 55 52
0 0 0 0 0 0 0 0 10 16 29 39 39 52 55 58 58 61 61 71 74 87 87 84 84 87 90 90 90 90 84 81 87 84 77 77 74 65 68 68 58 52 52 52 52 42 42 39 32
0 0 0 0 0 0 0 0 3 13 13 35 45 48 48 55 61 71 71 65 71 74 81 77 81 84 87 87 90 87 84 81 84 77 81 71 71 61 61 58 55 48 45 42 39 42 35 39 42

GEFSSGP_con_cape1000_204.txt.gz
Probability
39 42 71 90 55 16 0 0 0 0 0 0 0 3 10 6 6 6 19 32 39 39 55 81 90 87 84 84 84 81 81 81 77 74 74 71 74 77 77 77 74 68 65 71 71 77 74 71 74
42 68 71 55 23 0 0 0 0 0 0 0 0 3 10 10 10 16 19 29 39 42 52 74 94 90 87 84 87 84 84 77 77 77 71 74 81 77 81 77 77 71 68 65 71 74 74 77 65
45 65 52 26 0 0 0 0 0 0 0 0 0 3 6 13 16 16 19 35 45 55 65 94 94 94 90 90 84 87 77 77 74 77 74 74 74 71 68 74 77 74 65 71 68 68 68 65 55
52 48 32 6 0 0 0 0 0 0 0 0 0 3 10 13 16 19 26 32 48 58 58 81 94 94 94 90 87 84 84 74 68 74 77 81 81 71 77 74 77 74 74 65 68 61 65 58 45
55 26 6 0 0 0 0 0 0 0 0 0 0 6 6 13 13 13 19 32 35 42 42 68 94 94 90 90 84 77 71 74 74 71 71 77 74 68 71 77 71 71 74 71 68 65 61 48 42
13 6 0 0 0 0 0 0 0 0 0 0 3 6 6 6 10 13 23 29 42 48 48 84 94 90 87 90 84 81 77 74 71 71 71 68 74 74 71 71 68 65 68 68 68 55 45 39 32
0 0 0 0 0 0 0 0 0 0 0 0 3 3 6 3 6 16 19 23 39 42 48 68 68 84 94 87 84 84 77 74 68 65 61 58 65 77 71 65 68 65 65 55 42 45 45 29 16
0 3 0 0 0 0 0 0 0 0 0 0 0 0 10 6 3 10 16 29 35 42 48 68 65 77 77 81 90 87 81 77 71 65 55 58 65 71 74 74 65 58 58 52 42 42 35 35 32
3 0 0 0 0 0 0 0 0 0 0 0 0 6 10 10 3 6 26 29 32 45 48 55 55 71 68 68 77 90 84 81 77 74 74 71 71 68 74 65 71 55 48 39 35 42 32 32 35
0 0 0 0 0 0 0 0 0 0 0 3 3 10 6 10 6 6 23 29 32 45 48 58 52 58 58 58 84 90 84 84 87 87 77 84 84 84 58 77 77 68 55 42 52 58 39 29 23
0 0 0 0 0 0 0 0 0 0 0 3 6 6 6 6 10 13 16 23 29 45 55 45 52 68 68 81 81 84 84 84 81 84 77 77 77 77 68 77 84 87 65 55 58 58 29 29 32
0 0 0 0 0 0 0 0 0 0 0 3 6 6 6 10 10 10 19 23 32 45 55 58 68 81 90 84 84 84 74 74 74 81 77 81 81 81 74 81 81 74 81 84 71 74 68 52 48
0 0 0 0 0 0 0 0 0 0 0 3 3 6 3 6 13 10 23 42 48 48 52 77 87 90 87 97 94 74 84 77 77 84 84 81 84 81 84 84 87 81 87 90 87 74 71 61 61
0 0 0 0 0 0 0 0 0 0 0 3 3 6 3 13 13 19 32 42 61 74 81 84 84 97 94 87 90 87 87 97 87 90 87 87 87 84 87 90 87 94 87 97 94 84 81 68 65
0 0 0 0 0 0 0 0 0 0 3 3 3 3 6 13 16 26 39 55 65 81 81 87 87 90 100 87 90 84 84 84 87 94 87 84 87 87 90 90 94 97 97 90 90 87 77 81 68
0 0 0 0 0 0 0 0 0 0 3 3 6 6 13 23 13 32 39 58 81 87 97 97 74 90 100 94 94 87 90 90 94 94 94 97 90 87 87 87 87 94 90 90 94 87 81 81 81
0 0 0 0 0 0 0 0 3 0 6 6 6 13 19 32 23 35 52 61 87 100 100 100 97 100 97 94 94 94 94 97 94 94 94 94 87 90 90 90 87 87 97 94 74 84 90 84 84
0 0 0 0 0 0 0 0 3 0 6 6 10 13 29 32 45 42 65 74 97 100 100 100 100 100 100 97 90 90 94 90 94 90 94 84 81 90 90 94 94 94 94 90 87 87 90 90 81
0 0 0 0 0 0 0 0 0 0 10 16 23 26 39 52 52 71 68 81 90 100 100 100 100 100 100 100 94 94 87 90 90 90 84 84 74 74 87 87 90 84 87 84 81 87 84 77 74
0 0 0 0 0 0 0 0 0 3 6 19 26 39 39 42 68 84 84 84 90 97 97 97 97 97 100 100 100 97 94 90 87 87 87 84 77 77 61 84 87 90 90 81 81 81 84 74 65
0 0 0 0 0 0 0 0 3 10 13 19 26 35 39 48 71 84 87 90 90 94 97 97 97 97 97 97 97 94 94 94 90 84 81 81 74 77 74 81 77 81 77 74 81 81 77 74 68
0 0 0 0 0 0 0 0 3 16 19 13 23 32 39 45 65 84 84 87 90 94 94 97 97 97 97 97 97 94 94 90 90 90 84 84 81 77 71 74 74 74 81 77 74 74 74 71 65
0 0 0 0 0 0 0 0 0 10 19 26 23 23 35 45 58 81 81 87 87 94 94 97 97 97 97 97 97 97 97 94 94 81 84 81 77 74 71 77 77 71 74 74 74 68 71 71 65
0 0 0 0 0 0 0 0 0 0 16 23 23 35 52 39 55 77 77 94 94 94 94 97 97 97 97 97 97 97 97 97 94 90 87 84 77 81 68 74 77 81 77 77 74 74 68 71 65
0 0 0 0 0 0 0 0 3 3 0 0 26 39 55 58 65 77 81 90 94 97 97 97 97 97 97 97 97 97 97 97 97 94 87 81 81 77 81 74 77 74 68 68 71 65 61 61 58
0 0 0 0 0 0 0 0 6 6 6 10 16 32 55 55 58 68 84 90 94 94 97 97 97 97 97 97 97 97 97 97 94 94 90 87 84 81 81 81 74 71 65 61 71 65 65 61 61
0 0 0 0 0 0 0 3 6 10 13 10 19 29 42 55 61 68 81 90 94 94 94 97 97 94 94 94 97 97 97 97 94 94 90 84 87 77 77 74 68 71 65 68 65 65 61 65 61
0 0 0 0 10 0 0 0 16 13 13 16 19 29 45 61 58 68 68 74 87 90 84 87 87 94 94 90 90 90 94 94 90 94 90 84 84 81 71 71 71 68 68 65 68 61 61 61 55
0 0 0 0 0 0 0 3 10 19 16 19 13 29 42 45 55 61 68 71 71 81 81 81 87 84 84 87 84 87 87 87 87 87 87 84 81 81 74 71 68 68 71 61 58 48 52 48 48
0 0 0 0 13 3 0 3 6 10 13 16 26 39 42 58 65 61 71 71 68 74 81 81 84 84 81 87 87 87 87 84 84 84 84 84 81 74 74 68 68 65 61 58 55 52 52 42 42

GEFSSGP_con_cape1000_210.txt.gz
Probability
77 55 29 45 13 0 0 0 0 0 0 0 0 0 3 0 0 3 3 3 35 52 65 77 87 90 84 77 77 84 87 84 84 77 77 81 77 74 81 71 77 74 74 84 81 77 71 71 74
39 32 52 32 13 0 0 0 0 0 3 0 0 3 3 16 19 13 10 19 39 45 55 77 90 90 87 84 81 81 84 84 84 77 77 77 77 71 71 68 68 74 74 77 81 77 74 65 61
10 39 45 26 3 0 0 0 0 0 0 3 3 6 10 16 19 19 10 26 32 48 65 84 87 94 87 87 81 81 84 84 84 81 77 74 71 71 74 65 65 74 74 77 77 68 61 58 55
26 32 19 6 0 0 0 0 0 0 0 3 3 10 13 16 16 19 19 29 35 42 68 90 97 94 90 87 81 84 84 84 81 81 81 71 68 71 77 71 71 74 74 74 58 52 52 48 42
23 10 3 0 0 0 0 0 0 0 0 3 3 13 13 13 23 16 19 26 29 45 68 87 97 97 94 87 84 84 84 84 81 81 81 71 77 81 81 81 81 74 77 71 55 52 42 39 42
10 0 0 0 0 0 0 0 0 0 0 0 3 6 10 10 16 16 26 26 26 45 65 87 94 90 90 90 90 87 77 84 84 81 77 77 81 84 84 81 81 74 71 65 58 42 39 48 35
3 0 0 0 0 0 0 0 0 0 3 0 0 3 3 6 19 19 19 23 19 39 55 68 77 87 90 94 94 90 87 84 84 87 81 77 77 84 84 84 84 71 65 61 45 35 29 26 29
0 0 0 0 0 0 0 0 0 0 0 0 3 3 3 6 13 19 16 16 23 26 48 52 61 68 68 74 90 87 87 81 84 84 81 84 81 81 81 84 84 74 61 48 42 29 16 29 39
0 0 0 0 0 0 0 0 0 0 0 3 6 3 3 6 13 16 16 23 26 23 29 32 48 45 48 61 77 84 77 77 81 84 84 65 55 48 58 68 77 65 55 42 39 32 35 42 45
0 0 0 0 0 0 0 0 0 3 3 6 3 3 10 6 13 16 19 16 19 23 19 26 29 32 32 48 45 45 48 52 55 48 52 35 23 26 42 61 81 61 55 45 52 52 58 39 3
0 0 0 0 0 0 0 0 0 3 3 3 3 3 13 10 6 10 13 16 26 23 26 23 26 29 29 29 29 29 26 26 29 35 32 23 13 10 26 29 52 48 39 13 19 39 16 6 0
0 0 0 0 0 0 0 0 0 0 3 3 3 3 3 0 6 6 6 6 10 16 23 13 16 19 19 23 26 26 26 26 26 19 19 16 10 6 10 10 6 10 10 10 6 10 3 0 0
0 0 0 0 0 0 0 0 0 3 3 0 3 3 3 0 3 3 6 10 6 10 19 19 16 19 19 23 29 29 29 29 26 23 19 19 13 6 6 3 3 6 6 3 3 6 0 0 0
0 0 0 0 0 0 0 0 3 3 0 0 0 0 0 0 0 3 10 10 10 16 16 16 16 23 26 29 29 29 29 26 29 26 19 19 13 13 13 3 6 6 3 3 3 3 3 3 3
0 0 0 0 0 0 0 0 3 0 0 0 0 3 3 0 0 3 6 6 10 16 19 26 29 32 29 32 35 29 29 26 29 32 29 29 23 13 13 6 13 13 6 6 3 0 0 0 0
0 0 0 0 0 0 0 0 3 0 0 3 0 0 0 0 0 3 6 6 10 19 19 29 42 29 35 35 32 35 35 35 26 29 26 23 26 16 13 10 13 10 10 6 0 0 0 0 0
0 0 0 0 0 0 0 0 3 0 0 3 3 0 0 0 0 6 16 10 13 16 16 26 35 35 35 35 32 35 32 32 26 29 29 23 29 23 10 13 10 10 10 6 6 6 6 3 0
0 0 0 0 0 0 0 0 3 3 0 3 3 3 0 3 3 6 16 13 13 16 13 29 35 35 39 29 32 35 32 29 32 35 29 26 26 29 19 13 16 13 6 10 3 6 6 3 3
0 0 0 0 0 0 0 0 3 3 6 3 3 3 3 3 10 10 16 29 39 35 26 39 42 42 45 39 35 35 32 32 35 35 32 35 32 23 19 19 19 10 13 6 0 0 3 3 0
0 0 0 0 0 0 0 0 0 6 13 10 10 10 10 3 16 26 35 39 55 61 42 42 48 48 48 45 35 35 42 32 29 32 29 35 32 29 29 19 23 16 10 10 6 6 10 13 10
0 0 0 0 0 0 0 0 10 13 10 10 16 16 13 6 23 35 42 45 65 65 55 65 52 48 58 45 45 35 29 29 35 32 35 32 35 32 26 26 19 26 23 13 16 10 13 13 3
0 0 0 0 0 0 0 0 3 6 6 10 13 16 16 13 16 19 35 45 65 71 77 68 61 55 52 52 39 32 32 32 29 29 32 32 35 32 29 29 26 23 16 19 23 16 10 10 3
0 0 0 0 0 0 0 0 3 3 0 6 10 23 23 13 13 32 35 48 55 65 77 81 74 74 65 52 48 35 29 26 32 32 29 26 26 29 39 42 26 29 32 29 26 26 19 6 3
0 0 0 0 0 0 0 0 0 3 0 6 13 19 26 23 29 32 39 45 61 74 84 81 81 81 74 61 52 45 39 42 39 35 29 29 29 29 39 35 26 29 35 29 26 29 29 10 6
0 0 0 0 0 0 0 0 0 0 0 3 10 13 16 23 26 32 35 48 68 77 84 84 81 77 71 61 55 48 52 52 48 39 29 35 35 35 35 39 32 32 32 32 29 23 26 19 13
0 0 0 0 0 0 0 0 0 0 0 3 10 13 19 23 23 29 32 45 61 74 77 77 77 81 77 71 58 55 52 52 45 35 29 32 35 42 39 35 35 32 35 35 32 32 29 26 23
0 0 0 0 0 0 0 0 3 3 6 16 19 19 23 35 29 32 35 52 61 68 71 74 71 71 68 71 61 65 52 48 45 48 45 45 42 35 39 39 35 35 39 39 32 29 26 26 19
0 0 0 0 0 0 0 0 3 0 10 19 23 26 23 26 29 32 42 48 52 52 58 65 71 74 71 68 65 52 48 52 52 48 48 45 42 35 35 35 29 39 39 35 35 32 26 23 19
0 0 0 0 0 0 0 0 0 3 6 19 26 19 29 29 23 42 48 48 45 48 55 65 68 71 74 71 61 52 55 52 52 45 48 48 42 39 35 32 32 35 35 32 32 32 32 26 23
0 0 0 0 0 0 0 0 3 0 10 16 23 26 29 32 29 29 29 35 45 55 55 58 61 68 71 71 65 58 58 58 55 55 45 39 35 39 39 42 35 39 32 29 29 29 29 26 26

GEFSSGP_con_cape1000_216.txt.gz
Probability
71 42 23 10 0 0 0 0 0 0 0 0 0 0 0 0 0 0 0 6 23 39 48 65 71 74 77 81 77 77 77 74 74 74 71 77 74 68 61 58 77 74 77 81 77 77 74 77 65
42 26 10 6 0 0 0 0 0 0 0 0 0 3 6 10 3 0 0 23 35 39 42 65 71 77 87 84 77 77 74 71 74 68 74 74 71 68 61 58 71 68 71 77 74 65 71 71 65
23 19 10 3 0 0 0 0 0 0 0 0 0 3 3 10 10 3 6 19 32 35 45 65 77 84 87 84 81 81 77 81 77 68 68 68 68 68 68 68 74 81 74 71 71 58 61 65 68
13 13 6 0 0 0 0 0 0 0 0 0 0 3 3 10 10 13 10 26 29 35 52 68 84 87 84 81 81 84 81 77 71 74 68 68 68 61 68 65 74 77 68 68 65 55 48 48 52
10 3 0 0 0 0 0 0 0 0 0 3 0 3 3 13 13 13 19 29 32 35 45 71 84 81 81 81 81 77 77 77 77 77 71 71 71 71 71 71 71 77 71 68 58 52 52 48 55
0 0 0 0 0 0 0 0 0 0 0 0 0 3 3 6 10 13 23 23 29 29 55 68 81 77 81 84 77 81 84 81 77 74 77 77 81 84 74 77 68 65 71 61 55 39 35 39 48
0 0 0 0 0 0 0 0 0 0 0 0 0 3 3 3 3 10 13 16 23 29 45 52 65 71 81 84 81 81 81 81 77 74 77 84 81 81 84 84 71 61 58 58 39 32 32 42 39
0 0 0 0 0 0 0 0 0 0 0 0 0 3 3 3 3 10 10 16 23 32 35 42 45 55 65 77 87 84 84 84 77 77 77 84 84 84 87 84 77 55 55 52 39 39 42 39 45
0 0 0 0 0 0 0 0 0 0 0 0 0 3 3 3 6 10 10 16 19 26 29 29 35 32 39 58 77 71 68 74 77 71 77 65 45 48 61 68 81 68 65 48 48 35 35 42 55
0 0 0 0 0 0 0 0 0 0 0 0 0 3 3 6 6 6 6 6 13 19 32 26 29 29 35 42 35 32 39 35 39 39 39 32 26 26 45 61 71 65 58 48 48 42 48 32 19
0 0 0 0 0 0 0 0 0 0 0 0 0 6 13 13 6 6 6 0 6 10 23 26 26 26 26 29 29 29 29 29 29 32 29 19 23 16 23 26 35 16 26 13 19 19 10 6 0
0 0 0 0 0 0 0 0 0 0 0 0 0 10 13 13 10 6 6 0 0 6 16 16 26 26 26 26 26 19 23 23 23 16 19 10 10 10 6 13 10 6 6 3 3 6 3 3 0
0 0 0 0 0 0 0 0 0 0 0 0 0 13 13 13 10 10 6 3 0 6 10 16 19 19 19 19 19 23 16 16 13 10 13 6 6 6 6 6 6 6 6 3 0 0 3 0 0
0 0 0 0 0 0 0 0 0 0 0 0 3 6 13 10 10 10 6 0 0 0 0 6 13 13 10 13 16 13 6 6 10 13 13 10 6 6 6 6 6 10 10 3 0 0 0 0 0
0 0 0 0 0 0 0 0 0 0 0 0 0 3 6 6 3 3 3 0 0 0 0 3 13 13 6 13 16 13 6 13 10 13 16 10 6 3 3 3 3 3 0 0 0 0 0 0 0
0 0 0 0 0 0 0 0 0 0 0 0 3 3 10 6 6 3 6 3 0 0 0 3 13 10 13 13 13 10 10 13 13 13 16 10 10 6 3 6 10 0 0 0 0 0 0 0 0
0 0 0 0 0 0 0 0 0 0 0 0 3 3 6 3 3 6 6 6 3 3 6 3 6 13 13 13 10 10 13 13 13 13 16 16 16 16 10 10 10 3 3 3 3 3 3 0 0
0 0 0 0 0 0 0 0 0 0 0 0 0 3 3 3 3 6 6 6 6 3 3 6 10 13 10 10 6 16 16 13 13 16 23 19 16 19 13 13 6 6 6 3 0 3 0 0 6
0 0 0 0 0 3 3 3 0 0 0 3 3 3 0 0 0 3 6 6 6 6 13 13 13 10 10 13 13 19 16 16 13 19 19 16 16 19 13 6 0 0 3 0 3 3 0 6 3
0 0 0 0 0 3 0 0 3 3 3 0 0 0 0 0 0 0 3 3 3 0 10 10 10 10 10 16 19 19 19 16 16 16 16 23 19 16 16 6 3 0 0 3 3 0 0 6 0
0 0 0 0 0 0 0 0 3 3 3 0 0 0 0 3 3 6 3 3 3 6 6 10 6 13 16 19 16 16 13 19 23 16 13 10 13 16 13 13 6 3 0 3 3 0 6 6 0
0 0 0 0 0 0 0 0 3 3 3 3 3 3 3 3 6 6 10 10 6 10 13 10 13 16 19 19 19 19 19 23 23 19 19 16 13 13 23 16 10 3 10 10 6 6 6 6 6
0 0 0 0 0 0 0 0 0 3 6 6 6 6 6 6 6 6 10 10 16 16 13 13 16 19 23 23 16 19 19 16 16 16 16 19 13 16 23 23 16 13 10 6 6 10 6 10 3
0 0 0 0 0 0 0 0 0 0 0 3 6 13 13 10 6 6 6 13 23 32 29 29 23 29 26 23 16 19 19 16 16 19 23 23 23 26 26 29 26 19 16 16 10 13 6 6 3
0 0 0 0 0 0 0 0 0 0 0 0 6 6 13 6 10 6 16 29 32 35 35 35 39 32 35 26 23 19 13 16 16 16 19 23 26 26 26 32 29 26 13 13 13 10 13 10 6
0 0 0 0 0 0 0 0 0 0 0 0 10 16 23 16 13 13 26 32 32 29 39 35 39 39 39 29 29 29 19 16 16 16 19 23 26 26 26 29 29 26 23 26 23 13 16 10 10
0 0 0 0 0 0 0 0 0 3 3 3 6 23 23 16 13 16 23 23 26 32 39 35 39 35 39 35 35 26 23 23 23 19 19 16 16 16 26 32 32 29 29 29 23 19 26 26 29
0 0 0 0 0 0 0 0 0 3 3 3 6 23 26 26 13 13 26 26 26 32 42 48 45 39 35 35 35 35 23 26 23 16 13 16 16 19 26 29 35 32 29 35 29 29 26 26 19
0 0 0 0 0 0 0 0 0 0 3 6 6 19 26 26 19 19 16 16 23 29 32 45 52 42 42 32 26 35 32 32 23 19 19 16 19 23 29 29 26 26 26 29 29 29 29 23 23
0 0 0 0 0 0 0 0 0 0 3 10 13 19 26 19 16 19 19 16 23 26 35 45 42 45 39 32 29 42 32 23 26 29 26 26 23 26 23 23 23 19 23 19 26 26 29 26 26

GEFSSGP_con_cape1000_222.txt.gz
Probability
58 45 58 48 13 0 0 0 0 0 0 0 0 0 0 0 0 6 3 0 0 13 23 42 65 65 71 71 81 77 74 74 74 71 74 71 71 71 68 65 71 65 68 71 71 74 71 61 61
55 55 55 26 0 0 0 0 0 0 0 0 0 0 0 3 6 3 3 0 0 13 23 39 55 61 74 74 71 74 71 71 77 77 65 61 68 71 71 68 71 74 68 74 68 68 61 58 61
55 68 39 0 0 0 0 0 0 0 0 0 0 0 0 6 3 3 3 0 6 19 29 52 68 71 65 74 74 77 68 68 74 71 65 65 65 71 65 68 74 74 68 71 71 55 52 52 58
55 35 13 0 0 0 0 0 0 0 0 0 0 0 3 0 0 0 3 3 10 23 29 45 77 77 68 65 71 71 71 71 71 61 65 65 65 65 71 74 74 74 81 77 74 74 58 65 55
52 23 0 0 0 0 0 0 0 0 0 0 0 0 10 10 10 3 3 3 13 16 26 42 74 77 74 71 68 71 68 74 71 71 71 71 61 65 68 71 77 61 68 77 68 58 55 55 55
16 0 0 0 0 0 0 0 0 0 0 0 0 0 10 13 10 3 6 6 13 16 23 45 71 71 68 68 71 71 74 77 74 74 74 74 74 65 65 65 68 65 58 55 61 45 45 45 45
10 0 0 0 0 0 0 0 0 0 0 0 0 0 6 10 10 6 13 6 10 13 26 32 39 61 68 71 71 71 71 68 74 74 74 74 74 68 68 68 74 77 61 52 45 39 42 39 55
6 0 0 0 0 0 0 0 0 0 0 0 0 0 3 19 16 13 13 19 13 19 23 32 32 48 45 52 74 74 71 71 71 74 74 74 68 71 68 65 74 68 55 52 45 45 48 55 52
0 0 0 0 0 0 0 0 0 0 0 0 0 0 3 19 19 16 16 19 23 19 32 29 32 45 45 39 39 68 68 68 68 68 68 74 65 48 55 48 74 74 68 55 52 52 45 42 48
0 0 0 0 0 0 0 0 0 0 0 6 6 3 16 23 26 19 13 23 26 23 35 35 32 42 35 39 58 71 55 61 68 74 65 65 68 68 42 58 71 65 65 45 45 52 48 29 26
0 0 0 0 0 0 0 0 0 0 0 0 6 13 19 19 23 13 6 13 19 19 23 39 42 48 39 52 55 68 65 71 61 74 74 71 55 45 61 55 65 65 39 29 45 32 26 16 13
0 0 0 0 0 0 0 0 0 0 0 3 6 16 16 13 16 13 10 16 19 23 26 35 45 55 58 58 55 68 55 61 52 71 58 55 58 45 55 65 45 39 48 45 45 55 23 19 19
0 0 0 0 0 0 0 0 0 0 3 6 10 10 10 16 16 23 23 26 19 23 32 35 52 61 68 74 65 58 55 55 65 74 58 58 48 55 45 68 52 39 45 45 48 48 42 29 23
0 0 0 0 0 0 0 0 0 6 6 10 13 13 6 13 13 16 29 26 29 32 39 39 55 68 74 81 74 58 48 71 52 61 55 55 58 52 52 65 65 48 39 42 45 45 48 39 39
0 0 0 0 0 0 0 0 0 6 6 13 16 16 10 10 13 19 32 35 32 32 42 65 61 65 74 65 58 61 52 55 52 61 65 65 58 61 58 55 55 61 55 58 58 45 45 58 45
0 0 0 0 0 0 0 0 3 3 6 16 16 16 16 16 19 29 32 45 42 48 65 71 35 61 74 74 77 55 68 52 65 68 68 65 65 68 71 58 52 61 61 61 52 52 48 48 55
0 0 0 0 0 0 0 0 6 3 10 19 16 16 19 26 23 23 35 48 48 58 68 71 71 74 71 74 77 71 74 68 71 68 68 74 68 65 58 58 58 68 61 55 39 35 52 55 52
0 0 0 0 0 0 0 6 10 6 6 16 19 19 26 32 32 35 39 39 55 58 68 74 77 81 81 77 77 77 77 74 77 68 71 74 81 65 58 65 65 52 55 52 68 74 68 58 65
0 0 0 0 0 0 3 6 13 13 10 16 23 23 29 26 26 39 45 42 52 65 77 77 84 84 87 81 77 77 77 77 77 74 71 71 71 74 81 58 68 68 58 68 48 52 48 48 61
0 0 0 0 3 6 6 10 10 19 23 32 35 23 32 26 35 58 55 52 52 84 90 87 87 84 84 87 90 81 74 74 77 71 77 74 68 77 65 81 65 65 71 68 61 58 58 48 55
0 0 0 0 3 6 6 6 10 16 16 29 29 32 26 32 32 58 58 65 58 84 90 77 90 84 87 87 77 81 87 77 71 74 74 74 74 65 68 65 58 68 55 55 68 65 55 48 55
0 0 0 0 0 0 3 3 10 16 29 29 35 35 32 35 45 55 68 68 68 74 84 90 90 90 87 81 74 74 84 71 77 74 74 74 74 74 65 65 74 74 68 74 61 55 52 58 55
0 0 0 0 0 0 0 0 3 19 23 29 39 39 39 48 45 55 65 71 65 71 77 90 90 94 94 87 87 81 77 77 68 68 71 74 71 68 65 65 74 74 71 77 68 65 61 61 52
0 0 0 0 0 0 0 0 0 10 23 23 32 42 52 48 52 61 68 74 74 74 81 87 90 94 94 94 87 87 81 77 74 74 71 71 65 65 58 71 74 74 74 81 74 68 61 58 58
0 0 0 0 0 0 0 0 0 13 13 16 26 42 58 65 58 71 71 81 81 84 90 90 90 94 94 94 90 87 87 84 77 71 74 71 61 61 71 65 71 77 71 71 68 68 65 65 68
0 0 0 0 0 0 0 0 0 10 16 19 29 35 52 58 68 74 71 77 84 87 90 90 87 90 90 87 87 87 87 77 77 77 68 68 61 52 61 61 65 68 68 61 68 61 68 65 74
0 0 0 0 0 0 0 0 3 13 16 26 32 39 45 55 65 68 74 81 84 84 87 84 84 81 81 81 77 81 77 74 71 74 74 65 61 55 58 45 58 58 61 65 68 65 65 71 71
0 0 0 0 0 0 0 0 0 13 16 32 35 48 55 65 74 71 71 74 77 74 81 81 77 77 77 74 74 71 74 74 77 74 74 68 65 61 55 55 52 48 52 61 65 68 65 68 71
0 3 0 0 0 0 0 0 3 19 26 29 39 45 61 65 71 71 81 81 77 68 68 77 77 77 74 74 71 68 68 68 68 71 74 68 65 65 61 58 58 55 55 58 65 52 58 61 71
0 0 3 0 0 0 0 3 13 13 19 29 35 48 55 65 81 81 81 81 81 74 71 77 81 77 71 71 71 68 68 68 68 68 68 68 61 61 61 58 58 58 52 55 55 52 52 58 65

GEFSSGP_con_cape1000_228.txt.gz
Probability
32 26 42 84 71 16 0 0 0 0 0 0 0 0 0 0 0 0 10 13 23 23 35 45 61 65 61 65 65 71 68 74 61 68 61 65 58 58 61 52 52 61 65 65 65 65 45 45 52
29 48 77 81 35 0 0 0 0 0 0 0 0 0 3 0 0 0 13 16 16 19 26 39 65 68 65 71 71 68 68 71 65 65 58 61 58 68 65 52 52 55 55 52 52 48 48 48 48
42 77 71 52 0 0 0 0 0 0 0 0 0 3 0 3 0 0 10 13 23 19 39 58 71 71 71 65 65 65 58 61 61 65 58 55 65 58 58 55 61 55 52 48 45 45 42 48 48
77 84 52 6 0 0 0 0 0 0 0 0 3 3 0 3 0 6 6 10 19 26 39 55 74 77 74 68 71 68 68 65 61 61 61 58 52 52 61 74 65 61 68 48 48 48 52 52 45
81 58 16 0 0 0 0 0 0 0 0 0 3 0 0 0 0 6 6 10 23 26 29 48 74 71 71 74 71 71 71 61 65 61 58 55 61 61 81 84 84 71 71 55 52 45 45 42 32
55 23 0 0 0 0 0 0 0 0 0 3 3 3 0 0 0 6 10 19 23 26 29 55 77 74 71 71 74 74 71 68 68 61 58 65 55 58 74 74 71 65 55 55 48 45 39 26 26
26 3 0 0 0 0 0 0 0 0 0 0 3 6 0 0 0 6 10 23 26 29 32 45 55 71 77 77 77 77 74 68 61 61 61 68 65 71 61 77 74 58 48 55 45 39 42 35 35
6 0 0 0 0 0 0 0 0 0 0 0 0 3 0 6 0 6 13 26 45 39 39 48 45 48 52 58 71 71 68 61 68 68 68 71 61 71 65 74 71 61 58 52 48 35 35 42 42
3 0 0 0 0 0 0 0 0 0 0 0 0 3 0 0 6 6 13 19 32 42 48 45 42 45 52 48 58 65 68 68 61 71 74 71 61 52 71 68 68 55 45 42 42 35 42 42 45
0 0 0 0 0 0 0 0 0 0 3 0 3 6 3 3 6 10 16 23 19 29 39 48 45 42 42 42 65 74 58 68 74 71 77 81 77 84 55 65 84 65 55 45 39 39 48 29 29
0 0 0 0 0 0 0 0 0 0 3 3 3 3 6 3 6 6 10 19 26 32 39 39 48 61 55 61 65 68 74 90 77 77 81 77 81 74 55 58 68 68 52 39 48 48 35 32 45
0 0 0 0 0 0 0 0 0 0 0 3 6 3 10 3 3 3 6 16 23 39 39 42 55 71 81 84 74 77 71 77 74 90 77 77 81 84 77 90 77 84 77 74 58 77 74 65 52
0 0 0 0 0 0 0 0 0 0 3 6 6 3 10 6 3 6 13 23 32 39 45 55 71 81 84 94 87 77 81 68 74 90 87 90 81 87 87 87 84 84 77 71 77 77 77 68 42
0 0 0 0 0 0 0 0 0 3 6 6 6 13 6 6 6 13 16 29 39 42 61 65 77 84 87 87 90 90 74 87 77 84 81 84 90 94 94 81 84 84 84 74 71 71 74 68 71
0 0 0 0 0 0 0 0 0 3 6 6 10 13 13 10 13 10 19 39 42 58 68 77 81 84 87 84 87 77 68 68 74 84 81 77 87 87 90 87 87 84 81 81 81 74 71 71 58
0 0 0 0 0 0 0 0 6 6 10 13 10 13 13 16 16 13 23 39 58 65 84 84 65 81 84 87 87 77 71 77 84 84 81 71 74 77 94 90 84 81 84 81 77 74 81 68 68
0 0 0 0 0 0 0 0 6 10 13 16 10 13 13 13 13 23 23 35 74 81 84 90 87 87 84 84 87 81 81 84 84 81 81 77 77 68 74 81 90 84 87 84 71 74 74 68 65
0 0 0 0 0 0 0 0 6 10 13 16 19 13 13 16 16 19 32 45 74 81 87 90 90 87 87 87 87 84 84 87 84 77 77 81 81 71 71 77 84 77 81 90 84 81 77 71 71
0 0 0 0 0 0 0 0 6 6 10 19 23 23 16 23 16 32 35 35 71 87 90 90 90 94 94 87 87 87 87 90 87 81 77 81 77 81 74 74 87 81 84 77 77 74 81 68 71
0 0 0 0 0 0 0 0 3 10 10 13 26 26 29 32 35 48 48 52 71 90 90 97 94 94 94 90 90 90 90 90 84 84 84 81 81 81 71 84 71 81 84 81 81 77 77 77 71
0 0 0 0 0 0 0 0 3 16 13 16 29 26 23 29 42 55 58 65 74 90 90 94 100 97 97 90 87 90 90 90 81 77 84 81 81 81 87 84 81 77 84 90 87 84 81 68 71
0 0 0 0 0 0 0 3 16 19 19 19 29 29 29 29 58 58 68 71 74 90 90 97 100 100 97 94 90 87 90 81 77 84 84 81 77 81 81 84 81 87 84 87 81 84 74 68 65
0 0 0 0 0 0 0 0 6 16 29 29 29 35 29 32 55 65 77 77 77 81 90 94 100 97 100 100 97 94 87 84 84 81 81 84 81 74 71 74 81 84 84 84 84 81 84 81 61
0 0 0 0 0 0 0 0 3 6 29 29 32 29 45 39 52 68 81 87 90 90 94 94 100 97 97 97 97 97 97 90 87 90 87 81 74 74 68 74 87 77 81 84 84 87 87 90 84
0 0 0 0 0 0 0 0 6 3 13 23 29 32 52 55 58 65 74 87 94 94 94 94 90 97 94 90 90 90 100 90 90 84 84 77 74 74 81 71 77 81 84 81 84 87 84 87 90
0 0 0 0 0 0 0 0 6 6 6 6 23 32 55 58 55 65 71 81 87 90 94 94 90 90 90 90 94 94 97 90 81 84 74 77 65 68 74 74 77 74 74 71 81 84 84 84 81
0 0 0 0 0 0 0 3 6 10 3 6 26 35 52 58 61 71 77 81 84 87 90 90 87 87 84 84 87 87 84 84 84 81 77 74 74 71 68 68 71 74 71 71 71 77 77 81 74
0 0 0 0 3 0 0 0 6 10 13 13 26 39 48 52 58 65 74 81 81 74 84 87 84 84 81 81 81 81 81 81 81 74 74 74 74 71 65 65 65 61 68 68 68 68 68 74 71
0 0 0 0 0 0 0 0 13 32 16 19 35 45 48 48 55 68 77 77 81 81 84 84 84 81 81 81 81 81 77 77 77 77 77 71 68 65 61 68 65 68 68 68 68 68 65 65 65
0 0 0 0 10 0 0 3 16 19 19 26 39 58 52 55 58 65 81 77 84 84 81 81 74 77 77 74 74 74 74 77 77 74 77 74 74 65 65 65 61 68 68 68 68 65 61 55 58

GEFSSGP_con_cape1000_234.txt.gz
Probability
68 26 16 26 23 0 0 0 0 0 0 0 0 0 0 0 0 0 0 0 10 26 29 65 81 84 81 81 77 77 74 77 77 68 71 68 68 77 77 77 74 71 74 65 65 58 68 71 71
16 13 19 26 6 0 0 0 0 0 0 0 0 0 0 6 6 3 3 6 10 26 32 52 84 81 81 84 77 77 71 74 77 71 71 71 68 68 65 71 74 71 61 65 65 48 52 58 61
3 23 35 35 3 0 0 0 0 0 0 0 0 0 3 6 6 3 3 6 10 19 29 55 77 81 84 84 77 74 77 74 68 71 71 65 68 61 61 71 68 68 65 52 55 55 45 48 42
23 29 26 6 0 0 0 0 0 0 0 0 0 0 0 6 6 6 3 6 10 19 32 65 84 81 81 77 81 74 71 65 71 68 68 65 71 68 61 68 65 58 65 61 55 55 58 55 48
26 26 19 0 0 0 0 0 0 0 0 0 0 0 0 10 10 6 6 10 10 19 35 61 84 84 84 87 84 77 77 71 68 65 65 71 74 68 74 71 68 61 55 58 58 55 52 42 35
19 13 6 0 0 0 0 0 0 0 0 0 0 0 0 10 6 6 10 10 10 19 45 65 84 84 84 87 84 74 74 74 68 65 65 68 74 68 77 77 71 61 61 58 48 48 45 39 39
16 10 0 0 0 0 0 0 0 0 0 0 0 0 3 6 6 6 6 13 16 26 39 55 61 68 81 81 84 77 74 68 65 71 68 65 71 81 77 81 74 68 61 52 55 42 42 39 42
10 0 0 0 0 0 0 0 0 0 0 0 0 0 3 6 10 6 6 10 13 23 32 45 52 55 61 68 77 71 71 71 74 71 74 74 68 74 77 87 87 65 61 45 35 29 35 42 42
6 0 0 0 0 0 0 0 0 0 0 0 0 0 3 6 10 6 6 6 10 16 23 32 39 39 42 48 61 65 71 74 71 74 77 71 29 35 58 58 81 65 52 39 29 35 45 52 42
0 0 0 0 0 0 0 0 0 0 0 0 0 0 0 10 6 6 6 6 10 19 19 26 26 26 32 39 45 39 55 48 42 32 42 26 13 16 39 55 81 68 55 52 45 55 39 39 19
0 0 0 0 0 0 0 0 0 0 0 3 0 3 10 6 10 10 10 13 13 13 16 26 26 23 32 32 35 29 32 35 26 29 19 16 13 3 13 13 45 42 35 19 23 39 23 19 10
0 0 0 0 0 0 0 0 0 0 3 3 0 10 6 10 6 16 16 16 13 13 16 16 16 19 16 16 32 26 16 26 29 26 16 10 3 3 3 0 13 10 6 3 3 10 6 6 6
0 0 0 0 0 0 0 0 0 0 0 0 3 3 6 6 6 10 13 10 16 16 13 16 19 23 13 16 16 23 19 16 23 29 13 6 3 3 3 0 6 6 3 3 3 3 3 3 3
0 0 0 0 0 0 0 0 3 3 3 3 3 3 3 3 10 10 10 13 10 13 19 19 23 19 13 13 13 19 26 16 19 16 13 13 6 6 6 6 6 6 3 3 3 3 3 3 3
0 0 0 0 0 0 0 3 6 10 6 6 6 3 6 6 6 10 10 10 10 13 16 19 19 13 13 16 16 19 16 19 16 10 16 10 13 6 6 13 6 10 3 6 3 6 6 3 3
0 0 0 0 0 0 0 3 6 10 10 10 6 6 6 6 6 10 10 10 13 13 16 16 29 19 19 16 16 16 16 19 13 13 16 19 23 13 10 6 6 6 13 6 3 3 3 3 3
0 0 0 0 0 0 0 0 6 10 10 10 13 10 10 3 6 10 10 10 13 19 13 10 13 23 19 29 23 26 19 23 19 16 19 32 26 19 16 10 3 10 10 6 10 3 3 6 3
0 0 0 0 0 0 0 0 3 6 10 10 13 10 10 13 10 10 10 13 10 13 13 13 26 26 32 29 29 29 26 32 29 29 26 26 32 23 16 13 16 16 19 10 3 6 3 3 0
0 0 0 0 0 0 0 0 3 6 10 13 13 10 13 13 10 10 10 10 10 19 13 16 26 26 26 32 26 26 26 29 23 29 29 23 23 26 19 19 19 16 13 16 10 10 10 3 3
0 0 0 0 0 0 0 0 0 6 6 10 13 10 10 6 6 10 6 13 19 26 19 26 32 39 35 32 23 26 26 32 26 26 29 29 29 26 26 23 23 23 13 10 10 10 10 10 3
0 0 0 0 0 0 0 0 0 3 6 6 6 6 6 10 10 10 10 23 35 39 35 39 45 39 45 39 42 42 32 35 35 26 32 32 32 32 26 23 23 19 16 16 16 13 10 10 6
0 0 0 0 0 0 0 0 0 0 6 10 6 6 6 13 19 10 19 26 39 39 42 48 48 45 58 48 52 48 42 42 35 29 35 35 39 35 29 26 19 16 19 16 16 13 10 6 3
0 0 0 0 0 0 0 0 0 3 6 10 10 13 13 10 13 26 26 39 42 42 39 42 48 55 58 55 48 42 39 45 35 39 35 39 39 32 35 26 23 23 16 19 19 23 10 3 3
0 0 0 0 0 0 0 0 3 3 3 10 16 16 13 13 13 19 35 35 48 58 55 52 52 52 58 58 55 48 48 39 42 39 26 26 26 29 29 32 23 19 16 19 26 19 10 3 3
0 0 0 0 0 0 0 0 3 3 3 10 19 16 16 13 13 19 23 39 48 61 61 58 55 58 58 58 55 55 48 42 39 45 35 29 29 29 29 29 26 23 26 26 26 23 13 10 10
0 0 0 0 0 0 0 0 0 3 0 10 13 13 23 23 16 26 26 35 45 48 55 55 55 55 55 52 48 55 45 42 35 39 35 32 35 35 32 29 29 29 39 39 35 29 23 16 10
0 0 0 0 0 0 0 0 0 6 6 16 13 19 26 29 32 26 29 29 42 45 58 61 65 61 68 65 45 55 42 42 35 39 39 32 32 35 35 35 32 32 39 42 42 35 32 29 23
0 0 0 0 0 0 0 3 3 10 6 6 13 16 23 35 39 32 29 29 42 48 55 68 65 65 58 55 55 52 45 42 39 39 32 29 29 29 32 32 35 39 32 32 32 29 29 29 23
0 0 0 0 0 0 0 3 6 3 10 6 19 16 16 23 19 29 39 32 42 48 48 52 61 61 58 52 55 55 55 45 42 35 32 32 29 26 32 35 35 29 32 32 32 29 23 26 29
0 0 0 0 0 0 0 6 3 6 6 6 16 16 13 16 29 29 39 39 35 45 52 58 61 58 61 61 58 58 58 48 45 39 39 39 35 26 29 32 26 26 26 26 23 19 23 26 19